GFSNGP_500_spd_003.txt.gz
Wind_Speed
21 22 21 20 20 19 18 20 21 21 22 29 29 30 30 32 35 37 39 42 44 44 46 48 51 53 54 56 58 59 62 63 63 65 68 71 76 80 82 86 91 97 96 84
23 23 24 24 22 22 24 25 27 29 27 34 35 37 36 37 40 41 43 46 48 48 49 52 55 55 57 58 59 61 62 63 64 67 70 74 78 81 84 91 96 95 83 69
25 26 28 30 22 27 29 31 33 33 34 38 39 41 41 42 43 44 47 49 51 51 52 56 56 57 58 59 60 62 63 64 66 69 73 77 80 82 89 94 93 82 69 59
28 29 34 28 28 32 35 37 39 40 41 43 44 45 44 45 47 48 50 51 52 53 54 56 57 58 59 59 61 63 63 65 69 73 76 79 81 87 93 91 79 70 61 49
30 32 34 35 35 38 41 43 45 46 48 49 50 50 48 51 49 51 52 53 53 53 54 56 57 58 59 60 62 63 65 69 71 76 78 79 86 91 89 78 70 63 52 42
29 33 35 36 39 41 44 47 47 50 50 52 52 53 51 51 52 53 53 53 53 54 55 56 57 59 59 61 62 64 68 70 74 78 79 85 90 88 77 71 65 56 45 37
29 33 35 37 39 41 43 47 48 49 51 51 51 51 51 52 52 51 51 52 53 53 56 58 59 59 59 62 64 65 71 73 77 79 83 89 86 78 71 66 59 48 40 35
31 35 39 40 42 44 46 48 50 50 50 50 49 49 50 49 48 50 50 51 54 55 58 58 58 58 61 63 65 69 73 76 77 81 86 87 76 72 66 61 50 41 36 32
36 37 40 43 45 46 46 47 47 46 47 47 47 47 47 47 49 51 53 55 55 57 59 58 59 61 61 66 68 72 74 76 80 84 85 77 71 66 61 52 42 35 32 30
39 38 40 43 43 43 43 43 43 44 45 45 45 46 48 50 53 56 58 55 57 61 59 59 61 62 64 68 70 73 76 80 81 84 78 69 66 61 54 44 36 32 32 30
38 37 39 38 37 39 40 41 42 43 44 44 46 50 52 55 55 55 55 50 59 59 57 62 64 63 69 70 73 76 78 80 82 78 69 65 61 54 45 38 33 31 31 27
38 36 37 36 38 39 39 40 42 44 46 49 51 53 53 51 52 53 56 57 55 56 59 63 67 65 69 74 76 76 78 81 77 71 64 61 54 46 38 34 32 29 26 22
37 38 39 40 42 43 44 46 48 49 51 52 54 51 49 53 55 52 55 53 58 62 64 64 64 64 71 75 76 76 77 75 71 66 61 55 47 39 34 31 29 26 21 21
40 41 42 44 45 46 48 49 52 53 52 51 50 50 52 55 55 49 42 53 59 65 65 62 65 70 77 76 74 75 73 69 66 61 58 50 42 35 31 28 26 23 22 24
42 44 45 47 48 50 52 52 51 51 52 52 55 55 56 51 57 55 59 62 65 65 61 59 70 77 78 75 73 71 67 65 62 58 54 45 39 33 30 27 24 23 25 26
44 45 47 48 48 49 52 53 54 55 56 56 58 60 58 56 52 54 58 64 68 65 64 68 74 76 73 71 68 65 63 62 58 55 50 41 36 31 29 27 26 26 27 29
44 44 47 49 51 52 53 54 55 56 57 57 55 55 56 56 54 56 61 69 68 66 68 72 71 71 70 67 64 62 62 60 55 52 46 39 34 29 28 27 27 27 28 28
44 48 50 52 53 53 54 55 56 58 58 55 55 53 52 52 56 63 64 62 66 69 71 72 69 68 66 62 61 61 61 58 52 50 43 37 32 29 27 27 26 26 28 28
47 48 50 51 53 54 55 55 55 55 56 55 49 52 53 52 54 58 63 65 66 68 69 68 66 63 60 60 61 60 60 56 51 49 42 36 33 31 30 30 30 31 32 33
53 54 55 56 58 57 56 55 52 51 48 49 52 56 58 61 63 63 64 66 66 66 65 64 62 59 59 61 60 62 58 53 50 48 43 37 35 34 34 33 33 33 35 35
59 57 58 58 56 54 53 55 54 54 54 56 58 59 60 60 60 61 60 62 64 65 65 63 61 60 60 58 58 57 54 51 48 48 44 38 37 36 35 34 34 34 33 35
58 58 58 58 57 57 54 54 55 54 53 56 59 57 53 55 60 62 66 69 68 66 64 63 61 61 58 57 55 53 51 49 48 47 44 39 38 37 36 35 34 34 35 36
56 54 55 52 53 55 56 57 57 54 56 58 54 55 57 60 64 68 68 67 66 65 65 64 63 61 59 55 52 51 49 48 47 45 42 38 37 35 35 35 34 35 36 36
56 57 60 63 61 54 52 52 52 51 49 52 56 60 64 67 68 70 69 66 63 63 63 62 60 59 57 54 51 50 49 47 45 43 40 38 36 35 36 36 36 37 38 38
55 55 54 55 54 51 51 51 53 54 54 58 61 66 70 72 73 68 67 70 71 70 66 63 61 58 56 53 51 50 48 46 44 42 40 38 37 37 38 38 37 39 41 42
56 55 54 52 52 52 52 55 57 58 60 62 67 71 74 73 72 73 73 69 65 62 61 59 57 55 55 53 50 50 48 46 44 42 40 39 39 39 39 39 40 41 43 43
50 48 48 50 52 53 56 58 60 62 67 70 72 74 74 75 75 70 68 67 66 65 63 60 57 56 55 53 51 49 48 46 44 42 41 41 41 41 42 45 44 42 43 45

GFSNGP_500_spd_006.txt.gz
Wind_Speed
18 20 22 21 21 20 19 20 20 20 21 25 31 30 32 34 36 39 41 43 45 48 51 54 55 56 57 58 58 59 60 63 63 64 65 66 68 73 76 79 83 84 91 95
20 20 23 24 23 22 23 24 26 29 26 32 35 37 38 40 42 43 45 47 49 51 54 57 57 58 58 57 58 60 62 63 64 64 64 67 70 76 78 83 85 88 95 83
20 22 24 26 22 25 28 29 32 35 36 38 41 43 46 47 48 49 50 51 51 53 55 57 58 58 56 57 58 60 62 64 63 63 66 68 74 77 82 85 87 93 84 76
20 23 28 23 24 28 32 34 38 41 44 47 49 51 51 52 53 52 52 52 52 54 56 57 56 54 55 57 59 62 62 62 63 65 67 71 76 79 85 86 91 87 77 71
24 25 27 29 29 32 35 38 42 45 48 50 52 54 53 55 53 53 53 53 53 54 55 53 53 54 56 60 61 63 61 62 63 65 68 72 76 82 86 89 89 80 73 66
23 26 27 26 29 32 35 39 41 43 46 49 51 52 53 54 53 53 52 52 52 51 51 52 54 55 56 57 60 61 62 64 65 69 72 75 79 85 88 89 82 74 68 58
22 25 27 30 31 33 37 41 43 45 47 48 50 51 50 50 49 48 48 47 47 49 51 54 55 55 56 58 61 61 64 67 69 72 74 80 85 86 87 84 76 69 60 49
25 29 33 34 37 40 42 44 45 47 47 46 46 45 45 44 44 43 43 45 49 52 55 54 55 59 57 60 61 64 67 71 70 75 76 85 86 85 83 76 68 60 50 42
31 33 38 42 44 44 45 43 43 42 43 42 42 43 42 42 42 44 49 51 53 54 53 54 56 57 56 61 62 66 70 72 73 77 82 87 86 83 77 68 60 51 42 37
36 37 42 45 44 42 41 40 40 40 40 41 41 41 43 46 49 51 52 56 53 53 57 61 59 55 59 61 64 68 70 73 77 80 85 86 84 78 70 60 52 43 37 34
41 41 42 39 38 38 39 39 40 40 41 42 44 46 48 50 52 54 54 52 52 58 56 57 62 62 56 62 70 72 72 76 78 79 82 82 78 69 59 53 44 37 33 32
39 37 36 35 37 38 40 41 41 43 44 45 47 49 51 50 49 49 51 53 56 56 58 58 54 69 59 64 71 73 76 76 74 78 77 73 67 60 54 47 39 34 31 28
36 35 37 40 41 42 43 44 45 46 47 48 49 48 50 51 51 53 55 56 57 54 58 66 66 66 66 70 73 75 76 81 76 74 71 66 59 54 49 41 36 31 29 25
38 39 40 42 44 46 47 48 48 49 48 48 51 52 54 56 58 57 58 56 54 52 61 69 64 67 76 80 74 74 78 77 71 68 63 59 55 50 46 38 34 30 28 27
38 41 44 47 48 48 48 48 47 49 52 54 56 57 57 58 56 58 56 54 57 58 57 64 73 74 71 69 72 77 70 67 65 59 57 55 53 49 45 37 33 30 28 27
43 45 46 46 46 47 47 48 51 53 55 57 58 59 60 61 61 58 56 55 57 61 65 70 73 67 71 74 71 68 67 65 59 55 55 55 51 47 43 36 32 29 27 25
45 45 45 45 45 47 50 52 55 58 59 61 62 61 59 58 57 57 56 58 64 67 67 66 68 70 67 67 68 67 64 59 56 54 54 52 49 45 40 37 32 30 28 27
40 40 42 45 47 50 53 55 57 59 60 60 59 58 57 55 56 55 60 62 61 63 65 65 64 64 65 67 67 65 60 57 56 54 53 52 48 44 41 36 34 33 32 32
42 44 47 51 53 55 56 56 57 58 58 57 56 55 52 51 55 59 64 67 66 66 63 61 60 64 69 70 68 64 61 59 57 56 53 51 47 44 43 38 35 34 34 33
49 52 54 55 58 57 57 58 56 55 55 55 54 54 55 57 55 57 60 59 56 57 58 63 68 71 71 67 63 62 61 59 57 54 51 49 47 45 43 39 35 35 35 35
55 57 58 58 57 57 56 55 55 55 58 61 62 60 56 52 50 51 53 54 58 62 66 69 72 69 65 63 63 61 60 57 54 51 49 47 45 44 42 39 35 35 35 35
55 54 54 55 54 54 55 57 59 60 60 58 55 52 53 53 54 56 59 61 63 68 70 73 70 68 69 68 65 60 58 56 52 49 46 45 44 42 41 38 35 34 34 35
48 49 50 53 56 57 59 59 60 58 56 54 54 56 57 60 60 61 62 66 70 73 76 75 73 70 66 62 58 55 53 52 49 48 46 45 43 41 40 37 36 34 33 35
50 53 56 58 59 59 60 59 59 56 55 54 55 56 59 61 62 65 67 69 74 76 77 74 70 68 66 64 61 58 56 53 48 46 46 45 43 41 39 37 37 35 35 38
55 58 59 60 60 59 57 54 51 50 51 54 56 59 61 63 65 66 73 75 77 77 73 71 69 65 60 57 55 53 52 54 46 46 45 44 43 41 40 38 38 38 37 37
58 59 59 58 55 52 49 49 50 52 53 55 58 61 63 66 70 75 78 80 76 73 70 66 62 58 54 50 46 45 41 49 47 46 45 44 43 42 40 39 39 38 39 40
57 55 51 48 48 48 49 50 52 55 57 59 61 65 70 74 77 81 79 74 71 68 65 60 55 51 49 46 43 41 40 48 47 43 44 44 43 42 41 40 40 40 41 43

GFSNGP_500_spd_009.txt.gz
Wind_Speed
20 20 20 20 19 21 22 19 22 18 24 23 30 33 33 35 36 39 42 45 48 51 52 54 56 57 58 58 60 61 60 59 59 60 62 65 66 65 67 70 72 75 78 85
19 20 21 22 22 22 23 23 26 26 30 31 33 37 38 42 44 46 49 51 52 53 55 55 56 56 57 57 58 57 58 58 59 61 63 68 65 67 70 73 75 77 82 91
20 19 22 22 19 23 24 25 28 31 31 39 40 43 44 48 51 52 53 54 55 54 53 53 54 54 55 55 54 55 56 59 61 61 64 66 65 68 72 78 77 80 85 93
19 20 23 19 19 23 27 27 31 35 37 43 46 48 50 52 55 54 54 53 52 53 52 51 52 51 51 52 53 56 57 56 59 64 63 64 66 71 75 76 79 83 86 93
20 22 23 22 22 24 27 28 36 37 40 44 47 49 50 55 53 53 53 53 51 50 49 48 47 49 51 55 57 57 56 59 63 65 67 66 71 76 79 77 79 82 86 93
18 21 22 22 23 25 27 31 34 36 39 43 46 49 50 52 53 52 49 48 47 47 46 46 49 52 56 57 55 56 58 65 71 74 72 70 72 78 79 81 86 80 82 87
15 18 19 21 24 27 30 35 37 41 43 46 46 47 48 47 46 46 44 44 43 44 47 51 54 55 53 54 59 59 64 64 67 79 80 78 76 76 75 78 78 82 80 76
19 22 26 27 30 32 35 38 42 44 47 47 46 45 45 44 44 43 42 44 45 48 51 53 54 53 53 59 58 61 71 69 72 83 86 81 74 74 73 77 79 82 75 66
24 28 31 33 35 38 40 43 45 46 44 45 45 45 45 45 44 45 47 48 50 52 52 52 50 53 56 54 53 57 74 78 77 81 79 73 76 79 79 78 77 72 65 57
29 32 35 38 40 42 44 44 43 43 43 44 44 45 46 47 47 48 50 51 50 51 52 54 56 57 58 59 64 69 71 79 82 76 74 75 72 72 75 75 67 61 55 50
34 35 40 40 42 43 43 43 41 42 44 46 45 47 48 49 50 50 49 51 52 53 55 57 58 60 61 60 67 73 80 79 76 76 74 68 69 74 68 62 56 53 50 45
38 40 40 42 42 40 40 42 44 45 46 48 49 50 50 50 49 51 54 55 56 57 59 58 60 60 59 64 72 72 75 76 80 73 71 71 68 63 57 53 53 50 47 41
40 40 39 39 41 42 44 44 45 47 49 49 49 49 49 51 54 55 58 60 60 60 58 60 66 61 63 69 69 70 72 78 73 69 68 66 62 58 51 51 49 47 43 37
37 37 41 41 45 46 46 48 49 49 49 48 48 49 52 54 57 59 60 62 62 61 61 58 59 63 66 70 74 76 74 70 65 63 63 62 57 54 51 50 49 45 42 35
38 41 43 45 47 48 49 49 48 47 47 48 50 53 56 59 61 62 62 62 61 60 56 55 58 64 69 72 70 66 64 61 62 66 67 64 56 52 52 51 49 45 42 36
43 44 45 47 48 47 46 45 45 47 49 53 55 59 61 63 63 63 62 60 58 58 56 57 64 70 72 69 65 60 60 63 67 70 65 58 55 54 52 51 49 44 41 37
46 47 45 44 42 41 43 46 48 52 55 58 61 60 60 61 61 60 58 58 57 56 60 63 65 67 65 62 60 61 63 66 71 68 60 57 55 53 51 49 47 44 41 38
43 41 40 40 43 44 47 51 54 57 59 60 59 60 58 57 57 57 58 60 60 59 58 57 58 58 58 62 62 64 65 70 68 65 63 61 58 53 50 48 46 43 41 39
40 41 43 44 47 51 54 56 57 58 59 57 55 55 57 58 59 58 56 57 57 56 54 54 59 60 61 64 67 69 70 70 67 65 63 60 56 53 50 46 44 42 40 39
41 43 46 50 53 55 56 56 56 53 52 55 58 60 60 59 59 58 55 53 55 56 58 62 64 65 66 66 68 71 71 69 65 61 58 54 49 48 46 44 42 41 40 37
46 49 52 54 55 54 52 49 50 54 57 60 61 62 62 61 58 57 56 56 59 60 62 64 64 64 67 70 73 75 73 69 65 61 59 57 51 47 45 43 41 39 38 37
54 55 54 54 51 48 50 53 56 59 61 63 63 64 62 59 56 54 55 57 58 61 62 64 67 70 74 77 79 75 70 67 63 60 58 56 54 49 46 42 40 39 38 36
55 55 52 50 50 53 55 59 61 63 64 64 63 61 57 54 53 54 55 59 62 64 66 70 74 77 80 79 74 69 65 60 56 54 52 50 49 47 46 44 40 39 38 37
52 50 51 53 55 58 62 63 64 64 63 61 58 55 54 54 56 59 61 62 65 69 74 77 79 80 76 71 66 62 57 52 49 47 47 45 46 42 40 41 42 40 38 38
51 53 55 58 61 63 63 64 63 60 57 55 55 55 56 59 61 62 65 68 72 76 79 79 76 70 65 61 56 52 49 46 43 43 41 43 43 47 43 44 42 41 41 40
56 59 61 63 62 62 60 58 55 55 55 55 57 58 61 63 65 68 71 75 78 79 76 70 65 60 55 52 50 48 46 43 41 41 41 41 44 49 54 55 48 44 43 41
61 62 61 59 56 53 52 52 53 55 55 57 59 62 64 66 69 73 76 77 75 70 66 60 55 53 53 52 51 50 48 47 44 42 42 43 45 51 56 56 52 46 43 41

GFSNGP_500_spd_012.txt.gz
Wind_Speed
24 17 23 25 17 18 21 19 21 17 19 15 22 32 39 36 38 35 38 47 48 51 56 58 56 55 53 54 54 54 54 56 55 56 59 63 61 60 66 67 73 78 76 73
22 22 22 23 22 21 21 21 21 21 25 23 36 37 39 39 42 45 46 47 50 51 54 55 56 57 55 53 52 51 52 53 56 59 62 59 63 64 66 68 79 90 86 79
22 22 22 22 16 21 22 22 23 26 27 31 39 42 38 40 45 50 48 50 52 52 54 55 56 55 51 50 51 49 52 56 59 58 58 59 66 67 71 79 85 91 88 85
23 23 24 17 17 19 21 22 26 29 32 37 39 41 42 46 48 49 53 53 55 55 54 51 50 50 50 48 50 54 56 58 56 58 63 66 64 66 68 77 86 89 85 72
23 23 20 19 18 18 21 25 29 30 33 37 39 41 44 48 49 53 55 55 53 50 48 47 47 48 48 51 55 56 57 56 57 60 62 64 74 77 80 80 81 80 75 70
19 21 21 22 20 21 24 27 26 28 32 36 40 42 46 49 51 50 48 47 49 47 45 46 47 51 51 54 55 55 57 59 63 64 73 68 79 82 86 80 67 67 74 74
16 17 16 18 16 21 24 27 30 33 36 39 43 46 47 49 48 46 47 48 48 47 48 50 52 53 52 53 54 56 57 59 62 63 65 81 81 78 74 64 71 79 77 67
13 15 18 20 22 25 28 31 34 37 40 43 45 45 44 44 45 47 43 47 48 49 50 51 51 52 54 55 58 59 60 61 63 64 69 82 83 79 66 78 80 76 67 59
17 22 23 25 26 29 31 34 38 41 43 44 45 44 45 46 49 48 47 48 48 49 49 49 53 55 57 58 60 59 63 64 65 73 79 83 80 75 79 67 64 65 59 51
23 26 30 32 31 34 38 38 41 42 43 44 41 43 47 48 48 49 50 51 48 47 50 52 54 57 59 61 63 60 62 61 68 74 78 76 77 76 70 66 61 55 52 50
29 31 35 38 40 40 40 42 43 43 43 42 45 46 47 49 49 48 46 47 49 51 54 57 60 62 62 62 60 58 67 70 71 70 73 75 77 59 60 61 58 53 49 47
35 38 37 42 43 43 44 45 43 42 45 46 46 49 50 50 48 47 48 50 54 57 60 63 64 63 64 61 58 58 62 62 67 72 75 68 59 56 58 57 52 51 49 48
41 42 44 46 45 44 45 44 45 46 47 48 48 50 49 48 49 50 53 56 60 62 65 65 64 63 62 59 58 58 61 67 72 69 58 57 58 59 60 57 54 51 50 49
44 44 48 46 47 47 45 46 48 49 49 50 48 47 47 49 52 56 59 61 64 65 63 62 62 63 62 62 61 62 67 66 64 61 61 61 60 61 63 63 58 54 51 47
43 43 46 48 47 47 48 49 50 50 47 45 45 47 50 54 57 60 62 63 62 60 61 63 65 65 64 63 62 63 60 60 60 62 61 63 64 64 65 64 61 56 51 46
45 46 46 46 47 48 50 49 46 43 44 47 49 53 57 60 62 62 60 58 60 63 64 64 65 65 62 60 59 59 57 59 63 61 61 61 62 64 63 61 59 55 51 45
47 48 48 48 48 47 46 44 44 47 49 52 55 59 61 61 60 56 58 61 63 64 66 66 64 60 59 61 61 59 60 63 63 62 62 64 66 67 64 59 53 49 47 44
49 50 50 50 49 47 45 46 48 51 54 58 60 61 60 57 56 59 63 65 66 67 67 64 60 58 59 59 61 63 63 63 64 66 69 70 68 66 63 60 56 50 46 42
49 50 50 49 47 45 46 49 52 57 60 61 61 58 55 57 61 64 66 67 68 67 62 58 58 57 58 59 62 63 65 66 69 71 72 73 70 66 63 62 58 52 47 44
49 46 44 44 45 47 50 53 58 60 61 59 56 56 58 62 65 66 67 68 67 62 58 57 58 59 60 62 64 66 69 73 75 76 75 72 68 64 61 62 56 51 45 43
44 44 47 48 50 53 56 58 61 59 55 55 57 61 64 66 67 67 65 63 60 58 57 59 60 62 63 65 68 73 76 78 78 75 70 65 62 58 54 53 51 46 41 40
47 50 50 52 55 58 59 59 55 55 58 60 64 66 67 68 66 64 63 60 58 58 60 62 63 65 68 72 75 78 79 74 69 64 60 56 53 50 48 45 44 41 40 38
51 53 56 59 59 59 57 56 58 61 63 67 68 68 67 65 63 61 60 60 60 62 63 65 68 72 75 78 78 73 67 62 57 53 51 48 46 44 42 42 40 38 37 35
56 60 61 59 57 57 58 61 63 66 69 69 68 66 62 61 60 59 59 60 61 64 68 71 74 77 77 72 68 63 55 52 52 51 48 46 43 42 42 41 39 38 41 43
57 56 56 57 59 62 64 67 69 69 67 65 62 60 59 57 56 59 62 66 68 69 72 75 74 71 68 64 56 53 53 54 54 52 50 47 44 42 42 41 40 41 45 47
55 57 60 62 65 67 68 68 66 63 59 57 58 56 56 61 64 66 67 67 70 74 74 71 67 64 60 55 53 54 55 55 54 53 50 48 46 44 43 42 42 44 47 50
61 63 65 67 68 66 62 59 55 53 54 55 57 60 63 67 67 68 70 72 73 71 68 66 63 59 55 53 55 56 57 57 55 52 49 47 45 45 45 45 46 47 49 51

GFSNGP_500_spd_018.txt.gz
Wind_Speed
20 21 22 25 23 24 26 21 25 15 20 15 23 24 25 26 25 24 24 28 33 35 37 41 45 47 47 43 42 42 46 47 49 51 52 54 55 56 56 60 62 65 69 73
24 24 25 28 29 24 23 22 24 18 18 21 26 26 27 26 28 29 31 34 38 42 46 49 49 49 44 43 41 45 46 48 51 52 54 55 55 56 58 61 66 68 72 75
29 28 30 35 27 26 26 28 25 24 23 23 25 28 28 29 31 33 36 39 42 43 43 46 48 48 46 44 47 49 50 50 51 52 53 53 56 58 63 65 67 69 71 78
31 32 34 27 25 29 26 26 25 25 25 25 26 27 29 31 34 37 39 42 44 46 47 49 47 46 47 48 48 48 48 49 50 50 53 56 59 64 68 61 71 74 76 78
30 30 30 24 24 26 25 25 24 24 24 24 27 29 32 34 35 38 41 44 46 48 50 48 45 47 47 47 48 49 49 48 49 52 56 61 66 70 64 68 72 79 76 79
28 26 26 21 24 23 25 27 23 23 24 27 30 31 32 34 38 41 44 46 48 50 49 48 49 49 50 50 50 49 49 51 53 54 62 59 61 69 68 70 76 77 78 77
24 23 22 19 22 23 25 22 23 24 26 27 28 31 34 37 40 43 45 46 46 45 48 49 49 51 51 50 49 49 50 52 57 59 64 62 63 66 69 70 71 74 71 70
18 18 16 16 17 20 19 20 20 21 25 28 30 33 36 40 43 45 46 46 46 47 49 49 51 51 49 48 49 50 54 58 59 61 61 61 63 66 67 69 70 65 67 61
13 11 13 14 13 14 15 17 21 25 28 31 35 38 40 42 44 45 46 47 48 50 52 52 52 50 48 49 52 55 58 59 59 58 59 62 64 67 71 69 63 61 54 53
14 13 15 15 16 18 21 24 28 31 34 36 38 41 43 44 44 46 47 49 51 53 53 52 49 48 50 54 57 59 60 59 59 60 62 66 71 72 70 66 62 57 53 53
19 19 22 24 26 27 29 31 33 36 38 41 43 44 45 46 47 48 49 51 53 53 50 47 49 52 56 59 61 63 61 60 62 65 69 72 73 71 67 61 58 55 54 57
25 27 29 30 32 35 37 39 41 43 45 46 47 48 50 51 50 50 53 55 53 50 48 50 54 57 60 63 64 62 62 65 68 71 74 73 71 68 64 60 57 55 57 59
31 32 33 34 36 38 41 43 44 46 47 48 50 52 51 51 52 54 55 54 51 51 52 55 58 62 65 65 64 64 66 70 73 75 75 73 70 66 62 57 59 59 60 61
37 37 38 39 41 43 45 46 47 48 49 51 52 53 53 53 55 56 56 55 54 54 56 59 62 66 67 66 66 68 72 74 76 75 73 71 67 63 61 59 58 58 61 65
43 44 45 45 46 47 48 49 49 50 51 52 53 53 53 55 56 56 56 54 55 57 61 64 67 67 67 68 70 73 76 78 78 77 73 68 64 62 62 62 62 61 62 63
48 48 47 47 48 48 50 52 52 53 54 54 54 54 55 56 56 54 54 56 59 63 66 68 68 67 69 71 74 77 80 80 77 74 68 65 63 63 63 64 67 69 70 71
48 48 48 49 48 52 54 53 54 54 54 54 55 56 56 54 53 55 58 62 65 68 68 66 67 69 72 76 79 81 80 77 73 66 63 63 65 67 70 72 74 75 71 67
45 46 46 47 52 55 53 53 53 54 55 56 56 54 52 54 57 61 65 68 69 68 68 68 71 75 78 81 80 78 74 68 65 67 68 68 69 72 74 74 69 64 61 55
47 52 54 55 52 50 51 53 55 56 55 54 53 52 55 59 62 65 66 66 66 67 70 73 76 78 77 75 72 65 64 66 67 67 69 72 74 74 69 65 62 56 49 45
51 51 47 46 49 52 54 56 55 53 53 53 54 58 61 65 65 65 64 65 68 71 73 76 76 74 72 69 66 66 70 72 71 73 75 75 70 66 64 59 54 49 48 46
41 44 47 50 54 56 55 54 53 54 56 58 60 62 64 62 62 63 66 68 72 75 76 72 67 65 67 68 69 72 75 75 78 77 72 67 66 63 58 53 50 48 47 45
45 49 51 54 53 52 54 55 56 58 62 64 62 60 61 62 64 67 70 73 74 71 66 64 66 68 69 70 73 75 78 78 74 69 68 65 60 56 53 51 50 49 47 45
50 51 52 52 53 55 56 58 60 63 63 61 61 61 64 67 69 72 73 70 65 62 64 66 68 70 72 74 76 79 75 72 70 67 61 59 57 54 53 53 51 49 48 46
52 52 53 55 57 59 60 61 61 60 59 60 63 65 68 70 71 68 64 61 62 65 67 69 72 73 75 79 79 77 74 70 64 61 60 57 55 56 55 52 51 51 49 45
55 55 57 58 59 60 60 58 59 59 62 65 67 69 69 67 62 60 61 63 66 68 70 72 74 78 81 81 81 76 69 62 60 58 56 54 55 54 54 57 54 49 43 40
56 57 57 57 56 58 58 59 61 63 66 68 68 65 62 60 60 60 63 68 70 71 71 75 80 82 83 82 73 64 59 57 55 54 53 54 53 55 57 53 47 41 36 33
52 52 54 56 58 61 63 65 66 67 66 66 63 60 59 61 62 65 70 72 69 71 75 80 80 83 79 69 60 56 54 52 51 50 52 51 54 55 51 44 37 32 29 27

GFSNGP_500_spd_021.txt.gz
Wind_Speed
21 23 24 23 22 26 25 24 24 20 23 21 25 26 25 25 20 20 21 23 25 28 29 30 33 35 36 38 40 43 45 46 50 51 51 51 53 56 56 56 57 60 64 70
22 24 26 27 25 26 23 24 27 27 25 21 24 22 24 25 25 25 25 28 30 30 32 35 37 40 43 46 46 46 46 47 50 51 52 54 56 56 55 57 57 62 66 73
25 26 31 33 28 27 28 29 31 33 28 26 27 26 25 26 27 30 31 31 32 34 36 38 41 45 47 47 46 46 49 52 52 53 55 54 52 53 55 63 63 69 68 70
30 31 37 31 30 30 34 33 33 34 31 26 26 27 26 27 28 31 33 34 35 37 39 42 45 47 47 47 47 50 52 53 54 51 51 53 54 56 60 57 59 75 67 72
34 34 36 33 27 26 27 29 30 28 27 27 26 26 27 29 31 33 33 35 37 40 43 46 47 47 46 47 50 51 53 53 49 49 51 52 56 55 69 62 72 69 70 72
34 35 29 23 28 28 27 31 27 25 25 25 26 27 29 31 32 33 35 37 40 44 47 49 49 49 49 50 52 54 54 51 48 50 54 58 59 61 65 65 65 67 69 72
34 35 32 25 26 30 30 22 23 24 25 27 29 29 29 30 32 34 37 40 43 46 48 48 47 49 51 53 55 55 53 49 50 54 57 61 62 63 64 65 67 68 70 72
30 30 26 20 25 23 20 20 21 22 23 26 27 27 29 32 34 37 41 44 45 46 46 47 48 50 52 54 54 51 48 50 54 57 60 62 62 62 64 66 68 70 72 74
26 22 20 17 14 14 13 14 17 20 22 23 25 27 30 34 38 40 42 44 46 47 49 49 50 52 53 52 50 49 51 54 57 60 62 62 63 65 67 70 73 76 77 73
24 18 16 13 13 14 15 17 19 21 24 26 28 32 34 37 40 42 44 46 48 49 49 51 53 54 54 53 53 53 55 58 61 63 63 65 66 69 73 76 78 78 75 69
24 19 20 18 18 19 20 22 24 26 29 31 34 36 38 40 42 45 47 49 50 50 51 53 55 55 55 55 55 57 60 63 65 65 66 68 72 75 78 79 78 76 70 64
26 25 25 25 26 27 29 30 32 34 36 38 41 43 45 46 47 49 51 52 52 53 54 55 56 55 55 57 59 62 65 67 67 68 71 74 76 78 79 77 75 70 64 60
33 31 31 32 34 35 36 37 39 41 43 45 47 48 48 50 51 53 54 54 54 55 57 57 56 56 57 60 64 67 69 69 69 71 74 77 80 81 80 74 67 62 62 62
37 37 37 37 38 40 41 43 45 47 48 49 49 50 52 53 53 54 55 56 57 58 56 55 56 58 61 65 70 71 70 70 72 74 78 80 80 80 76 69 63 58 58 62
41 40 41 42 44 46 47 49 50 51 51 51 51 53 54 54 55 56 57 58 58 55 53 56 58 62 67 70 71 70 71 73 76 80 81 81 79 74 68 67 67 66 63 62
46 46 46 47 48 49 51 52 53 53 53 52 54 56 56 56 57 59 60 58 55 53 56 60 64 68 70 68 70 71 74 78 81 80 78 74 71 69 71 72 70 69 70 70
48 49 48 49 50 51 52 52 52 53 53 55 56 56 56 58 61 62 59 56 55 58 62 66 69 67 68 69 71 75 79 80 78 77 74 71 70 72 74 74 74 72 69 63
49 48 48 50 49 49 49 50 53 56 58 56 56 56 59 61 62 60 58 58 60 64 68 70 67 68 70 74 77 78 77 76 75 73 70 69 71 75 75 72 67 63 61 59
46 45 48 48 47 49 53 57 60 60 56 56 58 60 61 60 59 60 62 65 69 72 68 66 69 72 75 77 76 74 73 73 72 70 72 75 77 73 71 68 66 62 57 53
40 40 44 52 51 53 53 51 51 53 57 59 60 59 59 59 60 63 68 73 71 69 68 70 72 74 75 73 72 70 71 71 71 76 79 78 77 74 69 65 59 56 53 50
45 47 49 52 48 44 45 51 55 59 59 59 59 59 61 62 64 67 69 67 66 67 70 73 73 72 69 69 69 71 71 73 80 80 80 80 74 66 61 58 57 55 51 50
45 48 46 43 42 47 53 56 57 57 56 57 59 61 64 67 67 66 65 66 68 71 72 72 69 67 68 70 72 71 75 81 79 82 78 74 66 57 56 56 54 53 52 48
38 40 42 46 52 56 56 56 55 56 58 60 62 65 66 65 64 65 67 69 70 71 68 67 67 66 69 73 73 76 81 77 81 76 76 67 56 54 54 54 54 51 50 52
44 50 53 56 57 56 56 56 56 58 61 63 63 64 63 65 67 69 70 71 68 66 63 64 64 68 72 73 76 81 77 80 76 74 68 58 54 53 54 53 50 53 54 52
51 54 55 55 56 58 59 59 61 61 60 60 62 62 66 67 68 69 69 66 63 61 61 63 68 70 71 76 79 78 78 77 71 69 60 54 52 52 52 49 51 49 47 43
56 57 58 59 60 60 61 60 58 59 60 63 65 66 67 68 68 65 63 60 59 62 65 67 69 72 75 76 77 77 78 68 66 62 56 52 51 49 48 48 46 41 38 36
57 57 58 58 58 57 58 60 62 63 65 66 68 67 66 64 60 59 59 61 63 65 68 70 73 74 74 76 76 78 68 62 61 57 53 50 47 47 45 45 38 36 34 33

GFSNGP_500_spd_024.txt.gz
Wind_Speed
24 21 28 29 28 30 32 30 27 19 25 21 22 21 24 25 23 21 20 21 24 25 27 30 33 34 33 33 36 37 37 39 39 43 44 49 53 56 59 58 56 57 60 63
23 23 28 30 29 26 26 28 27 26 25 22 21 21 22 23 24 23 24 25 27 29 31 32 33 32 33 37 39 42 45 45 43 46 49 52 56 59 56 56 57 57 64 65
25 24 26 30 24 24 26 27 28 29 25 27 27 26 26 26 28 27 26 27 30 32 33 33 32 34 37 40 43 46 47 46 46 48 51 55 58 53 55 58 58 59 61 54
32 30 33 22 23 25 29 29 33 32 31 31 31 28 25 26 28 29 30 30 30 31 31 32 35 38 41 44 47 48 48 49 50 52 55 56 55 54 54 55 55 59 68 68
31 28 29 25 22 28 32 29 30 30 30 28 27 26 25 26 27 29 29 30 31 32 33 35 38 41 44 46 47 48 49 50 52 54 56 55 52 51 53 53 51 68 68 70
27 29 28 26 28 29 28 30 27 28 29 27 25 25 27 28 28 30 31 30 32 34 36 39 42 44 45 46 48 49 51 52 54 55 54 52 51 53 56 58 61 65 67 70
30 30 30 30 27 29 34 22 26 26 28 27 27 28 28 29 29 29 29 31 33 35 38 41 42 44 45 48 50 51 53 54 54 53 52 52 54 57 61 64 66 67 68 71
31 31 31 29 27 27 25 27 26 26 26 26 26 26 25 24 25 27 29 31 34 37 40 42 44 46 48 50 51 52 53 53 52 52 53 55 57 61 65 67 69 70 71 73
30 29 29 27 22 22 20 20 19 18 19 19 18 19 22 24 27 30 33 36 37 40 42 45 47 49 51 52 52 52 53 52 52 52 54 58 61 66 69 71 71 72 75 77
29 27 26 23 18 16 16 15 14 14 16 18 20 23 26 29 32 35 38 39 41 43 46 48 50 52 53 53 54 55 55 53 53 56 59 62 66 71 72 72 74 76 79 82
31 27 24 22 21 19 17 16 17 19 21 24 26 29 32 34 37 40 41 42 44 47 49 51 53 55 55 56 57 55 53 54 56 58 62 67 71 72 73 76 79 82 82 83
29 27 29 27 24 23 23 23 24 26 27 30 33 36 39 41 44 45 46 47 49 51 53 54 56 56 57 58 56 54 54 56 60 64 69 71 72 74 77 80 82 81 81 78
33 32 32 31 30 29 31 32 33 34 35 37 40 43 46 48 49 49 49 50 52 54 55 57 58 59 59 58 55 56 59 63 67 70 71 72 74 77 79 79 79 76 71 69
36 35 35 34 35 37 38 39 41 42 43 45 47 48 50 51 51 50 51 53 55 56 58 59 61 60 59 58 59 63 67 70 72 72 73 76 80 82 83 84 84 76 69 69
44 45 41 42 42 43 45 46 47 48 49 50 51 52 52 52 52 52 55 57 57 59 61 63 62 60 60 62 65 69 72 73 73 75 77 80 82 82 83 80 76 74 72 73
34 37 43 45 46 47 49 50 51 52 52 53 52 53 53 53 53 58 59 58 59 62 64 64 62 61 64 67 71 75 75 74 75 78 80 81 81 81 78 76 77 79 77 74
42 46 44 45 47 48 48 50 51 52 52 53 52 52 54 56 61 58 58 61 63 64 63 63 64 67 70 72 76 71 72 75 78 80 81 80 79 76 77 80 78 78 74 72
48 41 42 45 47 49 50 52 53 53 52 51 53 55 58 56 55 59 62 65 64 63 63 65 67 70 74 73 71 73 76 78 80 79 78 78 75 77 79 77 77 73 71 63
43 42 43 45 47 49 50 51 53 48 48 53 56 52 51 55 60 63 65 65 64 66 66 67 70 72 71 70 72 75 76 77 75 76 76 74 77 79 76 77 73 71 63 53
40 42 44 45 46 47 48 56 50 54 57 53 50 51 55 61 63 64 65 66 68 69 70 71 70 69 70 72 74 75 75 74 74 74 74 77 77 75 77 73 69 65 56 51
39 40 41 41 41 42 43 52 57 61 54 52 53 58 64 67 66 65 67 70 72 72 70 69 69 71 73 74 75 74 73 70 71 73 75 75 74 76 74 68 66 60 55 53
36 39 39 44 50 53 55 55 51 48 50 55 60 66 68 66 68 70 72 72 73 69 68 69 70 73 74 72 70 68 67 70 72 73 73 74 75 74 67 65 62 58 55 55
41 44 45 49 54 51 48 49 51 54 58 63 68 67 67 69 70 72 71 69 68 69 70 72 72 71 68 66 65 67 69 70 71 72 74 76 76 68 63 63 60 56 54 51
47 45 42 43 45 48 51 53 57 63 68 67 67 67 69 69 67 66 67 69 70 71 71 70 67 65 65 66 67 68 69 69 70 73 76 75 68 61 61 61 57 53 50 47
44 46 48 51 53 55 60 64 65 66 66 66 67 67 66 65 66 67 69 70 70 68 66 65 65 66 65 67 68 68 67 68 72 75 73 68 60 58 59 57 53 50 45 45
50 52 54 57 61 64 66 66 66 65 64 63 64 64 66 67 68 69 68 67 65 65 65 67 66 66 67 67 66 65 67 70 72 71 68 61 55 56 56 54 49 43 45 41
57 58 60 62 65 65 64 63 63 62 62 64 66 68 69 69 68 68 66 66 67 68 69 69 69 69 68 65 64 67 70 71 71 67 63 57 53 53 53 49 43 43 42 36

GFSNGP_500_spd_027.txt.gz
Wind_Speed
21 25 33 31 30 31 33 32 33 29 27 18 20 21 23 24 24 21 20 21 22 23 25 26 28 30 31 33 35 36 36 37 37 38 39 40 42 46 49 53 56 58 58 55
23 24 27 27 29 31 29 27 31 28 25 20 23 23 23 22 23 22 20 23 25 26 27 28 29 30 32 34 33 33 34 36 39 42 44 46 48 50 53 55 57 57 54 56
24 23 25 29 25 26 24 24 25 28 25 26 26 25 25 25 25 24 24 25 26 28 29 30 30 31 31 31 32 34 36 39 42 45 47 50 51 53 55 55 54 54 51 49
28 27 31 19 19 21 21 22 25 26 29 29 29 29 28 29 28 27 26 26 28 29 30 30 31 30 30 32 34 37 40 42 45 47 50 51 52 53 54 53 50 50 55 53
30 28 24 21 20 19 25 19 26 25 27 29 28 27 26 27 27 27 26 25 25 26 28 28 29 30 32 35 37 40 42 44 47 50 52 53 53 55 56 54 54 55 57 61
35 33 26 16 20 22 23 20 20 26 27 29 29 28 26 27 28 25 23 23 25 27 27 27 29 32 35 38 41 43 45 47 50 52 53 54 55 56 55 54 55 57 60 64
31 31 21 20 19 21 25 24 25 27 28 27 27 27 26 25 24 22 23 24 24 25 27 30 33 36 38 41 43 45 48 50 52 54 55 56 57 56 55 55 58 61 63 67
26 29 27 21 23 24 25 24 25 24 23 23 23 22 22 20 20 20 20 22 25 28 31 34 37 39 41 43 45 47 50 52 54 55 56 57 56 55 56 58 60 63 67 71
27 28 30 27 24 23 23 23 22 21 20 16 14 13 13 15 18 20 22 25 28 32 36 38 40 42 44 46 47 49 52 54 56 57 57 56 55 56 59 61 65 70 73 75
29 27 25 27 25 24 21 21 19 16 14 13 13 14 16 19 22 24 27 30 34 37 40 42 43 45 46 48 50 52 55 58 59 60 59 58 58 60 65 69 73 76 78 80
27 27 27 28 26 26 23 22 20 18 17 18 19 20 22 25 28 31 34 37 40 42 44 45 46 48 50 52 54 56 59 60 61 60 60 60 64 67 71 76 78 81 83 86
26 24 30 28 30 26 24 25 25 25 24 25 26 28 30 32 35 38 41 43 45 47 48 48 49 52 55 56 57 59 61 61 61 60 61 63 67 72 77 79 80 81 83 85
35 31 31 30 30 28 28 28 29 31 31 33 34 36 37 40 43 46 47 49 50 50 50 50 53 56 58 58 60 62 63 62 60 61 64 68 72 77 78 78 80 81 82 84
33 34 34 33 31 32 32 33 34 36 37 39 41 43 45 47 50 51 53 53 52 51 52 55 58 57 58 61 64 64 63 63 63 67 70 74 78 79 80 82 83 83 84 85
38 29 37 38 38 36 35 37 40 41 43 46 48 48 50 51 51 53 53 52 52 53 56 57 56 58 62 65 65 63 64 67 70 73 76 78 78 80 82 82 82 82 83 83
38 33 30 41 43 44 45 42 44 46 47 49 50 50 51 52 53 54 51 52 54 57 56 56 60 64 66 66 64 66 69 71 74 78 79 78 80 80 80 81 81 81 83 81
37 33 37 37 40 41 42 45 47 50 52 51 51 51 51 52 53 51 53 55 56 55 56 60 66 68 68 67 69 71 73 77 78 78 78 79 79 79 79 78 79 80 77 76
38 42 43 46 45 45 46 45 48 49 48 47 48 48 49 54 54 55 59 57 56 57 60 65 70 71 70 71 73 76 78 77 78 78 78 78 77 76 76 78 77 74 74 74
49 50 41 38 41 40 46 50 47 44 44 44 49 54 60 60 55 58 61 58 59 61 66 70 72 73 74 74 76 76 77 76 76 77 76 75 73 75 75 73 70 73 73 71
45 33 35 40 43 44 44 44 44 44 45 41 55 58 61 59 60 61 62 63 65 66 70 73 75 75 76 77 76 75 75 74 75 74 72 72 74 73 69 68 71 73 72 66
35 35 38 40 40 40 41 40 42 45 49 50 54 60 59 58 57 61 63 61 67 73 74 75 76 78 77 75 74 74 73 73 71 70 71 72 71 67 65 68 71 72 68 61
32 32 33 36 36 36 38 45 49 51 53 55 58 57 56 59 62 63 66 72 74 74 75 76 76 74 74 73 73 72 71 70 70 72 72 70 66 63 65 69 71 71 65 60
32 33 36 39 41 43 48 50 52 55 58 55 56 58 62 66 67 70 75 76 78 77 76 74 73 73 73 73 72 69 68 69 71 71 70 67 62 63 67 70 71 69 63 58
36 39 43 47 50 51 51 51 52 54 56 59 62 65 66 68 73 77 79 79 78 75 74 73 72 72 72 70 69 69 70 72 72 70 70 65 64 66 70 71 70 66 60 56
43 48 51 51 50 50 52 55 58 61 63 66 67 68 70 75 78 79 77 74 74 73 75 75 73 71 70 70 71 73 74 73 73 71 68 65 67 70 71 70 66 61 55 52
45 46 49 51 53 56 59 62 64 65 66 67 69 72 75 76 75 74 74 75 76 77 77 74 72 72 74 75 76 77 76 75 73 71 66 67 69 70 70 66 61 56 51 48
50 52 54 55 57 58 60 61 63 65 67 69 72 72 71 71 73 74 76 76 78 79 76 77 78 79 80 80 79 78 76 74 71 68 68 70 70 69 65 60 54 49 47 45

GFSNGP_500_spd_030.txt.gz
Wind_Speed
20 22 27 29 32 33 33 31 32 29 30 24 26 26 25 23 21 22 21 21 23 24 25 24 27 29 30 30 32 33 35 36 38 39 39 40 40 41 45 47 49 52 55 56
21 21 23 26 29 32 31 32 32 30 30 27 25 25 25 25 23 24 22 20 22 25 25 26 27 28 29 31 33 34 35 35 35 37 38 39 42 45 48 50 53 55 58 57
22 21 23 31 25 27 28 27 24 25 24 25 25 27 27 26 27 28 28 25 24 27 28 28 28 30 31 32 33 34 34 35 36 38 40 43 46 48 50 53 55 56 57 58
26 24 29 19 20 25 27 24 24 26 26 25 25 29 30 29 30 32 31 30 27 27 29 32 32 31 31 32 33 33 34 36 38 41 43 46 48 50 52 54 56 57 59 59
31 28 23 22 19 23 22 22 24 21 26 30 29 28 30 29 29 30 30 29 27 26 27 27 27 29 30 30 31 33 36 38 41 44 46 49 50 52 54 56 58 59 61 61
32 29 26 17 15 18 22 17 16 23 26 27 28 28 26 29 29 29 28 27 25 23 23 26 26 26 28 30 33 35 38 41 44 47 49 51 52 54 57 59 60 61 62 61
30 31 22 18 21 19 23 10 24 23 25 25 26 27 26 25 25 25 24 23 23 23 24 24 25 27 30 33 36 39 42 44 47 49 51 53 56 58 60 61 61 60 60 61
32 32 22 16 19 22 18 22 25 24 24 24 24 24 24 22 21 21 20 20 20 21 22 25 27 31 34 38 40 43 44 46 48 50 53 55 58 59 60 60 61 61 62 65
32 27 21 22 25 26 23 24 25 24 23 21 21 20 19 17 17 17 17 18 20 23 26 29 33 36 39 42 44 46 48 51 52 54 56 58 59 61 62 62 62 63 65 68
27 24 19 20 24 26 27 27 26 23 21 20 19 18 17 16 17 19 21 23 25 28 31 35 38 42 45 47 48 49 51 53 56 57 59 60 62 63 63 62 64 67 70 73
28 23 21 21 25 29 31 29 25 25 22 22 21 20 21 21 23 25 27 29 32 35 38 42 45 47 49 50 50 52 54 57 58 58 60 62 63 63 64 66 69 72 75 78
26 21 28 23 27 31 31 29 27 27 26 26 26 27 27 29 30 32 34 37 39 42 45 48 49 51 51 51 52 55 58 58 58 61 63 64 64 66 68 71 74 77 80 83
34 29 30 29 31 32 33 31 31 30 31 31 32 33 35 36 38 40 42 44 47 49 50 51 52 53 53 55 57 58 57 58 61 63 66 67 68 70 72 73 77 80 82 85
38 38 34 28 30 33 38 36 35 36 36 36 37 38 40 42 44 46 48 50 52 52 51 53 54 53 55 57 58 58 58 60 64 68 70 71 72 73 76 79 81 82 84 84
39 35 35 35 33 31 35 37 40 41 40 41 42 44 46 47 49 50 51 52 52 53 52 54 53 54 57 58 59 61 61 64 69 72 73 75 76 77 80 82 82 83 82 82
37 37 41 33 32 29 32 38 44 44 45 47 48 51 49 49 50 52 52 51 51 54 53 58 59 60 61 63 64 65 66 70 74 77 77 78 78 80 81 81 81 80 80 80
35 38 37 39 40 38 38 41 40 45 51 53 50 47 49 52 53 53 51 49 54 59 59 62 64 67 66 65 66 69 73 75 78 80 80 79 80 79 80 78 77 77 78 80
36 38 40 42 42 39 40 44 48 50 49 48 47 46 47 49 44 46 58 60 66 63 59 68 70 68 69 69 70 73 75 77 80 80 80 80 79 78 76 75 75 76 77 76
38 39 42 43 45 47 46 50 52 48 48 48 49 44 37 47 53 47 54 63 64 65 72 73 71 72 72 75 72 71 78 80 80 81 80 79 77 76 74 74 75 76 75 71
37 39 39 42 42 41 43 40 43 45 40 33 35 46 50 47 48 54 56 61 66 71 74 72 72 73 74 75 74 79 79 82 82 80 78 76 74 73 72 74 75 75 72 68
41 39 39 33 36 31 36 34 33 44 46 47 45 47 51 55 57 59 61 63 66 68 70 72 73 74 74 77 79 81 83 82 79 78 76 74 73 72 73 75 75 73 71 67
37 38 42 38 38 37 41 44 44 43 42 43 49 51 52 56 60 63 64 66 68 71 73 76 77 77 79 81 81 81 80 79 79 77 74 73 73 74 76 76 75 72 70 66
29 30 31 33 34 36 38 40 43 46 49 52 55 58 59 59 61 64 67 70 73 75 78 79 80 81 82 81 80 81 80 81 80 76 75 76 77 77 77 76 74 71 68 66
29 29 31 33 37 41 43 46 48 50 52 53 55 58 60 63 67 70 73 75 77 79 80 81 82 82 82 83 83 83 83 83 80 79 81 81 80 79 77 75 71 68 66 66
35 37 36 37 41 45 48 50 52 54 56 59 62 64 67 70 72 74 76 77 79 81 83 83 83 83 84 84 84 85 84 84 86 87 85 83 81 78 74 70 67 65 66 64
39 42 46 49 51 53 54 56 58 60 62 64 66 68 70 72 74 76 78 80 81 81 81 82 82 83 83 85 86 88 91 91 90 87 85 81 77 73 70 68 67 66 63 60
45 46 48 50 52 55 57 58 60 62 64 66 68 70 73 75 76 76 77 77 78 79 80 82 84 87 89 92 93 94 93 91 88 84 80 77 74 71 70 68 65 61 57 52

GFSNGP_500_spd_033.txt.gz
Wind_Speed
38 33 26 25 25 30 30 31 29 26 23 22 25 27 27 26 32 26 25 25 23 24 25 27 25 30 34 34 34 34 34 35 37 38 40 42 42 42 43 43 45 47 50 53
39 38 31 29 29 28 28 29 33 31 32 26 22 32 31 28 30 28 29 27 24 24 26 27 28 28 30 30 30 30 34 35 37 38 39 39 41 42 44 45 48 51 54 55
43 35 34 37 34 29 28 30 29 30 26 27 24 28 29 30 27 29 30 31 28 28 27 29 31 30 31 31 32 34 35 36 37 37 38 39 41 44 46 49 52 54 57 58
41 38 42 25 24 22 24 26 28 27 26 24 26 31 28 28 30 31 32 34 33 33 32 32 33 33 36 35 35 35 35 36 36 37 39 42 44 47 50 53 55 57 58 60
44 42 34 29 25 20 22 26 26 25 24 25 29 26 28 33 33 33 35 35 36 37 36 34 34 34 34 33 33 35 35 35 37 39 41 44 47 50 52 54 56 58 60 61
43 40 37 25 19 17 24 29 28 25 27 30 32 26 28 26 29 30 30 32 33 32 32 31 31 30 31 32 32 32 34 36 39 42 45 48 50 51 53 56 58 61 62 63
43 39 31 25 19 22 27 2 22 25 28 30 29 28 27 28 27 28 29 29 30 30 29 29 29 30 29 29 30 33 36 39 43 46 48 50 52 54 58 60 62 61 61 62
41 37 34 22 20 23 22 28 31 27 28 29 29 26 27 27 26 27 28 28 28 28 28 28 27 26 28 30 33 36 40 43 46 49 50 52 54 57 60 61 60 60 62 62
42 40 27 27 21 20 24 33 33 31 32 31 28 27 25 25 25 25 25 24 24 24 23 24 26 28 31 34 38 42 45 48 50 52 53 55 57 60 60 60 61 61 62 65
42 36 33 27 23 25 25 31 36 35 34 29 27 26 25 24 23 23 22 22 22 24 26 28 31 34 38 41 45 49 52 53 54 55 56 58 60 61 60 61 62 63 66 69
42 36 38 33 24 27 32 32 35 39 35 29 28 27 27 26 26 26 26 26 28 30 32 34 37 41 44 48 51 53 55 55 56 57 59 60 60 61 63 63 64 67 70 74
46 39 35 29 29 32 31 30 30 32 32 33 31 30 29 29 31 30 31 33 35 36 39 42 44 46 49 52 53 55 56 57 57 58 60 59 61 65 67 68 71 74 77 80
43 44 36 32 30 30 28 31 29 31 32 34 35 33 33 34 36 37 38 41 43 45 46 48 50 51 54 55 56 56 55 57 58 59 61 64 66 68 69 72 76 78 82 85
42 46 42 35 34 29 31 33 32 32 36 35 39 39 38 37 40 43 46 49 50 51 54 55 56 57 57 56 56 57 58 59 62 66 71 72 71 72 75 77 78 80 84 86
37 41 38 40 37 34 36 36 34 36 35 36 39 43 43 43 46 50 51 52 54 57 56 55 58 59 57 55 57 61 68 66 66 72 75 75 77 78 80 80 80 84 87 87
27 30 33 35 35 34 34 38 37 33 32 35 43 47 48 49 49 52 55 55 57 56 56 58 56 55 63 64 69 70 68 70 74 80 77 79 80 83 82 81 84 85 85 83
33 36 37 37 39 40 41 39 39 38 39 40 43 45 47 47 51 56 55 53 57 60 57 53 60 62 60 71 74 66 67 81 75 77 79 80 82 80 80 84 85 84 79 76
30 34 36 38 38 39 42 46 46 47 41 41 43 43 46 50 51 48 50 55 59 60 60 60 61 61 69 73 70 73 82 81 80 81 81 80 80 82 85 86 85 81 77 73
29 33 38 40 42 42 42 44 44 45 46 49 50 50 52 48 49 54 58 61 63 54 59 58 64 73 70 71 74 78 79 81 81 82 82 83 86 87 86 84 80 80 76 73
34 37 38 38 39 41 41 39 42 46 48 47 47 47 58 60 58 63 65 60 57 58 61 69 69 66 72 76 79 81 82 82 82 84 86 88 88 86 84 82 80 79 76 76
30 34 37 37 37 41 39 43 46 45 53 47 50 48 54 51 50 54 60 58 62 64 63 65 70 73 76 78 79 81 83 84 86 88 88 88 87 85 84 83 81 80 80 82
30 30 38 42 40 42 51 50 47 45 48 47 45 47 53 55 54 54 58 62 64 66 68 71 73 75 77 79 81 83 85 88 89 90 89 88 86 85 85 85 86 87 86 84
36 42 42 38 37 40 39 42 43 42 45 47 49 50 53 56 58 59 62 65 67 70 71 74 76 78 81 83 85 87 89 91 90 89 88 88 88 89 90 91 90 88 85 80
32 34 37 38 38 38 38 39 41 44 47 52 52 51 54 57 61 63 65 68 70 73 74 76 78 81 84 87 89 90 89 89 89 89 90 92 94 94 93 92 89 85 80 75
33 35 35 38 43 48 49 49 49 47 48 53 56 58 60 62 64 66 69 71 73 75 78 81 83 85 87 87 87 88 89 91 93 94 95 95 93 92 91 88 84 79 74 70
35 38 40 43 44 46 49 52 54 56 57 59 62 64 66 68 70 71 74 76 78 80 82 84 84 85 86 88 90 91 93 93 92 91 88 86 85 84 81 77 72 68 64 60
42 44 46 49 52 55 57 59 61 63 64 66 67 68 70 71 73 75 77 79 80 80 81 83 85 87 89 89 89 87 85 83 81 81 82 85 85 81 74 69 64 58 53 49

GFSNGP_500_spd_036.txt.gz
Wind_Speed
47 40 38 29 29 28 36 30 29 32 31 27 23 26 23 21 25 25 32 28 26 30 24 25 27 29 30 31 34 36 36 37 35 35 35 36 38 41 43 44 44 44 46 48
47 45 46 43 33 29 33 33 34 29 32 26 18 24 33 36 40 21 32 29 28 30 29 28 28 27 24 26 31 33 35 34 34 36 39 39 39 40 40 40 43 46 49 51
56 49 43 47 44 32 31 29 27 33 28 27 33 34 34 36 41 37 31 30 30 32 32 31 30 29 29 30 31 32 31 32 35 35 36 37 38 39 40 42 45 48 51 53
45 45 52 51 43 42 43 41 40 36 30 32 34 32 30 33 36 29 27 27 30 33 36 34 33 34 34 33 34 33 36 36 36 37 37 38 38 41 43 46 48 51 54 55
56 50 49 47 38 41 39 31 29 31 31 33 29 26 35 33 33 30 30 33 35 35 35 37 38 38 37 36 35 35 37 37 36 37 36 37 40 43 45 49 52 54 55 56
55 55 53 48 37 31 31 34 28 30 28 30 29 36 34 27 29 29 33 32 32 32 32 33 34 34 34 35 35 36 36 36 36 35 37 40 42 45 49 52 54 56 57 59
52 53 53 43 34 29 31 11 25 25 27 27 31 40 33 29 30 31 31 31 31 31 32 32 33 34 33 34 34 35 35 34 35 36 39 43 47 50 53 55 56 58 60 62
50 52 51 43 37 37 27 19 26 27 25 34 36 36 34 31 32 31 31 31 29 29 30 31 32 32 30 30 31 32 33 35 38 41 45 49 52 54 55 56 58 59 61 62
47 48 47 41 33 28 21 27 31 34 30 35 36 33 31 33 35 34 32 30 27 27 27 28 28 28 27 29 31 34 37 41 44 47 50 53 55 56 57 58 59 60 60 62
42 40 36 40 36 36 31 31 30 33 38 38 42 34 32 35 35 33 31 30 27 27 27 27 28 28 31 34 37 40 43 47 50 54 56 57 57 58 58 59 58 58 62 65
52 47 46 47 32 31 35 32 34 34 36 39 42 38 37 37 35 34 33 31 30 30 30 32 33 35 38 40 43 46 49 52 56 58 59 60 61 59 59 61 64 67 70 74
51 35 24 36 37 40 36 35 33 35 33 35 36 38 39 38 36 37 37 36 35 36 36 38 40 42 45 47 50 52 54 57 60 60 62 61 62 60 64 68 71 72 75 79
40 36 40 42 42 41 42 39 39 38 35 33 30 33 36 38 38 40 41 40 42 42 43 45 47 48 50 53 55 56 60 61 62 61 61 64 63 67 72 72 72 74 79 81
40 39 44 42 45 47 44 42 36 33 35 36 33 33 34 38 39 40 42 45 47 48 50 52 53 54 55 56 58 59 59 63 59 60 63 65 70 77 80 76 74 80 81 82
42 39 37 39 46 48 43 43 42 44 41 40 36 37 37 38 40 42 43 45 47 50 53 55 57 59 61 61 59 62 63 61 62 67 66 69 79 81 77 77 81 82 83 86
32 32 33 37 39 40 43 47 49 44 37 43 42 39 39 38 39 41 44 46 50 54 58 60 60 66 61 58 60 63 65 68 68 70 71 77 83 79 80 84 83 83 83 83
29 29 26 32 32 31 30 34 37 41 43 45 45 43 42 44 46 46 49 51 50 51 56 55 56 55 59 61 66 71 70 65 69 72 78 83 80 82 86 86 85 84 86 89
26 26 27 28 30 36 38 38 39 38 40 44 44 45 49 53 44 45 52 53 54 56 56 57 63 68 66 64 68 65 65 69 75 81 82 80 82 87 87 86 86 89 92 94
28 31 33 34 36 39 42 42 41 40 41 45 48 49 51 50 47 54 55 56 56 59 63 63 59 56 57 59 62 66 70 74 77 77 78 83 87 86 87 89 91 94 95 94
32 34 36 37 36 36 38 42 45 46 47 49 49 48 50 50 50 61 63 55 53 54 56 56 57 59 63 65 68 70 71 73 76 81 84 86 87 89 92 94 95 96 94 91
23 26 30 33 34 33 34 37 39 41 43 46 46 48 46 51 54 50 51 48 50 52 54 58 61 63 66 68 70 73 76 79 82 84 86 89 91 94 96 97 96 95 93 93
25 28 31 32 31 33 34 39 44 47 48 51 50 53 53 52 55 55 55 56 57 58 59 60 63 66 68 71 76 79 80 82 84 88 90 93 95 97 97 96 96 95 93 91
26 26 28 31 36 39 41 40 40 40 44 42 43 44 47 48 51 55 58 59 60 60 62 65 69 72 75 77 79 82 84 87 89 92 94 96 96 96 96 95 93 90 86 84
30 32 35 35 36 38 40 39 39 41 46 49 50 51 52 55 57 58 60 60 62 65 69 72 75 78 80 82 84 86 89 91 93 95 96 96 96 94 90 87 84 83 83 84
36 37 38 39 40 41 43 44 45 47 49 50 50 52 54 55 58 61 65 68 70 72 73 76 78 81 84 87 89 91 93 94 95 95 93 89 86 84 84 84 84 82 80 80
33 35 37 38 40 42 44 46 48 50 52 54 56 58 61 63 65 67 69 72 74 77 79 82 84 86 88 89 91 92 92 90 87 84 82 81 81 82 81 81 81 81 80 75
40 42 44 46 48 50 52 54 56 58 60 61 63 65 67 69 71 73 75 76 78 80 82 83 85 86 87 87 84 81 79 78 78 78 78 79 80 80 79 79 79 76 71 63

GFSNGP_500_spd_039.txt.gz
Wind_Speed
47 47 43 46 40 37 37 32 37 29 32 29 24 35 29 30 30 31 35 21 25 21 22 22 23 23 26 28 30 31 32 32 34 33 35 36 35 37 38 36 38 41 41 40
50 50 47 52 49 38 36 31 32 30 37 33 30 28 37 31 31 32 40 39 36 30 31 25 23 24 25 28 30 31 31 31 31 33 35 36 36 37 37 38 40 40 39 41
52 51 50 55 50 54 41 34 32 35 30 32 26 23 26 33 30 37 35 37 33 35 35 29 26 26 29 30 30 30 31 33 33 33 32 34 37 38 38 38 38 38 40 42
51 53 56 41 48 52 52 38 38 31 34 34 27 31 31 44 29 38 37 25 20 30 32 30 30 30 32 34 33 33 33 33 34 34 34 35 35 35 36 35 36 38 42 46
58 56 50 48 47 44 48 49 44 44 38 33 31 36 37 37 42 46 40 29 27 28 31 32 33 34 33 30 32 32 34 35 35 36 36 36 36 35 35 37 39 43 48 51
47 48 53 46 48 41 44 49 46 46 38 44 42 43 45 42 39 36 34 30 31 30 32 33 33 32 33 31 32 34 35 36 37 37 37 37 36 36 38 41 45 50 53 55
47 45 40 44 39 37 45 43 36 37 39 40 35 39 43 41 39 37 32 31 32 34 36 35 33 32 31 32 32 33 35 36 37 37 37 36 37 40 43 47 51 55 58 58
43 50 47 45 38 47 38 31 27 29 31 37 37 42 41 39 34 35 35 35 34 36 37 36 35 34 31 31 31 33 35 35 36 36 37 39 42 46 49 53 57 59 60 60
27 49 41 41 38 35 40 37 34 38 32 36 36 36 38 37 42 39 35 35 37 37 39 39 37 34 32 32 33 34 34 34 35 38 40 44 48 51 55 58 60 62 63 63
30 42 44 47 42 39 39 42 39 32 37 34 33 37 37 42 39 36 38 39 39 38 38 38 37 36 35 35 35 36 36 37 40 43 46 49 53 56 59 61 62 64 65 64
25 27 41 43 38 44 43 43 49 45 44 44 47 39 43 38 41 42 43 42 40 38 38 39 38 37 37 37 39 40 40 43 47 50 53 54 57 60 63 64 65 63 65 67
41 25 39 44 43 35 34 50 49 45 41 42 43 42 37 36 41 41 43 45 44 41 39 39 40 40 41 42 44 45 47 51 54 56 58 59 63 64 63 65 65 66 71 71
41 38 27 40 39 48 34 32 36 42 31 41 44 46 38 37 39 41 40 40 40 39 39 40 41 43 45 47 49 51 55 59 61 62 65 68 68 67 65 65 65 71 72 73
38 40 41 33 35 38 43 48 44 42 40 41 39 44 44 42 41 40 40 40 41 41 41 41 42 44 47 51 54 57 60 64 66 64 67 69 67 66 68 72 76 79 80 83
32 36 37 32 34 37 39 37 40 42 44 44 47 46 40 41 41 42 41 43 42 41 44 45 46 48 51 55 58 60 61 64 61 63 64 66 69 75 79 82 83 84 86 86
31 36 36 35 32 34 35 38 42 44 48 52 52 53 50 47 48 46 48 46 43 43 45 47 50 52 54 56 58 59 59 61 65 68 71 74 78 82 81 81 82 85 86 85
30 32 33 33 33 32 32 34 40 45 49 48 54 54 50 51 39 39 44 46 48 52 50 53 53 56 57 62 62 64 69 69 72 77 79 80 80 77 77 80 84 85 85 85
16 20 22 24 27 29 30 33 36 38 39 39 39 40 43 45 50 53 47 49 53 46 57 52 58 61 66 64 70 74 74 75 76 76 76 75 76 78 80 81 83 83 86 87
26 28 32 33 32 33 32 33 36 39 40 41 44 46 47 48 48 49 50 54 56 58 59 59 62 68 73 72 70 72 74 74 71 71 73 75 77 78 79 81 83 84 87 91
33 34 37 37 37 39 40 40 40 39 40 41 44 46 48 51 53 54 57 60 60 58 63 66 71 71 65 61 60 62 65 69 71 72 73 74 77 78 80 83 86 90 94 97
26 27 29 31 33 34 36 39 41 42 42 42 43 44 47 49 50 55 59 61 61 66 67 63 60 58 60 62 63 66 68 70 71 73 75 77 79 82 86 90 94 97 98 98
24 27 29 31 32 34 35 36 38 38 39 40 43 46 50 55 57 60 61 58 59 60 57 60 61 60 61 63 65 67 69 71 74 77 80 84 88 91 94 96 96 97 97 95
28 30 30 31 31 32 34 36 36 38 39 40 42 44 46 50 50 49 50 52 56 58 59 60 62 63 65 66 69 72 76 79 82 85 88 90 92 94 96 96 95 92 89 86
28 29 31 33 36 37 39 39 41 43 45 45 46 47 49 51 54 55 55 57 59 60 62 64 66 69 72 75 78 81 83 85 87 89 92 95 96 95 93 89 85 84 83 83
30 32 35 37 39 41 42 44 45 46 47 48 49 50 51 53 55 57 58 61 63 65 68 71 74 76 79 81 83 85 87 90 91 91 90 88 85 82 82 82 82 83 83 82
32 33 35 37 39 41 43 45 47 49 52 54 56 58 60 62 64 66 67 70 72 74 76 77 78 80 82 83 85 85 85 84 81 79 78 78 79 80 81 81 81 80 78 77
37 39 41 43 46 48 51 54 57 59 61 62 63 64 66 67 68 70 71 72 73 75 77 78 79 79 79 77 75 73 72 72 74 75 77 78 78 78 76 75 74 74 72 69

GFSNGP_500_spd_042.txt.gz
Wind_Speed
50 49 50 47 46 42 42 45 45 37 37 27 28 28 34 29 32 35 35 34 28 16 18 21 21 23 26 28 27 27 25 28 28 27 28 29 29 28 30 32 34 35 35 35
52 52 50 55 52 49 45 46 45 44 42 31 28 30 33 36 33 37 37 32 24 20 31 29 29 30 24 28 30 32 31 31 29 28 28 29 28 30 31 34 37 38 39 39
49 52 50 58 50 53 49 47 47 47 38 28 30 39 40 37 39 41 37 31 33 35 30 27 20 22 24 27 29 30 32 31 31 30 31 30 30 32 34 36 35 36 36 36
42 56 60 52 52 52 51 52 52 45 41 35 34 31 39 37 37 35 35 41 34 35 26 21 24 25 28 31 32 33 33 34 34 33 34 35 35 37 37 36 34 36 36 36
37 47 54 56 49 47 52 51 52 49 43 41 39 40 38 37 40 45 35 38 43 36 27 25 27 29 29 31 32 32 32 32 35 36 36 38 40 40 38 37 38 38 38 41
41 28 15 51 50 45 48 50 47 44 49 41 40 42 35 36 38 38 35 36 37 36 33 30 30 28 30 31 32 32 33 33 34 36 38 41 41 40 40 40 41 42 43 46
60 50 28 32 50 49 51 44 40 41 51 51 52 50 45 42 43 46 48 46 41 35 35 35 34 31 31 33 33 34 35 36 37 38 40 41 42 41 42 43 44 45 48 51
60 50 24 20 31 48 49 49 43 41 37 47 52 54 52 43 38 42 45 44 43 38 37 37 37 35 35 35 35 37 37 38 39 40 41 42 42 43 45 46 48 50 53 57
48 33 26 29 39 43 40 42 41 40 45 45 47 42 34 37 44 44 45 44 43 39 40 40 41 38 37 37 38 39 40 39 40 41 42 42 43 45 47 50 52 54 59 63
35 27 34 25 43 45 43 42 35 39 41 37 38 41 41 36 34 39 41 41 38 42 41 39 39 39 40 40 40 40 41 41 41 42 42 44 47 49 52 54 57 60 64 67
30 28 39 28 26 37 38 36 36 32 34 41 45 43 41 35 37 43 44 39 41 42 42 41 42 43 43 44 42 42 42 43 43 44 47 49 52 54 57 60 63 65 68 72
32 27 35 23 17 28 44 46 44 39 40 34 47 33 42 43 36 38 43 46 45 46 45 42 44 47 47 45 44 44 45 46 48 51 53 56 58 60 63 65 68 71 67 67
32 27 27 29 27 33 38 40 42 45 42 43 45 51 47 49 49 43 42 44 46 43 40 40 42 43 44 45 46 47 49 51 53 56 58 61 63 66 69 71 72 69 69 70
30 29 26 23 24 31 31 32 38 45 43 41 55 57 44 46 29 37 45 48 49 46 43 43 44 43 43 46 49 51 54 56 58 61 63 65 68 67 68 71 74 75 76 80
28 25 22 22 24 29 36 34 32 31 39 37 53 55 56 51 42 45 49 45 45 46 46 47 47 46 47 48 48 50 54 58 60 62 62 61 63 68 72 75 78 81 83 85
28 24 23 25 26 34 39 36 35 36 36 36 44 41 43 43 45 49 54 55 57 54 49 49 48 49 52 53 54 55 57 58 62 67 64 67 71 74 78 81 83 84 84 83
26 25 27 29 30 31 30 32 36 39 39 39 41 46 48 49 49 47 47 34 46 52 51 50 48 46 46 54 51 53 56 66 66 71 74 77 79 80 80 79 79 80 80 80
23 22 22 22 26 28 30 33 36 38 40 38 39 43 44 44 42 42 45 48 51 54 58 63 61 60 59 58 65 66 65 67 74 79 78 76 75 74 73 74 75 75 76 77
19 20 21 25 28 29 29 31 34 35 37 40 41 41 41 42 44 44 46 49 51 54 55 54 54 60 64 65 71 73 74 74 78 81 78 70 69 70 73 73 74 76 79 82
23 25 28 31 33 34 35 36 37 40 42 43 41 41 42 45 47 49 50 53 55 52 54 60 65 67 68 72 72 75 75 75 72 69 68 68 69 71 74 78 80 83 87 90
19 23 25 26 29 31 32 33 34 34 36 40 44 46 48 49 49 48 49 50 53 56 61 63 66 71 74 74 73 68 65 66 65 66 69 71 74 78 81 84 88 90 93 95
22 23 25 25 24 24 26 28 30 31 33 35 37 40 42 43 46 49 51 54 57 60 62 63 63 62 61 61 61 62 65 68 70 73 76 79 82 86 89 91 92 94 94 94
12 15 18 20 23 27 28 30 32 33 34 36 37 38 40 42 46 48 50 52 54 55 56 58 60 62 65 66 69 71 73 76 79 81 84 86 88 90 91 92 91 90 88 87
20 23 25 27 29 32 34 37 39 40 42 43 44 45 47 48 50 52 54 56 59 62 64 66 68 71 73 75 77 79 81 82 83 85 86 87 87 87 86 85 84 84 85 85
25 27 29 31 33 35 37 39 40 41 43 45 47 48 50 53 55 58 61 64 67 70 72 73 75 76 77 78 80 80 81 81 82 81 80 79 79 78 79 80 81 81 80 78
27 29 32 34 36 38 40 42 44 46 48 50 53 56 58 60 62 64 66 69 71 73 75 76 76 76 76 76 76 75 74 73 72 72 72 73 74 75 75 74 72 70 69 69
35 37 40 42 44 46 48 51 54 56 59 61 62 63 65 66 68 70 72 73 74 74 73 72 71 69 68 67 65 64 64 64 66 66 67 67 66 64 63 63 63 64 63 62

GFSNGP_500_spd_045.txt.gz
Wind_Speed
58 58 53 54 55 52 51 49 50 44 41 30 30 33 29 34 36 35 35 31 25 25 26 29 30 20 18 19 23 26 29 28 29 29 30 30 27 26 24 26 28 27 29 29
60 56 53 53 54 54 53 53 49 49 47 40 34 31 33 34 36 36 35 30 26 26 28 23 24 28 29 30 27 31 31 30 32 32 32 32 29 28 27 29 29 30 32 33
46 47 51 54 46 55 56 55 53 51 49 43 39 37 38 38 39 37 31 32 33 31 31 27 28 34 33 25 25 25 28 30 33 33 33 32 32 32 31 34 34 33 33 36
55 53 57 51 45 52 53 57 57 55 51 47 43 40 36 36 38 38 39 37 36 32 32 33 31 30 31 33 29 27 30 34 36 35 36 36 37 38 37 36 36 38 39 40
44 54 72 47 37 38 54 54 55 58 56 54 43 40 39 41 39 31 34 36 34 37 37 32 36 35 34 37 30 29 29 31 33 33 34 35 36 38 39 40 42 42 43 43
41 42 53 50 45 40 50 57 46 53 55 54 52 49 42 39 41 39 36 34 31 33 35 36 36 34 35 39 34 31 30 30 32 33 35 37 38 39 41 42 44 46 47 47
38 43 43 53 47 34 39 48 47 45 50 49 48 48 44 41 47 43 33 34 37 38 40 40 41 37 34 39 36 36 34 34 35 36 37 38 39 42 43 44 46 47 48 49
38 36 39 48 46 34 34 44 50 49 46 41 40 41 43 45 46 45 43 42 43 44 40 42 41 38 37 40 41 40 39 39 40 40 40 42 43 44 45 47 48 49 50 51
35 33 26 30 48 41 25 35 37 50 50 45 39 39 44 46 51 52 48 43 47 47 41 39 39 38 41 40 43 44 42 42 41 42 42 43 45 47 48 50 51 52 53 55
36 29 30 28 39 50 37 26 35 30 32 39 36 40 45 42 41 43 39 38 36 40 41 43 43 44 39 41 43 45 44 44 42 44 46 46 47 48 50 51 53 56 58 61
39 29 32 28 23 34 39 26 33 28 29 30 32 37 40 41 41 43 43 42 39 40 43 42 37 40 41 42 46 47 49 50 49 50 51 51 51 51 53 55 58 61 64 66
39 32 30 23 21 23 26 27 31 32 35 31 32 30 38 43 40 41 44 43 45 45 45 38 39 39 42 43 44 45 48 49 49 50 52 54 55 56 58 60 63 66 68 70
37 32 32 23 20 20 21 17 18 36 48 34 39 39 37 35 40 45 47 48 50 53 44 45 44 43 46 47 47 45 47 49 51 52 55 58 60 61 63 64 66 69 72 75
35 33 37 32 25 20 23 19 21 25 32 37 41 38 34 35 40 43 50 51 48 46 53 37 36 45 48 50 49 48 49 51 53 54 55 57 59 63 65 68 70 73 75 78
34 29 33 30 29 25 22 19 23 26 29 26 27 30 39 45 36 45 46 50 44 44 37 42 46 47 49 52 54 55 59 54 56 58 60 61 64 67 68 69 72 74 78 83
30 25 29 29 30 27 25 25 28 27 28 31 31 30 32 34 44 47 51 61 65 68 60 55 47 49 49 57 50 50 55 57 58 60 62 65 65 63 67 72 73 75 79 80
26 27 29 31 30 30 26 26 31 32 32 32 34 34 38 40 41 41 45 55 60 46 46 55 50 49 46 41 56 62 64 65 63 65 64 64 65 69 76 80 81 82 84 84
28 30 31 33 32 29 25 27 30 33 33 36 36 38 40 39 40 41 42 47 48 49 52 52 52 58 57 60 57 57 57 58 61 63 66 72 75 77 80 82 81 83 81 78
24 30 32 32 32 25 24 27 29 30 33 35 35 37 37 38 39 42 45 47 46 45 45 46 49 51 55 55 57 61 63 66 68 72 77 79 82 84 84 82 79 75 76 78
24 29 35 35 35 35 31 28 29 31 34 35 35 37 40 42 44 46 44 45 48 50 53 55 55 57 59 62 66 69 71 75 76 78 79 78 75 73 74 74 76 78 81 83
19 17 21 26 28 28 29 31 31 32 34 35 35 37 37 37 38 39 41 45 49 52 54 56 58 59 61 63 65 66 67 68 68 68 69 71 73 76 79 81 83 86 89 92
21 26 28 29 29 30 30 30 30 31 33 33 35 37 38 40 40 42 44 46 48 50 51 52 53 56 58 60 63 65 66 69 71 74 76 78 81 84 86 87 87 88 90 90
28 24 16 16 16 17 19 23 26 29 30 32 34 35 37 39 41 43 45 47 49 51 54 56 58 60 62 65 67 70 72 75 77 80 81 83 84 85 85 86 86 85 84 83
16 17 18 19 21 23 26 28 31 33 35 37 38 40 41 42 44 45 47 49 51 54 56 59 62 65 67 70 72 76 78 80 81 82 82 81 80 79 78 77 75 75 75 76
18 20 22 25 27 29 30 32 34 36 37 39 41 43 46 48 50 52 55 58 60 63 65 67 70 72 75 77 78 79 78 77 76 75 73 71 70 69 69 69 68 69 69 69
22 25 27 30 32 35 37 40 42 44 46 49 51 54 56 58 60 62 64 65 66 69 71 72 73 73 72 71 70 69 67 66 65 63 64 64 64 63 62 63 63 62 62 61
33 35 38 41 44 46 49 51 53 55 56 58 60 62 63 64 64 65 66 66 67 66 66 64 64 63 61 59 57 57 58 58 59 59 59 58 57 57 57 56 56 55 55 56

GFSNGP_500_spd_048.txt.gz
Wind_Speed
53 52 47 49 50 51 52 53 53 49 50 49 34 33 31 28 29 32 26 27 22 24 27 29 26 28 25 26 32 29 25 28 34 33 31 28 29 29 29 29 29 29 29 28
49 49 51 49 51 55 54 56 56 55 53 53 46 33 36 32 29 33 32 29 31 30 28 25 25 25 28 28 32 31 33 38 43 42 38 30 30 30 31 30 31 33 31 31
45 47 48 49 49 51 55 57 60 61 59 57 54 44 40 39 37 35 34 35 30 30 26 24 24 24 27 30 33 36 36 35 34 36 35 33 32 34 34 34 35 35 34 34
45 45 49 45 42 43 50 56 58 63 64 61 57 54 39 40 42 39 37 37 31 33 34 29 25 21 29 33 35 32 31 32 33 33 35 35 37 36 35 35 36 36 38 40
44 47 46 49 46 48 53 53 52 53 62 65 60 55 48 42 40 40 40 33 30 25 26 27 27 27 30 31 32 33 33 36 37 33 33 35 37 35 34 35 36 38 40 41
31 34 37 28 33 37 44 51 50 44 49 55 57 58 53 42 44 39 40 43 38 32 29 30 28 31 30 32 33 32 32 35 35 35 36 36 38 37 37 37 38 40 42 46
32 32 20 23 33 37 40 43 51 55 45 46 51 55 52 49 44 44 42 41 41 43 37 31 29 30 34 37 37 37 38 39 37 37 38 39 41 40 39 42 42 43 45 47
38 35 26 28 33 34 33 29 37 56 45 45 51 51 50 43 35 41 44 49 47 48 44 38 36 36 36 38 35 36 39 41 39 40 42 43 45 43 43 42 44 46 48 49
41 37 37 34 35 34 27 29 32 45 46 47 43 45 48 43 34 34 37 42 49 45 43 40 40 43 40 41 41 38 38 42 42 43 46 46 47 45 45 47 47 48 51 52
45 38 39 35 33 36 34 33 31 35 36 38 39 44 46 42 37 38 37 38 39 41 47 46 44 40 44 40 38 43 41 41 43 45 44 46 49 49 50 53 55 54 54 55
46 45 44 39 39 34 33 36 24 39 38 29 39 38 43 47 42 39 38 39 40 41 41 40 40 42 41 40 43 44 43 42 43 43 44 46 48 50 51 52 55 56 56 58
48 49 46 40 39 37 32 31 24 28 36 32 44 32 32 32 34 35 39 39 39 39 41 39 41 44 45 47 49 50 51 52 51 48 48 50 50 51 53 54 56 59 61 64
49 47 42 38 36 38 36 33 20 17 17 22 39 32 28 28 30 28 31 38 43 44 40 45 47 51 54 52 52 45 41 45 46 47 47 47 49 52 55 58 61 63 64 67
33 37 37 34 32 38 38 26 24 19 21 19 20 40 35 32 34 36 34 33 35 36 40 43 47 57 52 52 45 46 49 46 49 50 53 54 57 61 61 63 65 66 69 71
21 28 33 31 35 39 36 30 29 22 20 21 20 19 25 27 28 29 33 36 37 40 40 45 53 51 51 51 54 49 45 46 51 49 53 59 61 62 63 63 63 62 63 65
28 27 31 31 35 36 35 31 31 32 18 19 21 23 23 25 25 27 30 31 33 40 45 48 48 50 47 48 47 52 55 56 54 56 53 56 59 62 64 62 63 65 67 69
30 32 31 29 30 32 33 33 32 33 29 27 25 27 30 31 32 35 37 37 40 41 42 44 45 49 44 49 49 54 55 56 54 54 60 61 59 62 65 70 71 73 77 81
30 22 29 32 32 31 32 33 36 39 35 29 27 27 31 31 34 37 40 39 39 40 41 34 47 51 53 54 56 59 54 52 54 60 63 66 68 69 72 75 78 82 84 84
27 29 26 29 30 32 33 37 39 39 39 34 31 33 32 36 34 34 35 36 37 38 41 44 48 50 49 50 52 56 59 60 63 65 67 70 72 74 76 76 76 76 76 77
30 24 21 28 31 37 34 32 38 40 39 33 35 31 33 39 40 38 39 40 42 43 46 49 52 54 55 58 60 62 65 66 67 67 68 68 68 68 71 74 76 78 81 83
24 29 30 30 31 34 37 40 43 42 44 42 35 36 38 39 41 41 42 43 44 46 47 48 49 51 54 56 58 60 61 60 60 62 66 70 72 74 76 78 81 83 86 89
20 22 21 23 26 30 30 27 30 35 37 39 39 40 42 41 40 40 41 43 44 44 44 47 49 51 53 55 58 60 62 64 65 68 70 73 76 80 83 86 88 89 89 89
14 16 23 25 27 25 20 20 23 24 25 27 29 30 31 32 35 37 41 44 46 47 49 52 54 55 57 59 62 64 66 69 72 74 78 80 82 83 84 85 84 82 79 77
10 13 13 16 19 21 21 22 24 26 29 31 34 35 36 38 41 43 47 49 50 52 54 57 60 62 65 68 70 72 73 76 79 80 80 80 78 75 72 71 69 69 69 68
15 17 19 21 23 25 27 29 31 32 34 37 39 41 43 45 48 51 54 57 59 62 64 66 68 69 71 72 73 74 74 73 71 68 65 62 62 62 62 63 64 63 62 61
20 23 25 28 31 34 36 38 41 43 46 48 50 52 54 56 58 60 62 63 65 66 67 68 68 68 68 66 64 60 56 54 53 54 56 58 59 60 59 59 58 57 57 56
30 33 36 39 41 44 47 49 51 53 54 56 58 59 60 61 61 61 62 62 63 63 62 59 56 52 48 46 45 46 49 51 53 55 56 54 52 52 51 51 51 51 51 51

GFSNGP_500_spd_051.txt.gz
Wind_Speed
42 40 40 44 45 46 47 48 50 49 49 50 48 39 37 35 32 29 29 31 27 31 31 30 31 29 28 31 34 34 31 26 27 26 26 29 32 34 36 36 34 32 32 31
45 42 43 43 42 44 44 47 49 49 49 50 49 50 39 38 36 35 34 30 30 28 32 36 35 35 36 37 37 36 32 27 31 34 34 36 35 37 34 34 35 35 34 33
44 40 40 46 42 43 43 44 48 52 53 54 54 52 50 41 43 40 37 34 33 30 29 31 35 40 35 33 35 37 37 32 33 35 39 37 34 35 33 33 35 35 37 39
46 44 44 43 35 32 42 44 50 56 57 57 59 58 56 51 43 42 43 41 34 32 31 29 28 33 34 32 34 36 38 37 36 39 36 34 35 36 35 33 33 34 36 36
44 43 42 38 35 35 35 38 43 47 53 60 61 62 63 58 51 46 47 45 38 32 32 30 29 35 35 35 32 30 34 35 36 39 40 36 36 35 34 35 34 34 37 38
28 26 15 15 23 25 23 29 34 44 50 54 56 63 62 57 52 46 43 43 45 38 36 32 30 30 32 35 35 30 31 33 37 42 42 36 36 37 36 35 36 37 36 38
20 19 13 19 22 23 22 23 26 28 35 44 49 53 59 56 48 45 39 39 46 47 40 38 37 37 35 31 32 36 33 36 37 39 42 40 39 37 38 37 39 41 42 42
23 18 17 21 25 26 25 24 26 26 27 32 38 45 53 57 50 43 36 37 40 46 47 43 39 41 41 39 37 36 36 37 39 41 39 37 38 42 42 41 42 43 44 45
26 24 25 29 33 33 32 28 30 31 31 31 33 36 43 54 52 44 36 38 37 44 50 49 46 46 44 47 41 38 44 46 47 47 43 42 44 46 45 46 47 47 48 50
32 30 32 35 38 37 35 33 34 37 38 36 34 35 40 46 48 41 40 38 38 41 43 38 39 42 46 45 46 48 52 47 44 45 44 48 47 46 47 47 49 51 52 52
34 36 37 39 42 40 40 38 37 38 37 32 26 31 31 33 40 41 41 41 42 36 34 34 35 35 36 39 41 40 40 45 49 49 50 50 53 54 52 49 50 50 52 53
39 39 41 42 44 44 45 43 41 38 41 40 31 26 32 31 39 33 46 45 42 41 39 37 37 39 39 38 37 38 42 46 47 52 53 53 51 50 51 51 50 51 53 53
42 44 46 47 49 50 50 49 45 36 43 41 38 29 26 28 40 40 45 43 41 41 42 38 38 37 38 38 42 45 48 50 56 55 56 56 51 51 49 50 52 56 59 59
44 46 47 47 50 47 46 44 41 34 44 41 33 33 22 25 8 32 45 42 39 34 31 40 42 39 44 43 42 46 51 46 59 64 65 65 59 58 60 64 62 64 66 67
37 40 40 38 35 33 37 38 36 39 37 42 37 34 22 25 25 33 34 34 34 37 42 39 40 40 40 43 50 46 49 52 49 45 47 53 56 58 59 56 52 58 60 60
30 36 32 29 25 29 35 37 34 32 32 34 34 35 28 23 22 18 31 28 31 31 33 32 42 38 41 45 44 46 48 52 51 52 53 53 51 54 57 57 57 61 63 66
32 34 33 31 28 26 30 36 35 29 31 36 35 33 32 24 24 26 27 28 32 33 34 37 34 41 35 38 41 46 48 51 52 52 55 58 60 61 57 58 60 64 68 73
31 36 36 35 29 25 25 30 29 29 31 37 37 38 36 30 23 27 25 32 31 31 33 36 38 40 39 42 46 48 48 53 57 60 57 58 60 63 67 68 70 74 76 76
23 26 25 27 28 30 26 26 30 32 31 33 36 37 36 36 34 25 28 34 34 37 38 40 41 42 43 45 49 53 58 59 59 60 62 65 69 72 72 73 74 75 75 76
14 12 17 20 24 24 25 26 28 34 34 32 29 33 37 40 43 43 45 47 47 46 44 43 45 47 49 50 51 52 53 55 57 60 62 65 67 69 70 70 72 75 77 79
19 18 20 22 26 30 31 34 33 35 37 38 38 39 39 40 46 50 48 47 46 48 47 48 50 51 52 53 53 54 54 55 58 62 65 66 69 71 73 74 77 81 84 87
18 21 22 23 26 27 26 27 29 30 33 36 36 36 37 38 41 43 45 46 47 47 47 47 47 48 48 51 53 56 59 60 62 65 68 72 74 77 80 83 85 86 88 90
22 24 27 25 25 27 26 23 21 22 21 20 21 25 28 30 32 34 36 38 41 44 47 49 51 53 55 57 59 62 65 68 70 73 76 79 80 82 84 85 84 82 77 73
24 18 17 17 17 19 21 22 23 24 27 29 31 32 34 36 39 41 43 45 48 51 53 56 58 61 63 65 67 70 72 74 75 78 79 80 80 77 73 68 65 64 63 64
18 18 20 21 23 24 25 28 30 32 34 36 38 41 43 45 47 49 52 54 56 59 61 64 65 67 68 69 71 73 74 73 72 69 65 60 56 55 56 56 58 59 58 57
21 24 26 28 31 33 35 37 40 42 43 46 48 50 52 53 55 57 59 61 62 64 65 66 67 67 66 64 60 56 52 50 48 48 48 49 51 53 54 55 55 54 53 52
29 32 35 38 40 43 45 48 50 51 52 54 55 56 57 57 58 58 59 59 59 57 54 51 47 44 41 39 39 40 42 44 45 47 49 51 52 54 54 53 51 49 49 49

GFSNGP_500_spd_054.txt.gz
Wind_Speed
37 38 39 40 40 41 40 40 42 42 45 43 43 40 34 35 34 31 29 29 32 32 35 34 31 33 34 34 33 32 32 31 31 33 32 29 29 28 28 29 31 33 34 35
35 35 32 36 39 42 44 43 44 43 45 44 45 44 42 36 37 37 33 30 30 32 37 37 38 38 38 38 37 35 35 37 36 36 36 33 32 34 35 36 37 37 33 36
39 37 37 39 35 34 35 36 38 41 45 49 48 49 46 44 39 37 37 36 33 30 36 37 39 39 42 42 42 44 43 44 41 39 37 37 39 39 37 37 37 36 37 38
37 32 42 42 35 36 35 35 40 45 47 49 51 51 50 47 48 45 39 38 39 38 37 35 39 43 41 43 45 47 48 48 41 40 39 40 42 40 41 41 40 39 39 39
42 44 44 41 37 32 34 35 37 42 45 46 50 52 50 51 54 50 50 46 43 43 41 39 35 41 45 45 46 47 47 46 46 43 41 45 42 41 43 44 45 45 44 41
38 41 41 39 31 28 31 34 41 39 40 43 45 48 51 50 54 53 50 47 45 44 43 43 38 39 42 48 45 44 46 47 47 42 41 43 44 43 42 43 43 42 45 46
19 20 22 21 24 23 22 23 22 23 27 32 37 44 47 45 49 55 52 47 45 37 39 43 45 42 41 44 42 42 46 46 46 46 44 45 47 48 44 41 42 42 43 46
17 17 16 17 19 21 19 18 18 18 19 20 23 29 37 40 39 43 50 51 44 41 40 41 45 41 45 45 44 44 44 45 49 51 49 47 50 50 56 59 45 44 45 48
19 19 23 23 22 21 21 21 23 24 24 24 23 25 31 35 39 43 44 50 50 45 42 46 46 44 47 49 48 46 48 47 48 48 50 51 53 57 56 60 54 52 50 54
21 23 24 26 25 26 28 29 29 28 28 30 29 31 32 34 36 39 41 46 51 44 43 46 48 48 50 53 52 49 51 50 48 53 54 56 57 55 50 50 54 54 58 56
24 26 27 28 29 30 33 34 36 36 35 35 36 36 34 36 37 33 38 42 42 42 41 43 45 44 47 55 53 48 47 51 53 57 60 58 53 55 58 57 59 57 56 57
26 27 29 31 33 35 37 39 40 41 42 42 42 41 42 42 45 39 40 23 35 37 40 45 44 45 50 50 46 45 46 47 52 55 56 53 52 52 55 55 57 68 60 60
30 32 35 37 39 40 42 44 45 45 46 46 47 48 48 46 42 43 39 36 15 41 41 54 47 46 48 43 45 45 45 46 47 52 51 53 63 60 56 59 65 65 63 66
31 33 37 39 40 42 44 46 47 48 50 50 50 50 48 47 44 39 31 29 31 26 36 32 38 52 47 48 48 44 41 44 52 61 59 57 53 64 66 63 63 66 66 63
32 37 40 42 43 45 47 46 44 42 39 40 42 42 43 39 46 44 39 29 30 32 25 24 41 39 44 38 41 35 44 40 44 46 53 51 55 45 43 47 48 51 53 50
36 40 42 42 39 36 36 37 36 32 32 36 38 35 30 32 38 37 38 32 27 35 46 40 40 40 37 40 46 51 51 47 50 55 47 44 45 44 46 47 51 53 56 58
33 35 35 34 34 35 31 30 31 28 31 30 32 34 32 33 35 34 34 34 22 29 31 21 22 26 35 38 42 41 42 44 43 45 45 46 53 53 55 58 59 61 62 64
25 27 29 31 34 31 31 31 29 29 31 33 29 30 32 31 32 36 35 31 21 18 21 26 34 35 33 38 42 44 47 50 50 52 52 54 58 60 63 65 66 67 68 70
21 22 25 28 26 25 25 27 29 35 31 29 31 32 31 30 31 34 35 35 34 36 34 31 32 36 38 42 46 48 50 52 53 55 57 60 63 65 66 66 66 67 69 71
19 22 23 24 24 21 23 25 30 29 28 30 30 30 33 33 34 36 34 36 37 40 43 48 45 46 52 56 53 51 51 54 57 59 60 62 64 66 66 67 68 71 73 76
22 19 18 22 24 25 27 29 31 34 34 32 31 32 34 37 36 36 39 40 40 43 45 47 51 52 50 51 53 54 55 56 57 59 60 60 63 65 69 73 75 76 78 81
17 19 23 26 27 30 30 32 34 35 35 35 36 36 36 36 38 40 40 41 44 45 46 45 45 47 48 49 50 51 53 55 58 61 63 66 69 72 75 78 81 83 86 88
23 25 28 30 28 26 25 24 22 22 23 25 25 26 26 27 29 31 34 36 38 39 41 43 45 48 52 54 56 58 61 63 65 68 70 74 77 80 83 85 87 89 88 84
20 24 26 25 22 21 22 24 25 27 28 30 31 33 35 36 37 39 41 43 45 47 49 51 54 57 60 62 65 67 70 72 74 76 78 80 82 85 85 80 74 67 63 61
23 24 24 24 26 27 29 31 33 35 36 38 40 43 45 46 48 50 52 53 55 57 59 61 64 66 68 70 71 72 74 74 74 73 70 67 63 59 56 55 55 55 57 58
23 25 27 29 32 34 36 39 41 43 46 48 50 52 54 55 57 59 60 61 62 63 65 66 67 68 69 67 65 61 57 54 51 49 48 48 49 50 51 53 55 56 57 56
28 31 34 37 40 43 45 47 48 50 52 53 55 57 58 60 60 60 61 60 60 58 56 54 50 47 43 41 39 39 40 42 44 46 47 49 51 53 54 55 55 55 53 51

GFSNGP_500_spd_057.txt.gz
Wind_Speed
29 35 35 28 32 30 31 30 29 26 29 35 36 33 31 34 29 31 29 31 36 33 32 33 33 35 37 37 37 40 38 35 32 33 33 32 32 32 33 33 29 28 30 32
34 31 30 33 34 35 34 34 32 36 39 37 37 41 38 33 35 36 35 34 35 37 37 37 37 34 35 37 36 39 41 38 36 37 38 36 36 35 35 37 35 35 37 39
30 27 30 35 31 32 32 34 35 36 29 39 44 42 39 38 37 36 34 33 34 37 39 41 41 42 41 39 42 43 44 43 41 42 42 41 40 41 40 40 40 40 40 40
30 30 28 26 33 29 29 28 29 33 36 39 41 41 36 39 42 40 38 35 33 33 36 39 39 40 42 42 44 44 45 46 47 47 48 46 45 43 42 44 44 44 43 43
47 47 39 40 40 32 31 28 35 35 44 42 44 39 37 49 40 41 42 41 38 36 36 39 40 40 43 46 43 45 46 48 47 50 50 51 48 46 46 47 44 46 45 45
38 39 41 39 40 32 32 30 42 41 40 39 40 37 39 38 40 42 42 42 42 42 41 38 40 42 45 46 46 47 47 50 53 55 54 54 48 48 52 49 46 46 47 44
46 43 41 43 46 36 35 34 41 34 36 35 32 34 33 32 35 41 43 46 50 46 48 46 39 38 40 44 46 48 50 53 55 57 59 55 53 54 52 49 50 51 51 51
29 26 32 24 24 26 32 39 34 25 22 22 23 24 26 25 29 33 39 42 43 47 45 45 45 41 42 47 48 50 52 52 52 56 55 54 57 57 52 56 63 58 58 59
24 23 18 19 21 19 23 25 24 23 23 23 25 26 28 28 29 31 37 40 42 46 49 49 48 47 44 49 52 54 56 55 55 54 56 58 58 57 60 61 60 65 63 67
21 19 15 23 20 19 21 22 25 27 27 27 27 28 29 31 31 35 38 39 40 44 47 51 51 50 51 51 55 57 59 58 59 60 58 63 61 61 61 62 65 68 66 68
26 24 27 24 25 23 25 26 27 28 30 30 31 33 34 35 37 39 39 39 42 45 43 46 50 51 48 49 53 59 58 59 65 64 64 64 68 66 67 66 67 69 72 75
24 24 25 26 24 23 27 28 30 32 34 37 37 40 41 41 43 44 43 44 44 44 49 49 42 44 45 44 46 49 59 54 58 69 71 61 65 64 64 68 70 73 75 75
22 23 25 26 27 27 31 33 35 38 40 42 44 46 46 47 47 48 49 47 46 49 47 41 29 40 42 45 47 49 52 52 53 58 67 61 64 67 68 67 68 69 70 65
26 26 27 27 29 31 34 37 39 41 42 44 47 49 51 52 52 53 54 49 52 52 46 35 33 36 36 45 27 46 41 53 54 55 59 52 48 63 64 68 68 68 70 71
25 27 29 30 32 34 36 38 41 43 46 47 46 47 46 44 45 47 49 48 46 46 43 44 26 27 22 27 30 19 30 47 54 57 55 55 40 48 55 55 52 55 48 49
24 27 29 30 33 36 39 41 42 39 37 36 36 33 33 35 39 37 36 41 40 36 35 40 40 35 31 35 36 44 34 26 34 38 55 52 46 58 47 45 49 49 50 50
26 25 28 31 34 37 38 36 34 34 32 31 30 34 33 33 31 35 36 35 37 36 32 31 30 28 29 30 26 31 39 36 33 37 40 43 41 41 46 47 51 56 57 58
26 29 31 33 32 29 31 34 39 39 32 32 35 36 39 36 31 32 35 34 34 32 32 30 31 34 31 33 30 36 38 40 42 40 43 45 46 50 54 55 57 60 62 64
28 23 26 28 29 28 28 29 32 31 32 34 35 33 33 31 33 36 36 34 31 30 32 33 34 33 35 37 39 40 42 42 45 48 50 52 53 54 56 60 62 64 66 68
27 29 27 27 26 28 28 28 28 31 33 32 33 34 33 36 34 33 35 37 38 39 38 38 39 40 41 41 44 46 49 51 52 51 51 54 57 58 60 63 65 67 68 68
27 29 28 27 27 26 27 28 30 33 34 36 36 37 40 39 37 38 38 39 40 40 39 39 40 43 45 46 47 49 53 54 53 54 53 54 56 57 59 62 64 68 71 73
27 27 28 29 30 32 33 33 35 36 36 37 36 33 32 32 33 34 35 36 37 37 38 39 41 43 43 45 46 47 49 51 53 54 56 59 60 63 66 69 72 75 78 81
27 27 28 30 29 29 31 29 27 25 24 25 26 28 29 31 32 33 35 37 38 40 42 43 45 46 48 50 51 53 56 58 61 62 65 68 69 71 74 76 79 82 83 83
29 30 30 30 31 29 29 29 29 30 31 32 33 35 37 39 41 42 43 44 46 47 49 51 53 55 57 59 61 64 66 67 69 71 73 74 75 76 75 74 72 68 64 61
28 29 30 30 29 30 31 33 34 36 38 40 41 43 45 47 49 51 52 53 55 57 58 60 61 62 64 65 67 69 70 71 72 71 68 65 62 58 56 54 53 53 54 56
24 25 27 29 32 34 37 39 42 44 46 49 50 52 54 55 57 59 60 61 62 63 64 64 65 65 65 63 62 59 56 53 51 49 48 48 48 49 50 52 55 57 57 58
27 31 34 38 41 44 46 48 50 53 54 56 58 59 60 61 62 62 62 61 58 56 53 50 47 45 43 42 42 42 41 42 43 44 45 47 50 54 56 57 57 57 57 56

GFSNGP_500_spd_060.txt.gz
Wind_Speed
27 20 27 24 16 20 36 33 30 37 35 32 28 28 31 42 36 29 31 33 31 27 27 31 29 28 31 34 34 33 33 34 33 32 32 31 31 32 32 33 31 33 31 30
29 27 30 26 27 28 28 31 32 23 31 36 26 12 30 38 32 30 31 34 26 29 32 34 35 36 35 34 34 36 36 37 35 37 36 35 34 34 35 35 35 35 35 34
29 32 35 29 32 30 18 24 29 29 26 26 35 34 39 32 36 39 31 32 34 35 37 37 38 40 40 39 37 39 39 36 38 39 39 37 38 40 39 40 40 38 36 39
32 32 32 27 32 34 36 27 28 30 28 32 36 39 28 33 35 29 30 31 33 35 36 36 39 43 44 44 43 43 41 40 40 42 42 41 42 43 44 44 43 43 43 40
29 22 17 24 29 29 29 27 25 28 29 37 39 31 34 39 34 34 35 33 33 34 36 37 40 40 41 41 44 44 43 42 42 43 45 46 46 44 45 47 48 48 48 46
45 29 30 18 18 19 25 17 23 32 38 39 37 29 36 38 35 35 36 36 33 33 35 37 36 37 40 43 45 46 47 48 48 48 49 49 49 49 51 52 52 52 51 47
49 38 33 29 25 35 31 29 35 40 41 37 33 33 31 36 31 32 30 31 31 32 32 34 36 38 39 40 44 48 50 51 53 55 54 53 54 54 55 55 54 53 53 52
54 47 47 41 35 41 42 41 42 43 45 32 32 30 26 25 24 24 23 26 30 31 33 35 37 39 41 44 46 47 49 52 53 57 59 57 58 59 60 59 59 60 58 58
33 44 49 49 51 50 49 37 36 38 42 37 29 26 24 25 25 27 29 30 32 34 35 37 39 43 45 47 49 51 52 54 57 60 64 66 64 64 63 65 64 63 63 63
20 24 29 27 28 33 35 35 36 40 37 30 29 27 26 27 28 30 31 34 35 37 39 41 43 46 49 51 53 54 58 57 63 65 66 70 71 70 66 67 68 63 67 70
20 21 19 21 27 25 25 24 26 28 28 30 30 29 29 30 32 34 36 38 40 42 44 45 46 48 51 52 57 58 59 60 61 68 68 65 71 74 71 69 67 68 71 64
27 18 27 23 18 25 26 27 28 28 29 30 31 32 34 36 38 40 42 44 46 47 48 48 49 51 53 53 56 58 56 54 56 59 65 62 60 64 67 78 71 72 70 73
26 27 29 29 26 26 26 28 29 28 29 31 33 36 39 42 44 46 48 50 51 53 54 54 55 56 55 56 48 45 43 44 50 52 60 59 57 59 64 69 73 68 76 76
29 28 27 28 28 29 28 29 29 31 33 36 39 41 43 45 47 49 52 55 57 59 60 61 61 60 58 59 48 45 41 44 44 43 54 61 58 57 61 65 63 71 71 85
29 29 29 30 29 29 29 30 31 33 35 37 40 43 46 48 50 50 52 51 48 46 47 50 51 48 45 43 43 43 37 34 24 25 22 25 20 29 32 38 52 43 50 50
28 28 28 28 28 27 28 28 30 33 38 40 42 42 41 39 38 37 36 37 40 39 41 40 39 41 38 35 33 37 36 30 32 30 29 33 37 31 28 36 30 36 38 41
23 24 24 24 24 25 28 31 33 36 37 36 36 35 34 36 36 35 37 39 39 39 38 38 40 36 36 32 31 30 28 29 29 31 31 32 34 40 42 41 38 37 40 46
24 24 22 23 26 28 31 32 30 30 31 34 35 36 37 38 38 39 39 40 43 37 37 38 38 36 36 37 37 33 33 31 33 37 37 38 40 40 39 42 45 46 49 52
23 24 28 30 29 28 29 31 32 31 33 32 31 32 35 39 40 38 37 38 36 36 39 42 40 38 38 39 39 38 40 41 40 41 41 43 45 48 50 53 53 54 56 57
30 30 28 30 31 33 33 34 31 31 33 32 32 32 33 35 36 38 42 42 42 40 40 39 40 43 44 42 41 42 43 45 47 47 49 51 50 50 51 52 54 56 57 57
29 28 30 32 33 35 36 34 34 35 35 36 38 38 37 39 41 42 42 43 40 38 38 38 38 38 38 38 39 41 43 45 47 49 49 50 51 52 53 55 56 58 60 63
27 29 31 32 34 34 33 33 34 37 39 38 34 31 30 29 30 31 32 32 33 34 35 36 37 38 39 40 41 42 44 46 48 51 52 54 57 58 60 62 65 66 68 70
32 31 32 32 31 31 33 34 36 35 34 33 33 33 33 34 35 36 38 39 41 42 43 45 46 47 48 50 51 53 54 55 56 58 60 62 64 66 67 67 68 69 70 70
30 29 29 30 32 34 35 35 36 36 35 35 37 38 39 41 42 43 45 47 49 51 52 53 55 56 57 58 60 61 62 64 65 67 68 69 70 70 69 67 64 62 60 58
30 31 33 34 33 34 34 35 36 37 38 40 42 44 46 48 50 52 54 55 57 58 59 61 62 63 64 65 66 67 67 66 65 65 63 60 56 53 51 50 50 49 49 50
26 26 27 28 30 33 35 38 41 44 46 48 51 53 54 56 58 60 61 63 63 64 65 64 63 62 60 58 55 53 50 48 46 46 45 45 45 46 47 48 49 50 53 56
27 30 33 36 39 41 44 47 50 52 55 57 59 61 62 63 64 63 62 61 58 55 52 49 46 43 40 38 37 37 37 37 38 39 41 43 45 47 48 50 53 56 59 61

GFSNGP_500_spd_063.txt.gz
Wind_Speed
19 20 17 24 24 25 40 39 41 30 36 41 34 40 50 48 45 40 42 35 31 31 28 30 30 32 29 27 24 28 30 28 26 26 28 28 29 30 31 27 26 26 27 27
20 23 24 23 16 20 25 36 41 35 42 31 47 36 41 45 49 52 49 39 33 30 29 31 31 30 33 31 32 32 29 31 32 33 34 33 33 34 36 35 33 31 30 30
24 25 27 26 22 22 27 28 38 29 23 32 39 32 37 34 39 43 44 42 36 32 32 31 32 35 34 36 35 36 38 34 35 36 35 35 36 37 36 36 37 37 36 36
26 26 29 27 25 27 29 26 26 12 24 16 24 24 29 33 30 34 40 40 39 38 39 34 35 38 39 40 39 40 41 42 40 40 40 39 40 40 39 39 42 43 44 43
31 26 30 27 26 30 30 27 26 28 31 33 25 37 35 31 32 34 33 31 29 29 32 35 36 37 38 40 43 42 44 45 45 43 43 43 43 42 40 41 43 45 47 47
31 32 26 22 31 34 35 35 38 35 30 33 42 46 39 38 38 35 28 31 35 36 35 37 37 38 39 41 44 47 47 48 48 46 46 47 48 49 48 48 47 49 51 50
33 43 34 22 21 22 33 37 39 38 37 36 31 29 31 35 36 33 35 36 37 36 37 35 36 37 39 41 42 46 47 48 49 51 51 50 52 54 56 57 56 54 54 55
24 42 51 31 26 24 26 28 28 30 30 33 34 35 33 37 41 39 36 33 30 30 30 29 32 34 37 40 41 44 47 49 51 53 55 56 57 59 61 62 61 61 62 61
13 17 38 44 40 30 25 25 30 33 35 37 39 41 42 39 34 33 32 30 30 30 31 33 35 37 38 40 42 45 47 49 50 52 56 59 61 63 68 70 68 67 68 68
10 14 26 34 37 48 45 43 42 43 42 45 44 34 35 36 33 34 32 32 32 32 33 35 38 40 42 43 44 45 47 49 52 56 59 62 65 68 71 75 78 77 75 75
13 15 17 26 34 30 34 34 37 42 43 45 43 35 33 34 36 35 34 34 34 35 37 39 41 44 45 48 49 50 52 52 53 55 59 61 63 66 69 76 80 79 78 80
20 24 27 22 30 32 22 33 31 28 30 32 34 39 34 32 35 35 36 37 39 41 42 44 46 49 51 53 55 57 56 56 58 61 60 59 51 52 57 64 72 77 73 71
19 19 21 25 28 28 43 16 25 24 26 28 29 30 32 34 37 38 39 41 44 46 48 50 52 54 56 59 60 59 64 65 64 63 61 58 48 47 48 55 61 63 66 68
18 26 25 26 26 24 22 19 24 28 30 32 33 34 35 37 38 40 43 46 48 51 53 56 58 60 61 58 56 57 58 57 58 56 52 47 45 43 45 49 51 51 55 63
25 27 28 27 26 25 24 26 28 28 31 32 33 34 35 38 41 44 47 50 52 54 55 53 49 44 44 44 47 46 42 40 40 35 39 39 39 33 28 31 29 35 51 54
27 28 29 29 30 31 31 32 32 31 31 31 33 36 39 42 45 48 48 46 45 43 41 41 42 44 43 46 44 43 43 38 37 28 28 26 25 26 31 31 29 33 34 36
33 32 30 31 32 32 32 32 32 31 33 34 36 38 36 36 36 38 39 41 42 43 42 41 40 44 45 40 39 41 42 39 42 38 38 33 30 30 30 31 32 33 35 36
28 29 29 28 28 29 30 30 32 34 35 36 33 33 32 34 35 37 39 40 40 42 43 42 39 41 40 42 41 45 42 40 40 41 41 40 38 36 36 36 38 40 41 42
28 29 27 27 29 29 30 33 36 35 34 33 33 33 34 36 36 35 36 36 37 40 41 41 43 44 45 44 43 44 45 46 46 46 45 44 44 43 43 43 42 43 44 46
32 32 32 31 30 33 33 33 33 34 35 35 36 36 38 39 39 40 43 43 42 43 45 45 46 46 44 42 41 42 43 43 44 44 44 45 44 43 44 45 46 47 47 48
30 29 34 30 30 31 32 33 35 36 37 37 37 38 39 41 43 43 38 36 36 37 37 37 36 36 36 37 38 39 41 42 43 44 45 46 47 48 48 49 51 52 54 56
21 22 26 29 29 31 32 34 35 36 36 36 35 36 38 38 37 37 37 37 38 39 40 41 42 43 44 44 45 45 46 48 49 50 51 53 54 56 57 58 58 58 59 60
21 23 26 30 33 35 36 34 34 34 34 34 35 36 38 38 39 41 41 42 42 44 45 47 49 50 51 52 53 54 55 56 56 56 57 58 60 60 60 60 60 61 59 55
26 28 29 30 30 32 33 34 34 34 34 35 36 37 38 41 43 44 46 49 51 52 54 55 56 57 57 58 59 59 60 61 62 61 61 61 59 57 57 55 53 51 51 51
27 28 30 32 31 30 30 30 32 33 36 39 42 45 47 49 51 53 54 55 57 58 59 60 60 61 61 61 59 59 58 55 53 51 50 48 46 45 46 45 46 47 48 49
21 22 24 26 29 32 35 37 40 42 44 47 50 53 55 58 60 62 63 64 64 63 62 60 59 57 55 53 51 49 47 45 43 42 41 41 41 41 42 43 45 47 48 50
27 30 33 36 38 40 42 44 46 50 53 55 58 60 63 64 63 62 60 59 59 58 57 55 53 50 47 45 43 41 39 37 37 36 36 36 38 40 42 43 45 47 50 52

GFSNGP_500_spd_066.txt.gz
Wind_Speed
26 24 26 18 14 23 26 32 40 42 46 46 38 33 51 50 49 46 43 45 38 34 28 29 28 28 28 30 27 26 23 27 28 29 30 30 30 30 29 27 27 27 27 27
28 27 28 26 23 11 23 28 39 38 42 51 49 35 38 54 51 51 52 43 42 40 38 35 34 33 34 35 35 32 32 29 30 34 34 32 32 31 35 35 35 36 34 34
29 29 30 28 24 19 16 22 24 36 41 40 50 37 36 39 38 45 48 48 45 40 43 38 41 37 38 39 39 38 38 33 35 35 34 36 38 40 38 37 39 37 37 39
28 28 29 25 23 28 26 23 30 32 29 33 34 40 38 45 46 54 52 56 45 45 45 43 38 36 39 39 39 39 36 40 38 37 38 39 40 41 41 43 42 42 43 43
28 29 27 24 23 28 22 24 23 23 35 24 26 34 27 33 39 45 47 40 35 39 45 44 35 39 45 44 43 42 42 42 40 41 43 44 42 44 45 45 46 47 46 47
29 30 30 22 26 27 29 33 25 21 21 26 24 22 22 23 35 30 28 30 33 35 35 35 37 40 41 44 45 46 47 48 47 46 48 45 45 45 45 47 49 51 52 53
28 31 31 31 29 30 29 29 30 31 31 26 21 21 24 28 28 31 35 34 37 40 40 38 39 42 45 46 47 48 49 50 51 51 51 51 52 50 50 50 51 54 57 60
19 29 34 32 29 26 33 30 28 32 31 30 32 29 25 27 28 29 31 35 36 37 38 38 39 43 45 47 48 49 50 51 52 53 55 55 57 59 60 60 61 61 63 65
13 14 23 31 37 24 25 34 30 27 22 24 28 31 33 33 32 33 37 38 37 37 40 41 42 44 44 44 44 44 45 47 48 48 50 53 54 57 60 62 64 66 68 69
15 11 14 18 36 39 25 29 34 32 33 31 30 31 34 35 32 33 37 40 42 43 42 43 42 42 42 42 42 44 45 47 49 50 51 53 56 57 57 60 63 66 68 71
19 13 13 11 27 27 34 38 33 32 33 37 40 40 39 38 41 42 41 42 40 41 40 40 41 42 42 43 44 46 48 50 53 55 57 58 59 61 61 62 64 67 69 70
22 19 19 17 17 29 20 22 25 35 32 34 37 43 44 42 48 43 40 39 40 40 40 40 42 43 46 47 49 50 53 55 57 59 61 62 63 64 64 64 63 62 62 61
8 18 25 18 27 23 31 21 21 27 36 39 35 32 30 30 30 33 43 38 38 39 41 43 44 46 49 51 53 56 59 61 63 67 69 69 70 70 71 70 66 65 58 56
13 11 25 25 13 34 32 26 26 24 28 29 27 28 30 32 33 34 36 38 39 41 44 46 48 51 53 55 58 61 64 64 59 54 54 55 57 54 48 47 51 50 50 48
17 21 21 23 22 16 19 21 25 26 24 27 28 30 32 34 35 37 38 41 43 45 47 50 53 56 59 60 58 53 50 47 47 49 47 46 46 42 38 39 36 35 36 36
20 23 24 23 23 22 21 23 26 28 29 29 29 31 34 36 38 40 42 44 46 49 51 51 50 49 47 46 43 42 42 43 44 44 42 43 42 44 45 46 45 41 36 34
25 27 30 30 28 27 27 29 30 31 31 31 32 35 38 40 42 43 45 43 41 39 41 42 44 46 45 43 42 43 43 43 42 44 46 47 46 43 44 46 46 47 48 44
28 28 29 31 34 34 33 32 31 30 31 32 35 38 40 43 43 42 41 40 40 41 41 39 40 42 42 42 45 46 45 45 46 47 48 47 47 47 48 46 48 48 48 48
29 31 32 33 33 33 33 33 33 34 36 38 40 43 44 43 41 40 40 40 42 42 43 44 46 47 47 47 47 47 47 47 46 45 45 46 46 45 44 45 46 47 48 49
26 29 31 30 31 33 34 33 33 35 37 41 42 41 40 39 40 40 41 42 42 41 42 44 43 42 40 40 40 39 38 40 41 42 43 45 46 46 45 45 46 47 48 49
25 28 31 32 31 31 34 37 37 36 36 38 38 38 38 38 40 40 40 39 39 39 41 42 43 43 43 43 45 46 46 47 48 48 49 50 51 52 52 52 53 54 55 56
14 17 19 21 24 26 27 31 35 36 38 39 39 39 38 37 38 39 39 40 41 42 43 44 44 45 46 48 49 51 53 54 56 56 56 57 57 57 57 57 58 58 58 58
20 22 23 25 28 29 31 33 35 35 35 36 36 36 37 39 40 41 41 42 43 45 47 49 51 53 55 57 57 58 59 59 60 60 60 60 59 58 57 56 54 54 53 53
23 24 25 27 28 30 31 33 35 36 35 35 35 36 38 40 42 44 47 49 51 53 55 57 58 60 61 62 62 62 61 61 60 59 58 56 54 53 51 50 49 49 48 47
26 28 27 27 28 29 29 30 32 34 36 38 41 43 45 48 50 52 55 57 59 61 62 63 63 63 63 62 62 61 60 58 56 54 52 50 48 46 44 43 43 42 42 42
21 23 25 26 28 30 33 35 38 41 43 46 49 51 53 55 57 59 61 62 62 62 62 62 62 62 63 61 60 58 56 54 50 47 44 42 41 39 38 38 39 40 42 43
27 29 31 33 35 38 40 43 45 47 49 51 53 56 59 62 63 62 61 62 62 63 63 63 61 58 56 54 52 48 46 43 40 38 36 35 35 35 36 37 39 40 41 42

GFSNGP_500_spd_069.txt.gz
Wind_Speed
26 26 25 26 19 20 26 25 30 26 40 45 30 46 41 49 49 48 49 46 43 38 37 34 32 31 28 27 28 28 27 22 24 30 29 30 29 28 28 28 29 29 29 29
31 28 28 28 27 22 18 26 28 30 39 48 44 35 13 44 48 49 46 51 48 43 39 38 35 33 33 33 29 30 30 30 29 29 30 32 34 34 35 34 34 35 32 33
30 31 28 28 30 32 21 18 20 28 32 43 52 44 36 27 40 53 51 45 46 41 46 41 37 40 35 36 32 33 34 35 34 35 37 37 37 39 40 41 39 38 38 37
30 29 27 25 30 34 29 26 20 24 26 40 42 47 29 38 29 42 49 51 49 46 43 47 44 45 45 44 39 37 39 38 39 41 41 42 43 43 43 43 44 43 42 42
31 28 26 22 29 30 35 28 24 20 26 30 35 42 37 26 36 39 43 39 45 51 45 47 50 48 42 44 46 42 42 44 40 39 41 45 48 47 49 49 50 50 50 50
30 28 28 23 27 30 33 30 22 18 18 28 25 24 24 29 36 39 45 44 46 37 37 44 46 46 46 48 47 41 39 41 41 42 44 43 44 49 53 52 50 51 53 55
28 29 29 24 27 27 29 25 23 20 25 20 26 15 19 27 24 23 24 16 19 23 26 27 29 32 34 38 41 43 45 46 46 48 48 48 48 48 51 52 56 53 55 54
26 28 29 20 25 32 31 24 21 19 21 24 25 23 22 18 23 22 27 28 25 26 30 32 34 36 37 39 42 45 45 46 48 49 50 51 50 49 51 52 55 57 61 63
18 22 26 23 27 31 30 27 19 13 16 18 20 16 20 20 23 26 30 31 29 30 30 31 32 34 36 39 42 45 46 48 50 51 53 54 55 54 53 53 53 54 57 62
14 15 18 20 26 30 35 33 29 28 26 39 37 30 32 28 33 33 34 35 34 38 37 33 32 34 37 40 43 46 48 49 50 50 51 53 54 54 56 57 59 60 61 62
15 18 12 12 22 27 41 34 28 34 41 36 35 39 35 34 31 32 33 34 36 37 38 41 41 42 42 44 46 46 47 47 47 48 50 52 54 57 59 62 64 66 67 67
19 22 15 14 13 19 23 25 34 30 38 47 44 37 35 35 36 38 39 41 43 46 50 51 48 45 44 44 46 47 46 48 49 52 54 56 58 60 62 65 67 71 74 76
12 19 14 16 22 14 21 18 16 29 40 27 37 39 39 36 37 38 40 41 41 40 40 40 43 43 42 42 44 45 47 50 53 56 57 59 62 64 68 72 73 74 74 74
12 9 18 25 17 17 25 31 31 22 16 22 26 27 30 31 35 33 32 33 33 34 35 37 39 41 42 44 46 49 52 55 58 61 64 66 67 64 58 55 52 52 53 55
13 16 18 16 21 24 11 19 31 25 28 29 26 26 28 29 32 33 34 35 35 37 39 42 43 45 47 49 52 54 57 58 59 60 58 55 51 50 49 47 48 50 50 48
16 18 19 18 18 18 17 17 18 30 25 24 26 27 30 31 34 35 37 39 40 42 44 46 48 50 51 51 51 50 50 51 52 52 48 48 48 48 48 48 49 51 54 53
20 22 23 25 25 25 24 22 22 24 26 27 29 31 33 36 39 41 42 44 44 45 48 50 49 47 45 45 46 46 45 45 46 48 48 49 50 51 51 52 54 54 53 51
23 24 26 27 27 27 25 25 26 27 28 30 32 35 37 38 39 41 41 43 45 46 47 46 45 44 44 45 47 47 48 49 49 50 51 51 53 54 52 51 50 48 48 48
23 25 26 27 27 29 30 30 29 29 30 31 32 34 36 38 40 41 43 43 44 44 44 44 45 46 48 47 46 46 46 46 46 46 46 47 47 46 46 47 48 49 49 49
27 29 29 30 31 32 33 33 34 34 34 34 35 36 37 39 41 42 42 42 44 44 45 46 46 46 45 45 45 47 48 49 48 48 49 49 50 51 52 53 54 55 56 57
16 19 23 25 27 30 33 34 35 36 37 37 38 40 41 42 42 43 44 45 46 45 45 44 45 46 47 48 49 50 51 52 52 52 54 55 56 58 60 61 62 62 62 62
16 16 16 17 19 20 21 23 25 29 31 33 34 37 39 43 44 44 43 43 43 44 45 47 48 49 50 51 52 53 54 56 57 59 60 61 62 63 64 64 64 63 63 63
23 23 24 25 27 28 30 31 33 36 37 38 38 39 40 42 42 43 43 43 44 45 47 48 50 53 55 56 57 58 60 61 63 63 64 64 64 63 63 62 61 59 58 57
25 26 27 29 30 31 33 35 36 36 37 37 39 40 40 40 41 43 45 47 50 52 53 55 57 58 60 61 62 63 63 62 62 62 62 62 61 59 58 56 55 53 52 50
30 31 31 31 30 29 29 30 31 33 35 37 40 42 44 47 49 51 53 54 56 57 59 60 61 61 61 61 61 61 62 62 62 62 61 59 57 55 51 48 46 44 42 40
27 26 26 28 30 31 33 36 38 41 43 45 47 49 51 52 54 55 57 58 60 60 59 59 59 60 60 61 60 60 59 58 55 53 50 48 44 42 40 38 36 35 35 35
29 30 32 34 35 37 39 41 43 45 48 50 52 54 56 57 58 58 59 59 59 60 60 59 58 57 55 53 51 50 48 45 43 40 37 35 33 32 31 31 31 33 34 35

GFSNGP_500_spd_072.txt.gz
Wind_Speed
28 25 25 25 28 25 23 16 17 22 24 31 20 28 25 24 34 39 39 40 41 41 39 36 31 29 28 27 26 25 23 22 22 19 22 28 27 26 26 26 26 26 26 27
32 32 29 25 27 29 29 27 24 22 26 35 32 29 26 28 30 37 44 44 44 44 45 40 37 36 32 29 28 28 29 24 23 25 26 25 26 30 32 32 33 33 31 32
35 34 29 27 29 29 30 24 26 23 29 31 42 40 32 25 30 37 43 43 47 48 46 42 42 40 39 35 36 33 31 29 27 28 28 29 30 32 34 36 37 38 38 39
29 26 26 22 29 28 29 28 23 18 19 32 34 36 45 33 33 30 27 45 46 49 50 47 48 47 43 43 36 35 36 37 35 33 34 33 35 38 40 41 41 42 43 44
34 29 28 21 27 27 28 30 28 24 17 25 31 33 18 42 34 32 32 30 37 53 56 62 53 54 47 47 44 41 41 45 45 38 38 38 37 39 41 43 45 47 48 51
37 32 29 20 26 25 25 25 27 26 26 17 20 24 30 33 27 28 28 36 39 42 39 52 54 56 56 56 52 50 49 46 47 49 47 46 43 41 41 40 45 49 53 55
30 30 28 18 22 26 23 22 26 25 24 18 18 17 19 24 23 22 26 33 40 40 39 45 41 46 50 54 53 50 51 52 51 48 47 42 42 42 46 47 48 49 52 55
23 25 23 19 22 25 24 22 22 20 19 20 21 20 12 18 27 23 16 20 28 28 29 31 38 39 35 35 34 38 38 37 37 39 41 43 45 44 45 46 47 48 49 51
17 18 18 16 20 23 22 23 23 18 17 13 11 11 20 16 12 20 24 21 21 21 24 25 26 27 26 26 27 29 31 33 35 37 39 42 44 45 46 46 46 45 46 47
9 15 15 16 17 21 23 22 26 26 24 24 27 29 24 36 32 33 32 24 21 23 26 29 31 31 30 27 27 30 32 35 37 40 43 44 46 47 47 48 49 51 52 54
12 14 15 12 13 18 21 21 28 29 30 28 26 26 40 38 29 21 19 22 21 24 29 32 34 33 33 36 39 42 44 46 48 47 47 49 49 49 50 52 53 54 56 58
12 13 14 13 10 14 18 20 23 36 38 37 38 31 31 32 28 24 28 25 27 30 33 36 37 38 39 42 44 45 46 46 47 45 45 46 47 49 51 52 54 56 59 62
14 14 12 16 13 13 10 18 22 32 38 41 44 41 32 40 44 39 34 33 34 35 36 35 35 36 36 37 37 36 37 38 39 41 43 45 48 50 53 56 59 62 64 67
10 9 12 18 17 15 13 10 16 24 20 26 32 35 36 32 29 28 28 30 31 31 32 32 33 34 34 36 36 37 40 42 44 47 49 52 53 55 58 60 61 62 61 57
11 14 14 14 13 19 25 21 19 22 30 30 27 22 24 29 30 28 28 30 33 34 35 36 36 38 39 41 42 44 46 47 49 52 53 55 56 56 56 55 54 53 49 51
16 16 13 15 14 13 14 15 16 20 19 24 26 28 29 32 33 35 34 34 37 37 39 41 42 43 45 47 48 50 51 52 53 53 53 54 53 53 52 51 52 52 55 56
18 20 20 20 21 22 21 22 22 22 23 23 25 24 28 32 34 35 37 39 41 41 43 45 47 48 50 52 53 53 52 52 51 51 51 52 53 53 54 55 53 54 57 58
22 24 25 27 26 26 27 27 28 26 27 30 32 34 35 36 37 38 39 41 43 45 47 49 50 51 52 52 52 52 52 51 52 53 54 53 52 53 53 53 52 53 53 54
25 27 29 30 31 31 31 32 31 30 31 32 32 35 36 36 37 38 40 41 43 45 46 47 49 49 50 51 51 51 52 52 53 53 53 53 54 55 55 55 56 55 56 56
21 23 25 27 28 28 28 30 31 31 32 33 34 34 35 38 40 41 42 44 45 46 47 48 48 50 51 51 51 51 51 52 53 54 55 56 57 58 57 58 59 59 60 61
16 16 18 19 22 24 26 29 31 33 35 36 37 37 37 38 40 41 42 43 45 46 47 48 49 49 49 49 49 50 51 53 54 55 56 58 59 60 61 62 63 64 64 65
19 20 21 23 24 25 25 27 28 30 31 31 32 34 36 39 41 43 43 43 44 45 46 47 48 49 49 50 51 52 53 55 57 58 61 62 62 63 64 65 65 66 66 67
23 25 26 27 28 30 31 33 34 35 37 37 38 39 41 41 42 43 43 44 45 46 47 47 48 50 52 55 56 58 60 60 61 62 64 64 64 65 65 65 65 65 66 66
28 30 32 33 35 36 37 39 40 41 41 41 40 39 38 39 41 42 44 46 49 52 54 55 56 57 58 60 61 62 62 62 63 63 63 63 64 64 64 65 65 64 63 61
35 36 36 35 35 35 35 34 33 34 36 38 41 43 45 47 49 50 52 54 55 57 58 59 60 61 62 62 62 62 62 63 63 63 63 62 62 61 60 58 56 53 49 46
29 29 30 31 32 34 36 37 39 41 43 45 46 48 50 52 54 55 57 58 59 60 60 60 61 61 61 61 61 60 59 58 57 56 54 53 51 49 47 44 41 38 36 34
32 32 34 35 37 38 40 42 44 46 48 50 51 52 53 54 55 56 57 58 60 60 60 60 60 59 57 55 54 52 50 48 46 44 42 39 37 36 34 33 32 31 30 31

GFSNGP_500_spd_075.txt.gz
Wind_Speed
21 24 20 22 25 25 24 19 21 16 20 21 25 14 20 22 39 38 35 35 38 33 30 33 36 36 34 31 30 28 27 23 23 21 19 17 18 18 20 23 23 23 23 24
25 31 29 23 23 26 29 28 18 26 17 24 28 29 15 23 29 35 38 34 39 40 37 38 41 40 38 36 34 31 27 27 29 26 21 21 21 20 20 21 23 24 26 27
34 32 31 28 25 25 28 29 29 21 24 21 29 26 29 20 26 28 32 39 40 42 43 42 40 41 41 38 33 31 27 37 29 27 24 22 22 22 23 24 25 27 29 30
26 29 32 26 26 26 27 28 28 24 25 22 23 23 27 20 28 26 27 33 36 40 44 45 45 45 44 43 40 38 30 32 32 31 29 27 26 26 27 28 30 31 32 34
26 26 25 20 23 25 23 23 24 28 26 21 18 25 25 23 9 29 23 25 27 34 50 46 42 47 49 49 56 39 43 41 39 36 36 35 35 37 34 33 36 37 38 40
21 24 21 20 20 23 20 17 23 28 31 22 20 16 26 23 23 9 19 27 32 28 26 34 57 57 45 45 45 48 50 46 46 43 43 42 39 40 44 42 42 45 45 45
24 28 26 25 25 23 21 19 21 24 25 24 19 12 17 16 16 21 24 30 31 31 34 32 31 44 54 52 59 57 54 58 52 52 53 54 51 47 50 50 51 50 49 48
15 22 26 24 23 23 20 19 20 21 21 21 18 16 13 14 18 24 25 27 31 32 34 35 36 36 40 42 47 52 56 59 58 58 55 48 43 44 46 42 43 45 47 50
19 22 21 18 18 20 17 18 19 20 17 20 19 14 14 17 15 18 18 20 20 25 29 24 25 27 29 31 33 35 34 33 28 29 30 33 33 34 36 37 39 42 45 47
9 10 14 14 16 17 17 18 18 21 21 21 15 15 18 24 22 23 28 31 29 22 21 22 17 18 20 22 24 26 28 29 31 29 30 31 32 34 38 40 43 45 47 48
11 9 13 13 13 15 16 17 19 21 24 25 22 25 29 21 27 29 28 26 28 28 26 25 22 22 22 23 26 30 32 33 35 34 38 41 44 47 46 45 45 47 47 48
6 7 9 11 11 10 13 14 16 21 25 27 28 30 20 22 18 18 18 20 20 17 17 18 19 21 25 28 31 33 35 36 38 39 40 41 42 43 43 43 44 46 48 50
7 8 5 6 11 9 9 7 11 21 23 31 33 37 34 32 28 22 23 21 29 32 33 30 31 31 32 30 30 31 32 35 35 36 37 38 40 41 43 45 47 49 51 52
6 3 3 6 9 10 7 8 7 7 18 28 29 38 41 37 33 32 33 30 27 26 28 29 29 29 29 31 32 32 33 34 37 39 40 42 43 45 47 48 50 51 52 54
6 7 9 6 5 6 11 13 15 19 17 17 24 24 25 24 24 22 22 24 27 25 25 27 29 30 32 34 35 37 39 40 42 43 45 47 48 50 51 52 53 55 56 56
12 9 8 9 15 13 11 12 16 18 19 21 21 24 31 31 30 31 32 31 32 35 36 37 37 37 38 39 40 42 44 47 49 51 53 54 54 54 54 56 56 57 56 56
16 17 16 17 18 18 18 19 19 21 22 22 24 25 25 26 28 29 31 33 34 36 38 39 41 43 45 46 47 49 51 54 56 56 56 55 55 56 56 56 57 57 57 57
17 20 21 23 23 25 26 28 30 29 30 30 31 32 33 34 35 37 38 40 41 42 44 45 47 48 49 50 51 53 54 54 53 54 55 55 56 56 57 57 57 57 57 57
22 23 26 28 30 32 34 33 34 36 36 36 37 37 37 38 39 41 42 43 43 45 46 45 46 47 49 51 51 52 54 54 55 55 56 57 57 58 58 57 57 57 58 59
24 24 25 28 30 32 34 35 37 38 38 37 36 38 39 40 41 42 43 44 46 47 48 49 51 52 53 54 54 54 53 53 54 55 56 56 55 55 56 57 57 58 59 61
18 19 20 21 21 22 24 25 27 29 31 32 34 35 36 37 38 40 42 44 45 46 48 49 50 52 53 53 52 51 51 53 54 54 55 55 55 56 58 59 60 60 61 63
20 21 23 25 26 27 28 29 30 32 33 35 36 38 39 41 42 43 43 44 46 48 49 50 49 50 50 50 50 51 51 53 54 56 58 59 60 61 62 63 64 64 65 66
25 26 27 27 29 31 32 34 35 36 37 39 40 42 43 44 44 44 44 45 46 47 47 47 48 49 51 52 55 57 59 60 61 62 63 64 65 65 66 66 66 66 66 67
27 28 30 33 36 38 37 36 36 37 38 38 39 38 38 39 40 42 44 46 48 50 51 53 55 57 58 59 61 63 64 66 67 67 67 67 67 67 66 66 66 66 66 65
29 28 28 29 31 32 33 33 34 36 38 39 40 41 43 45 47 49 50 52 54 55 57 59 61 62 64 65 66 67 67 68 68 68 68 67 66 65 64 63 62 60 59 57
29 30 31 31 33 34 36 38 40 41 43 45 47 48 50 51 53 55 56 57 58 60 61 62 63 64 65 66 67 68 68 67 66 65 63 60 58 56 53 50 48 46 44 41
34 35 34 34 35 36 38 41 43 45 46 47 47 48 49 51 52 53 55 56 57 58 59 59 60 60 59 59 58 56 55 53 52 50 49 47 45 44 42 40 38 36 35 34

GFSNGP_500_spd_078.txt.gz
Wind_Speed
34 25 33 27 26 25 25 27 24 25 23 28 24 20 17 19 32 37 35 37 42 36 37 46 45 44 45 38 30 32 34 28 26 26 25 23 22 21 19 17 20 21 20 21
29 32 24 25 22 22 27 30 28 29 24 26 26 24 26 16 23 41 37 37 38 37 35 44 49 48 45 39 39 41 38 32 29 29 27 26 24 21 19 18 18 18 19 21
32 34 24 22 21 20 23 28 30 36 28 24 17 22 25 25 22 16 33 36 38 38 40 37 28 50 48 44 45 43 40 35 32 33 34 34 30 24 24 22 21 21 21 21
27 30 24 24 23 24 24 26 27 30 31 25 21 20 15 17 16 17 21 37 44 43 39 41 39 38 44 44 44 42 38 36 35 30 38 31 27 26 26 26 25 24 24 24
16 23 27 24 22 25 23 26 26 24 30 28 22 18 19 17 15 19 24 42 26 25 37 44 46 44 43 44 44 43 41 40 38 37 45 28 29 30 32 31 30 30 31 33
15 16 16 16 16 23 26 25 23 22 24 29 27 21 17 27 25 21 13 25 20 24 30 40 41 52 48 47 46 46 46 45 40 54 46 34 37 38 37 38 39 35 37 41
17 14 14 18 16 15 26 23 21 21 22 27 24 27 15 13 20 21 24 18 22 22 21 23 27 28 30 55 50 54 58 67 62 48 47 49 48 50 40 45 46 48 47 46
12 15 19 21 19 16 20 25 20 19 21 23 20 23 15 16 23 20 18 23 24 25 27 28 27 29 32 30 35 47 62 58 56 58 57 56 59 48 50 52 55 58 56 49
13 12 18 19 19 20 19 20 20 20 20 19 19 20 16 19 10 17 22 23 25 25 26 30 30 31 32 34 35 36 40 42 47 50 50 51 47 41 45 44 46 45 42 42
14 10 17 25 25 19 18 21 20 20 20 16 18 21 17 17 14 18 20 21 22 23 22 21 26 27 30 32 32 32 30 29 29 27 26 24 26 30 31 33 35 36 38 41
16 16 13 19 20 20 22 20 19 19 20 22 17 20 22 21 22 23 29 27 26 26 26 27 23 23 23 23 23 22 20 20 21 22 25 28 28 29 31 34 38 42 45 48
19 8 7 13 15 13 13 13 14 19 22 27 26 26 20 20 15 15 18 23 30 28 28 28 29 26 23 19 20 22 23 24 26 28 29 32 33 35 36 38 40 43 46 48
7 9 8 9 11 11 7 8 14 15 18 25 30 32 28 26 24 19 19 17 21 20 21 23 23 25 27 28 28 30 30 30 31 33 35 35 36 38 39 40 41 43 46 49
11 10 9 9 11 12 6 10 7 9 10 16 21 29 33 34 36 32 25 25 28 27 28 29 32 30 29 29 29 31 33 35 37 37 38 39 41 42 44 45 46 48 49 51
11 10 9 8 6 6 8 13 11 15 12 12 14 13 17 25 30 28 25 22 23 23 25 26 25 27 29 30 31 33 35 37 38 40 42 44 45 47 48 49 50 52 54 57
9 8 7 6 6 8 9 10 11 13 15 17 18 18 19 21 23 29 32 31 29 30 30 30 31 34 37 39 40 42 43 44 45 46 47 48 49 50 51 54 57 59 60 61
14 15 16 16 14 15 14 15 16 18 19 20 22 23 24 25 27 28 28 30 31 32 34 36 38 40 41 43 45 47 48 49 50 51 52 54 56 58 60 60 61 62 62 62
18 19 18 19 21 22 23 23 24 26 28 29 31 32 33 34 34 36 37 38 39 40 41 42 43 44 46 48 49 51 53 54 54 55 58 57 58 59 60 60 61 61 61 62
17 19 21 23 25 26 28 30 31 33 34 36 37 38 40 41 41 42 43 45 46 46 47 48 49 50 50 51 53 53 54 56 57 58 59 60 61 62 63 63 62 61 62 62
21 22 22 24 26 28 29 30 32 34 36 37 38 40 43 43 44 45 46 47 48 49 50 51 52 53 54 55 55 56 56 57 58 59 59 60 60 60 60 60 61 61 61 61
18 19 20 22 23 24 26 27 28 29 30 31 33 34 35 37 39 40 41 42 43 43 45 46 48 49 51 52 53 54 55 56 57 58 58 58 59 59 60 61 61 62 63 63
18 21 23 25 27 29 30 30 31 33 34 35 37 38 39 40 42 43 45 46 46 47 48 50 51 52 52 53 53 54 54 55 55 56 57 59 60 62 63 64 65 66 67 67
24 25 26 27 28 30 31 33 36 38 39 39 39 40 41 42 43 44 45 45 45 46 46 46 47 48 49 51 53 54 56 58 60 61 63 64 65 66 68 69 70 71 72 72
26 27 28 28 28 29 31 32 34 35 36 37 39 39 41 42 43 44 45 47 48 49 51 52 53 54 56 57 59 60 62 64 65 67 69 70 71 72 73 73 73 73 73 73
25 26 27 28 29 30 32 34 36 38 39 41 43 44 46 47 48 49 51 52 53 55 56 57 59 60 62 63 64 65 66 67 68 69 71 72 73 73 74 73 71 69 67 64
30 32 34 35 36 36 37 38 40 41 42 44 45 46 48 50 52 53 55 56 57 58 59 59 60 61 62 63 64 65 66 66 66 66 66 65 63 61 59 58 56 54 52 50
34 36 37 39 40 42 44 44 42 42 43 45 46 48 50 52 53 55 56 57 57 58 58 58 57 56 55 53 51 49 48 47 46 45 45 44 44 44 43 43 44 44 43 42

GFSNGP_500_spd_081.txt.gz
Wind_Speed
36 36 31 22 24 24 28 27 26 22 26 26 30 25 24 21 10 26 37 39 39 40 40 43 42 44 43 43 39 37 33 30 31 28 25 27 26 26 26 25 24 22 21 19
29 33 34 34 29 27 30 30 28 27 25 28 27 25 29 27 22 19 32 39 38 40 39 39 41 36 47 45 43 41 38 39 35 33 30 29 29 27 27 27 25 24 23 22
24 28 27 32 30 36 33 33 32 28 31 28 26 27 27 30 27 19 19 39 39 39 42 44 39 44 49 47 47 42 41 42 40 36 34 32 31 31 30 29 28 28 24 23
15 33 30 37 25 18 24 24 27 29 31 31 29 32 28 21 21 15 21 23 40 37 41 43 40 43 48 50 50 46 44 43 42 40 38 35 34 32 39 37 35 33 30 26
6 27 27 22 29 16 14 18 20 25 26 28 34 33 26 25 18 12 15 20 20 42 43 44 43 40 36 48 53 51 46 47 45 41 37 38 39 29 42 41 35 33 32 31
15 20 18 19 22 20 19 24 22 24 25 27 27 27 27 24 24 22 17 10 15 17 40 42 42 41 40 41 38 53 49 50 52 52 42 40 39 38 40 35 31 34 37 36
18 17 26 26 18 16 20 24 24 25 24 22 25 24 25 25 23 20 25 25 19 16 20 27 34 50 41 49 46 44 45 47 50 46 44 44 44 40 50 47 39 39 41 43
13 15 18 18 19 18 15 16 23 26 23 21 22 24 23 27 26 16 21 21 20 22 17 24 26 24 34 35 40 48 55 55 52 52 48 48 56 58 53 68 42 50 50 55
14 14 14 15 13 19 17 14 18 23 24 23 22 22 22 23 27 18 23 26 20 21 24 24 24 25 25 25 32 38 36 36 40 53 64 67 67 67 63 64 59 60 62 66
13 15 12 14 18 20 18 17 18 20 22 22 21 18 21 22 22 21 17 15 16 18 20 21 25 28 29 29 30 31 32 34 35 36 35 37 38 44 39 42 40 41 46 50
16 14 11 12 15 23 29 29 25 20 20 21 18 16 20 22 21 23 18 21 21 20 22 23 23 23 25 29 31 32 34 34 36 37 35 33 29 23 23 24 27 28 30 31
16 17 13 13 17 14 18 20 22 19 19 21 26 18 15 21 23 19 19 18 28 25 28 27 27 24 24 26 27 28 28 28 28 29 27 25 24 25 27 30 32 33 35 37
25 18 13 12 10 11 10 11 13 14 18 19 25 26 16 17 20 18 20 19 24 23 25 26 27 24 24 25 29 26 28 29 28 28 30 32 31 33 36 39 40 41 42 44
15 13 10 10 11 12 13 12 13 20 15 16 19 26 31 27 25 25 24 21 23 23 25 26 27 27 27 26 32 32 31 30 29 32 35 35 37 40 42 44 45 47 48 50
12 13 13 12 11 14 12 11 12 13 14 13 11 10 13 19 26 30 31 30 29 28 30 31 30 32 35 35 32 33 33 34 34 35 37 40 42 43 45 47 49 51 52 53
13 11 12 9 7 6 7 9 13 15 16 17 17 18 18 19 20 21 23 26 30 30 31 32 35 36 34 34 34 36 37 38 40 42 43 45 47 50 52 53 54 56 57 58
15 11 10 10 10 12 14 14 15 16 17 18 20 21 22 23 24 26 28 29 30 30 32 35 37 39 41 41 43 44 45 47 47 49 50 51 53 55 56 57 59 61 62 63
10 13 14 15 17 18 19 21 22 24 25 27 28 29 29 31 33 35 36 36 37 37 38 39 40 41 43 45 47 48 50 51 53 54 55 56 58 59 61 62 63 64 66 66
10 13 16 18 20 23 25 26 28 30 31 32 34 37 38 39 40 40 41 43 45 46 46 46 47 49 50 51 52 54 55 56 57 58 59 61 62 63 64 65 66 67 67 67
14 17 22 23 25 26 26 27 27 28 29 31 32 33 34 36 38 41 43 45 47 48 49 49 50 51 53 54 55 56 57 57 59 60 61 62 62 63 63 63 63 64 64 64
24 26 23 22 22 24 25 27 28 29 31 32 33 35 36 37 38 39 40 41 43 44 45 46 47 48 49 50 51 53 54 54 55 57 58 59 60 61 62 63 64 65 65 65
20 19 21 24 27 29 30 31 32 33 34 35 37 39 41 43 44 45 46 46 48 49 50 51 51 52 53 53 54 55 55 56 56 57 58 58 59 60 61 63 64 66 67 69
20 23 26 27 28 29 30 31 32 34 36 37 39 40 41 42 43 44 45 46 46 47 48 49 49 50 51 51 52 54 55 56 58 60 61 62 63 64 65 67 68 70 72 73
20 23 25 28 30 31 33 34 35 37 39 40 41 42 44 46 48 49 50 50 51 52 53 54 54 55 56 57 58 59 60 61 62 63 64 65 67 67 69 70 71 72 74 75
26 29 31 32 35 38 39 40 41 42 43 44 45 46 47 48 49 50 52 54 55 57 58 59 60 61 62 62 62 63 63 63 64 65 66 67 68 69 70 69 68 67 65 63
27 30 33 35 37 39 40 41 44 45 44 43 44 45 47 48 50 51 53 54 56 57 58 59 61 62 62 63 63 64 64 64 64 62 61 58 56 53 51 49 47 47 46 46
33 37 39 41 42 43 46 46 43 43 45 47 48 50 52 54 55 56 56 57 57 57 57 57 57 57 56 55 53 51 48 46 45 43 43 43 43 43 43 42 42 41 42 43

GFSNGP_500_spd_084.txt.gz
Wind_Speed
45 39 33 25 32 35 32 28 33 28 28 24 23 24 20 18 19 21 19 22 32 35 37 39 40 41 41 41 38 38 35 32 32 25 25 26 22 22 22 23 24 23 21 20
42 46 42 30 21 28 26 24 28 28 30 31 24 27 20 18 20 22 21 20 25 39 39 42 41 43 45 43 43 40 46 39 36 37 32 30 26 26 24 24 27 27 25 24
32 33 43 43 28 29 21 8 11 23 28 26 27 28 21 19 18 21 22 16 28 32 43 43 43 45 45 42 41 44 45 43 41 40 38 35 32 32 29 27 29 31 30 28
28 24 29 35 32 34 25 24 25 27 28 27 28 28 27 25 21 19 19 21 18 34 37 40 43 46 46 44 42 46 46 45 45 44 41 40 37 37 33 31 29 34 34 33
22 17 16 23 34 31 28 26 30 35 29 30 33 29 28 28 24 22 20 17 18 16 40 43 45 42 43 44 42 43 51 47 48 46 42 40 40 39 39 35 35 30 34 40
22 7 18 18 28 29 33 29 17 30 25 25 24 20 23 24 25 21 24 30 22 14 24 40 33 42 42 40 42 44 52 44 48 47 44 44 44 43 39 33 34 31 39 42
9 1 7 20 27 24 29 32 21 16 17 21 19 17 20 21 21 22 22 23 24 28 18 20 51 43 41 49 45 50 46 52 57 56 50 59 53 50 44 39 39 38 42 49
7 4 5 9 18 15 12 15 14 18 23 23 23 19 20 21 20 21 21 23 23 24 22 20 23 26 35 48 49 47 52 44 61 60 58 55 61 62 45 47 47 45 44 51
9 9 11 11 11 12 14 15 12 13 17 21 24 23 21 23 21 21 22 25 22 24 24 25 21 19 22 24 34 41 57 59 58 56 48 47 50 49 53 61 58 51 52 58
20 9 19 14 14 13 14 17 20 13 12 20 21 23 25 21 22 20 19 21 28 22 19 19 18 19 18 20 20 23 27 32 31 34 41 43 39 44 46 52 58 58 56 59
14 6 10 12 12 13 15 19 22 23 22 20 22 23 21 18 17 19 21 17 23 19 15 14 17 18 20 20 22 25 26 28 30 29 32 34 35 36 37 37 36 35 37 36
17 13 12 10 9 11 17 16 18 23 23 21 19 18 15 16 16 19 23 20 22 24 21 20 21 23 23 21 22 22 23 24 25 26 24 23 24 27 27 28 28 28 26 27
12 15 15 14 11 11 7 10 10 13 14 15 16 17 21 18 16 16 17 18 19 20 22 25 23 24 25 26 27 26 26 30 27 22 23 26 27 27 27 28 30 30 32 34
16 22 23 15 12 9 10 11 11 12 13 14 16 15 19 26 21 18 20 20 20 20 21 21 22 22 21 24 23 23 24 24 28 30 30 30 31 32 33 35 35 37 39 42
18 16 14 11 9 9 12 11 10 11 14 18 15 15 15 16 19 24 28 29 29 30 30 29 29 29 29 30 34 32 34 34 38 37 35 36 37 38 39 40 43 45 47 48
16 13 13 10 9 9 8 7 9 10 12 13 16 18 18 17 18 19 20 21 22 25 27 30 31 32 35 37 37 37 38 41 42 40 41 42 42 43 44 46 48 50 52 53
11 8 7 6 6 5 9 12 13 15 16 16 18 19 20 22 23 24 25 26 27 29 30 32 33 34 36 39 42 42 43 44 45 46 47 48 49 51 53 54 55 56 58 59
8 7 7 9 11 13 14 16 18 20 21 23 25 28 29 30 31 32 33 33 35 37 38 39 40 41 42 42 43 44 46 47 48 49 50 51 52 54 55 57 59 60 62 63
2 4 7 10 13 17 22 26 28 29 29 30 31 33 35 36 38 40 41 43 45 46 46 47 47 48 49 50 51 52 53 54 54 55 56 57 58 59 60 61 62 63 64 65
8 10 14 18 22 28 32 30 27 26 28 29 30 31 32 34 36 37 39 40 42 42 43 46 49 52 54 56 57 57 57 58 59 60 60 60 60 60 61 61 61 62 62 63
18 22 25 29 31 26 25 27 29 31 32 33 35 36 38 39 40 41 42 44 45 46 47 49 49 50 51 52 53 55 56 57 58 58 59 60 61 62 62 62 63 64 65 66
25 24 22 21 25 28 29 31 32 34 35 37 38 39 41 42 44 46 47 48 50 50 50 51 52 53 54 54 55 56 58 59 59 60 61 61 62 63 63 63 64 64 65 66
14 17 19 22 25 27 30 32 35 37 39 41 42 44 44 45 46 47 47 50 51 52 52 53 54 54 55 55 55 56 56 57 58 59 59 61 62 63 64 65 66 67 68 69
14 18 20 22 25 28 30 33 37 40 43 45 47 47 48 49 50 51 52 52 53 53 54 56 57 58 59 60 60 61 61 62 62 63 63 64 64 65 65 66 66 67 68 69
15 19 24 28 32 35 38 41 43 46 47 48 48 46 45 45 46 47 49 51 53 54 55 57 58 59 59 60 61 62 63 63 64 64 64 65 65 66 66 67 67 66 65 63
21 25 29 33 36 40 42 44 48 49 49 47 45 46 49 50 51 52 54 56 57 58 59 60 60 61 62 62 63 63 63 64 64 64 63 62 61 59 56 54 52 50 48 48
27 30 34 38 41 44 46 48 50 50 48 49 50 49 52 55 57 58 57 54 52 50 49 48 48 48 48 48 48 48 47 47 46 45 44 44 44 43 43 43 43 43 43 42

GFSNGP_500_spd_087.txt.gz
Wind_Speed
34 32 44 42 46 36 37 38 36 23 27 30 24 23 8 15 13 16 18 17 18 22 28 32 33 36 38 36 35 33 30 33 33 30 27 25 25 22 20 19 19 17 17 17
24 29 47 45 47 40 42 26 34 23 19 29 28 25 22 17 14 11 11 15 15 22 28 31 33 37 39 37 37 37 35 35 35 33 32 31 28 28 26 22 20 20 19 19
12 11 35 53 31 31 23 20 33 36 24 28 29 28 24 28 15 15 10 12 15 16 21 31 33 38 41 41 41 41 39 39 37 36 36 36 34 31 31 28 25 23 22 23
9 12 26 43 31 26 23 19 22 15 18 16 23 22 21 22 23 22 17 13 14 16 20 26 36 40 43 46 45 44 42 42 45 44 45 46 40 37 35 33 31 28 27 27
7 11 18 19 22 23 25 24 28 28 16 18 19 20 23 24 23 23 20 18 15 14 17 22 27 34 46 48 46 44 47 42 46 40 46 49 46 43 38 37 37 36 32 33
12 13 20 19 22 25 28 26 22 24 23 24 27 26 24 27 26 26 20 20 19 19 18 15 29 38 37 48 52 49 45 39 48 44 48 46 48 47 44 42 41 41 39 35
7 9 6 7 24 41 41 36 31 23 18 22 22 20 18 18 20 24 21 17 19 16 17 17 19 22 39 39 46 49 50 46 47 43 45 50 54 49 49 47 49 46 43 39
1 10 6 7 21 25 26 26 27 22 25 21 17 17 17 15 16 17 19 20 18 18 18 19 18 19 23 43 49 46 49 50 50 50 51 51 53 47 51 53 57 54 53 47
6 14 10 12 24 20 16 12 10 8 9 13 15 19 22 20 19 18 19 22 21 18 15 18 20 20 24 20 32 52 53 60 61 60 54 49 47 66 59 65 69 74 67 61
7 6 8 14 15 15 14 13 13 13 13 13 18 20 18 21 23 22 21 22 22 20 20 20 19 22 19 19 17 20 21 31 41 46 51 52 54 63 59 63 57 53 46 56
11 1 7 9 10 11 11 10 11 12 14 17 17 17 20 23 22 22 22 22 23 19 17 16 18 18 14 13 15 15 16 18 21 22 21 22 23 28 31 35 36 35 40 45
8 6 1 4 5 5 5 10 13 13 15 19 21 19 17 17 16 18 19 19 20 21 20 19 19 20 18 17 20 20 18 18 18 18 17 20 23 26 28 28 28 29 32 34
3 6 10 7 4 6 9 10 9 9 12 15 14 15 14 19 15 16 16 17 17 18 20 20 20 21 25 26 25 23 21 22 22 23 21 20 20 22 24 24 25 25 27 27
8 8 10 13 13 12 11 9 7 9 11 13 12 12 13 14 22 19 16 16 16 16 16 17 19 20 22 24 23 22 22 21 21 21 23 24 24 24 26 27 29 30 31 33
12 14 13 12 14 12 10 10 10 11 10 13 15 18 16 16 16 17 20 22 25 27 27 27 26 24 25 26 26 28 28 29 30 32 31 33 36 36 37 37 37 38 40 41
13 16 11 11 11 8 6 5 6 8 7 9 12 13 14 16 18 18 18 20 21 23 24 24 25 27 29 31 32 34 37 39 40 41 41 41 43 44 45 44 44 46 47 49
10 12 12 8 5 5 4 8 11 12 14 16 18 20 21 21 23 24 26 27 27 28 28 29 30 31 32 33 34 36 37 40 43 44 45 47 48 49 49 49 50 51 52 54
7 7 6 3 3 4 7 10 14 18 21 25 27 26 27 28 29 32 34 35 37 39 39 40 40 40 40 41 42 43 44 45 45 46 47 48 49 50 51 52 54 55 56 56
5 4 3 3 6 10 14 19 23 28 31 31 28 28 30 31 33 35 37 38 40 42 44 46 47 49 50 51 52 53 53 54 54 53 54 55 55 57 58 59 59 59 62 63
4 5 7 10 14 19 23 27 30 25 26 28 30 31 33 34 36 39 41 42 44 45 46 47 48 48 49 50 51 51 52 52 54 55 56 57 59 60 61 61 61 62 63 63
8 11 15 20 21 19 18 22 23 25 27 29 31 33 36 38 40 42 45 47 47 48 50 50 51 53 53 54 56 57 58 58 59 59 60 60 60 60 61 61 61 61 62 63
15 13 11 12 13 15 18 20 22 25 28 30 33 36 39 43 46 49 50 50 50 50 52 52 53 54 54 54 54 55 56 57 57 58 59 60 61 61 62 62 63 63 64 64
5 6 9 11 13 15 18 22 27 30 34 37 40 43 46 48 50 50 52 54 55 55 55 54 55 55 56 57 58 58 59 59 60 60 61 62 63 64 65 66 66 67 68 69
7 10 13 17 19 22 24 28 32 36 40 44 46 49 52 54 51 49 50 50 50 51 52 53 55 56 57 57 58 59 59 59 60 61 62 63 64 65 65 66 67 67 68 68
15 18 21 23 26 28 32 35 38 42 46 49 51 53 55 54 53 52 52 53 53 54 56 57 58 59 60 61 62 63 63 63 64 64 64 65 65 66 66 66 67 67 67 67
20 23 26 29 32 34 37 40 43 46 49 51 51 53 52 53 55 57 60 61 61 60 58 56 55 55 55 55 55 55 56 57 57 58 58 58 58 57 57 57 56 55 55 54
26 29 32 35 38 41 43 46 48 51 53 54 55 53 52 57 60 58 54 50 48 46 45 44 44 44 44 44 44 45 46 46 47 47 47 47 47 47 47 47 46 46 46 46

GFSNGP_500_spd_090.txt.gz
Wind_Speed
37 32 33 41 49 57 55 47 36 34 23 9 20 27 23 21 8 12 14 16 15 14 19 26 30 29 28 27 24 23 25 30 34 33 33 32 30 25 22 19 20 20 18 16
22 23 33 37 45 54 60 50 46 41 40 26 15 25 25 25 14 10 11 13 18 13 15 20 27 33 34 31 28 27 29 32 28 32 35 35 30 27 26 24 22 21 19 17
28 20 21 25 30 46 40 46 44 22 22 37 35 17 20 23 16 12 11 7 11 13 13 20 24 33 37 37 34 34 34 34 35 32 36 38 34 31 30 29 27 24 24 21
21 14 12 8 13 33 37 41 27 30 26 32 32 30 18 21 19 15 16 14 11 9 14 14 23 30 35 36 36 36 37 37 38 38 36 37 36 34 34 34 32 29 28 26
10 8 7 11 16 16 24 28 28 23 17 12 17 20 12 13 14 13 12 12 12 13 14 14 20 28 33 36 38 38 40 40 40 40 40 38 37 38 38 38 38 39 34 33
12 9 4 11 21 22 24 27 35 17 15 13 11 12 9 13 13 15 16 14 15 16 17 17 17 16 27 32 38 41 42 44 44 46 47 35 44 43 45 48 43 45 42 39
4 3 4 8 20 23 22 33 27 22 12 13 8 10 14 15 13 13 16 18 15 16 19 17 19 16 20 30 31 36 42 49 49 51 51 49 45 50 42 46 43 46 47 44
6 7 2 2 26 11 32 21 38 18 18 13 12 13 16 15 15 15 14 15 17 16 21 21 18 20 17 19 21 37 44 45 53 58 53 45 53 44 43 44 51 55 48 50
1 12 6 2 16 16 26 29 18 19 17 20 18 19 13 16 17 17 17 17 17 20 22 23 19 19 20 18 23 21 31 41 45 47 53 56 54 52 50 52 63 47 56 56
7 3 5 8 14 14 12 13 12 10 8 10 11 14 16 19 20 20 21 20 20 21 22 25 26 22 19 22 22 22 19 23 31 36 45 54 55 60 57 58 60 52 60 61
3 1 6 6 12 12 11 10 11 9 7 9 12 14 16 18 19 23 23 23 23 23 24 25 24 23 20 20 23 22 20 18 20 19 24 30 35 40 45 51 46 46 55 60
1 3 6 9 7 8 9 11 10 10 9 5 8 15 20 20 20 24 24 25 24 25 24 23 24 23 21 18 18 15 15 16 16 18 19 23 26 28 32 34 34 34 35 39
3 6 8 9 7 5 6 6 7 8 5 5 6 8 12 14 15 20 19 18 21 21 22 21 21 23 26 23 22 23 23 23 22 23 23 24 23 26 30 31 30 30 31 32
5 3 9 12 8 6 5 7 8 7 7 9 8 10 10 11 13 14 21 21 18 16 18 21 19 17 19 20 21 23 24 24 25 25 25 25 26 28 29 30 32 32 32 31
11 9 10 9 10 11 10 10 9 9 8 8 9 9 12 15 18 20 19 19 21 23 24 25 27 28 29 27 26 26 27 27 27 29 29 30 32 32 33 34 35 36 36 36
11 14 15 13 8 8 8 7 6 6 7 8 10 12 14 15 16 17 19 22 23 24 24 24 25 26 28 29 30 32 33 34 35 36 37 38 40 41 41 41 43 43 44 45
13 13 12 10 8 7 9 8 5 6 10 11 14 17 20 22 23 24 26 27 28 30 32 33 35 35 35 36 36 36 36 36 37 38 39 41 42 43 44 46 47 48 48 50
10 12 11 11 9 6 5 6 9 13 17 20 24 26 28 27 27 29 31 32 34 37 39 40 41 42 44 46 46 47 48 48 47 48 48 48 48 48 49 49 50 50 51 52
8 8 7 5 4 3 8 13 17 21 22 23 22 23 25 27 29 30 32 34 36 39 40 42 44 45 46 48 49 50 51 53 54 55 56 56 56 56 57 58 57 57 56 57
8 6 3 2 7 12 16 15 14 16 19 20 22 24 26 28 29 32 34 36 39 42 45 48 50 51 52 52 53 54 55 55 55 56 56 57 57 57 58 58 59 60 61 61
0 4 8 11 8 8 10 11 12 14 16 19 23 25 28 32 36 40 42 43 46 49 51 53 55 56 56 57 57 57 57 57 57 58 57 58 59 59 60 60 61 62 63 65
5 4 3 5 7 10 12 15 18 21 24 27 30 33 36 40 43 45 46 49 53 56 57 56 55 55 56 56 56 57 58 58 59 60 60 60 60 61 62 62 61 61 62 62
4 5 7 11 13 16 20 24 27 30 32 34 36 40 43 47 50 51 52 55 58 58 56 54 54 54 54 55 56 56 56 56 56 57 58 59 60 61 62 63 64 65 65 65
7 10 14 17 21 26 29 32 34 35 37 39 42 46 49 53 54 56 58 58 57 56 57 58 59 59 59 59 59 59 59 60 60 60 60 61 61 62 63 64 65 66 66 67
13 17 21 25 28 32 34 35 37 40 43 46 48 52 55 57 59 60 59 58 58 61 62 61 59 57 55 54 54 56 56 58 59 59 60 60 61 62 62 63 64 64 65 65
18 22 25 27 29 32 36 38 40 42 44 47 50 54 57 60 62 60 60 62 63 60 55 51 49 47 46 45 45 45 46 46 48 49 50 50 51 51 52 52 53 53 53 53
21 23 26 29 33 36 38 41 43 45 48 51 54 58 61 64 62 61 63 62 58 53 50 48 46 46 46 45 45 45 44 45 45 45 46 46 46 47 47 47 47 47 47 47

GFSNGP_500_spd_093.txt.gz
Wind_Speed
42 42 43 46 47 48 53 53 52 48 46 39 30 24 14 26 23 16 11 10 12 10 15 19 23 26 30 33 29 25 20 25 37 47 46 41 39 37 33 34 30 24 27 23
35 35 33 38 39 43 50 54 52 49 45 41 32 23 19 24 23 17 13 9 9 13 13 14 18 21 22 25 24 25 14 14 23 33 41 42 41 40 38 35 29 23 24 21
24 26 29 36 27 19 24 40 50 51 47 43 39 25 30 13 12 13 12 13 8 10 13 14 16 17 22 26 25 24 22 20 20 22 30 41 42 38 38 36 31 26 24 23
23 26 28 14 13 10 18 18 35 42 41 34 23 20 27 30 21 13 15 14 14 12 10 13 13 16 19 21 24 28 29 24 21 22 29 28 36 37 35 37 32 30 29 28
25 19 10 14 17 2 9 13 21 24 31 36 32 16 19 18 15 9 13 12 11 10 12 12 14 14 16 18 24 28 29 30 26 28 27 30 32 35 38 37 37 34 33 32
11 11 9 13 16 18 6 14 25 25 22 16 13 13 15 13 8 6 13 12 13 13 12 13 13 15 15 16 22 27 30 32 35 32 29 38 35 39 39 39 36 37 36 36
5 6 6 8 11 13 7 21 20 20 11 4 9 9 7 4 6 6 7 8 11 13 12 13 15 17 19 17 18 25 33 37 37 38 41 35 41 42 36 42 47 42 41 39
7 9 5 2 2 7 11 16 12 24 19 9 6 1 6 7 9 10 11 12 12 14 17 18 16 18 20 23 20 25 29 35 40 39 40 44 46 46 46 45 39 43 46 45
3 7 5 5 13 8 19 21 12 23 14 10 3 11 10 8 11 14 14 15 15 15 17 20 21 21 22 23 25 26 27 28 37 39 41 47 48 50 54 54 59 50 51 46
8 10 13 10 15 14 16 21 17 8 5 5 8 7 10 13 19 22 22 19 20 20 18 19 21 25 25 26 24 28 29 28 30 31 38 48 51 44 45 49 56 56 51 55
2 2 11 14 12 15 16 15 13 10 9 8 8 8 9 11 14 19 25 24 24 24 24 24 24 26 28 28 30 31 28 30 29 29 30 33 36 40 41 41 45 53 53 58
4 4 4 11 11 7 5 5 8 7 4 5 2 1 5 10 16 20 23 25 27 28 27 27 27 28 30 30 28 28 30 29 28 26 26 27 29 30 28 28 31 36 40 43
6 5 6 7 6 6 5 4 1 4 3 3 4 8 12 12 12 15 21 24 24 24 25 24 24 26 27 28 29 29 27 27 26 25 26 26 27 27 26 25 27 28 31 33
7 7 9 10 6 3 1 1 2 5 6 9 11 11 12 10 12 15 16 16 17 22 23 22 22 22 21 24 25 26 28 31 32 33 33 33 31 31 32 33 33 34 34 36
9 9 8 14 10 9 7 7 6 6 8 10 10 9 9 9 12 14 17 18 18 19 19 20 24 27 28 28 30 32 33 32 31 31 33 34 34 35 36 36 37 38 37 36
19 13 13 13 10 7 8 7 9 11 11 10 9 10 10 11 15 18 21 22 23 24 24 25 26 28 29 31 32 33 34 35 36 37 37 38 39 41 42 42 42 42 42 42
16 24 21 20 18 15 12 10 11 10 10 10 13 17 19 23 25 27 29 28 28 30 32 33 34 36 38 39 40 41 42 43 44 44 43 43 43 43 44 45 47 48 49 50
17 21 16 14 13 11 11 11 12 13 15 18 21 23 24 23 23 23 24 25 26 27 29 32 35 37 40 43 45 48 49 50 51 52 52 53 52 53 53 52 52 52 53 53
11 12 13 14 13 13 11 10 12 17 19 21 19 18 18 19 19 21 23 25 27 30 34 36 39 40 41 43 45 48 51 54 56 57 57 57 57 57 57 58 58 59 59 59
11 12 11 10 8 7 10 14 16 15 15 15 17 20 23 26 28 30 32 34 37 40 42 43 43 45 49 53 55 57 58 60 61 61 60 61 60 61 61 61 60 61 61 61
8 6 4 4 6 8 9 11 12 15 19 22 26 30 32 34 36 37 39 42 45 48 48 50 53 56 58 60 61 61 59 58 58 60 60 60 60 61 61 61 61 61 62 62
5 7 7 7 7 8 11 15 19 23 27 31 35 37 38 40 40 42 45 48 52 54 57 59 61 61 60 60 60 58 57 56 56 56 57 57 57 57 59 60 61 62 62 63
7 6 6 7 10 14 18 23 28 31 34 36 37 39 41 43 45 46 49 54 57 60 62 63 62 60 60 60 61 62 62 61 60 60 60 59 59 59 59 59 60 60 61 61
5 6 9 13 17 22 26 29 31 32 35 38 40 42 44 46 48 50 55 59 63 65 65 64 62 63 63 62 59 56 55 53 52 52 54 57 59 60 61 61 61 61 62 62
7 11 16 20 24 26 27 28 31 34 37 40 42 45 47 49 52 56 61 65 67 67 66 65 64 61 56 52 50 48 47 46 46 46 46 47 48 50 52 55 56 58 59 59
14 17 20 22 24 26 28 32 36 40 43 48 51 51 51 54 57 62 66 68 67 68 66 62 57 52 49 46 44 43 43 43 44 44 45 45 46 46 47 47 48 48 49 49
19 21 22 25 26 31 37 40 43 46 48 52 56 56 57 59 64 68 69 69 68 64 58 53 49 46 45 43 42 41 41 41 41 41 42 42 43 43 44 44 44 45 45 45

GFSNGP_500_spd_096.txt.gz
Wind_Speed
35 39 41 42 44 44 49 51 56 51 53 46 46 39 35 28 23 10 20 14 12 13 13 15 13 13 15 20 26 23 25 19 26 30 33 40 45 45 43 40 35 34 31 26
35 39 43 45 46 48 47 48 53 52 52 47 43 36 37 35 40 16 20 14 10 9 11 13 10 9 15 16 22 25 27 23 22 28 41 40 55 48 44 42 39 36 30 26
38 39 40 43 36 37 37 31 27 30 30 42 37 34 36 28 24 13 16 12 8 6 6 10 12 9 12 13 17 23 22 21 9 25 44 50 42 52 46 44 40 36 30 28
35 35 34 33 28 22 10 15 22 23 18 20 28 30 26 20 14 16 19 16 9 7 10 9 10 10 11 13 16 23 23 22 20 16 18 29 34 46 43 45 40 38 35 33
31 34 33 25 16 19 23 21 16 8 1 9 12 18 25 17 14 10 13 10 8 9 11 10 9 11 9 12 12 16 20 22 19 16 17 29 30 44 48 44 43 40 38 36
10 4 3 6 13 14 17 11 11 1 2 9 7 21 19 16 13 8 10 9 10 11 13 11 9 9 9 11 11 15 16 18 19 22 22 23 21 29 34 38 35 39 37 40
6 5 7 7 7 12 10 11 7 9 13 10 13 14 19 16 12 10 7 6 7 8 9 11 11 10 11 11 13 14 15 21 21 27 28 31 27 30 29 31 35 39 40 39
4 13 8 5 2 5 4 5 8 11 10 13 14 12 9 8 5 5 6 4 9 10 11 12 13 15 16 15 14 15 17 18 23 27 31 35 38 37 34 33 48 37 39 39
1 1 3 2 2 4 4 8 16 16 11 10 13 8 4 5 3 7 9 11 11 11 13 15 16 17 19 20 18 18 18 20 21 24 26 33 37 39 40 36 40 42 43 39
2 3 3 5 6 9 9 13 16 19 16 8 7 6 6 6 9 10 10 12 14 14 17 19 17 17 18 19 22 23 23 23 23 25 26 28 34 39 41 44 49 49 45 46
1 6 9 9 11 12 11 15 15 13 9 6 6 5 5 6 9 11 13 15 16 17 18 19 23 26 26 24 22 24 26 27 29 30 28 30 32 34 36 40 45 47 49 48
4 6 12 13 11 11 12 11 9 7 4 3 4 3 2 4 7 9 11 14 15 18 20 20 22 25 29 30 30 30 30 30 30 31 32 34 35 35 38 37 35 35 38 44
10 5 6 12 10 10 9 9 7 4 4 5 3 2 7 11 11 12 12 13 15 18 20 21 22 24 26 27 31 31 31 32 33 33 34 33 33 34 34 35 33 33 34 37
9 8 7 8 6 6 6 5 3 1 2 3 5 9 11 11 10 10 11 11 13 15 17 20 22 22 25 25 26 27 27 28 29 33 34 36 36 36 35 35 36 36 36 34
12 9 9 11 8 6 3 2 0 2 4 7 10 12 13 13 12 14 16 17 19 20 20 21 23 25 26 26 25 25 27 29 29 31 34 37 37 39 39 39 38 38 38 41
15 13 12 11 12 9 8 9 5 4 6 10 10 12 12 14 16 20 23 24 27 29 29 30 31 33 34 35 36 36 36 36 36 37 37 38 39 40 41 42 44 45 45 45
20 21 19 16 14 12 10 10 10 14 14 12 13 14 17 21 24 27 26 25 24 24 25 26 27 28 30 33 35 38 42 44 45 46 46 47 47 47 48 49 49 49 50 50
16 21 20 20 20 19 15 12 11 12 13 15 18 22 24 24 22 21 21 23 24 26 28 30 32 34 35 38 40 41 43 45 46 47 47 48 50 51 53 55 56 57 57 58
8 13 9 6 9 9 9 10 13 14 16 19 20 20 21 21 23 26 29 32 34 36 37 39 40 41 43 45 45 46 47 49 52 54 56 57 58 59 60 61 61 63 63 64
9 13 17 15 13 11 11 14 16 18 17 17 19 21 25 29 33 36 38 40 41 43 44 45 46 48 50 52 53 54 56 58 60 61 62 63 64 64 65 67 68 68 68 67
9 11 12 12 13 15 15 12 11 14 17 21 25 30 33 36 37 38 40 43 45 47 48 49 51 54 57 59 61 63 64 64 64 64 63 63 64 65 64 63 64 65 66 65
8 8 8 9 7 6 7 10 14 19 24 28 31 32 34 36 38 41 43 45 49 50 51 53 57 61 64 67 69 69 67 65 64 64 64 64 64 64 64 63 62 62 62 61
6 5 4 4 5 8 12 17 22 26 27 30 32 34 37 39 42 45 48 50 51 53 56 60 65 68 71 72 71 71 69 66 64 63 61 60 59 59 59 60 62 63 64 64
4 3 4 6 10 15 20 23 24 26 29 33 36 39 42 45 48 52 55 55 56 59 64 68 71 73 73 71 67 63 59 55 53 51 50 50 49 49 50 51 52 54 57 60
4 4 9 14 18 20 22 24 26 31 34 37 42 45 48 50 53 58 60 60 62 67 70 72 73 69 64 59 54 51 48 46 45 44 43 43 44 44 45 46 47 48 48 49
6 11 16 19 20 23 25 29 33 36 40 44 47 52 53 55 59 63 63 65 69 71 73 69 62 56 51 47 44 42 41 41 40 41 41 41 41 41 42 43 44 45 45 46
12 16 20 21 24 26 30 34 38 42 46 49 53 56 57 60 64 66 68 71 74 73 66 57 50 45 42 40 39 39 38 38 38 39 39 40 41 41 41 41 42 43 43 43

GFSNGP_500_spd_099.txt.gz
Wind_Speed
22 25 28 30 32 36 39 41 44 44 47 46 50 52 51 48 43 37 34 31 20 18 16 16 16 16 14 14 15 27 17 23 26 27 37 34 38 43 35 38 42 37 35 35
25 28 30 31 34 38 41 42 47 49 50 49 53 54 52 49 41 35 29 19 16 15 14 15 15 13 14 15 14 20 21 17 20 16 23 25 35 41 40 43 46 40 38 37
25 28 33 36 36 36 38 37 39 39 37 32 33 41 39 38 32 27 30 17 17 13 11 10 11 12 13 14 13 18 21 15 19 16 20 24 32 40 43 46 48 42 40 41
28 32 34 37 37 36 33 32 34 21 22 31 32 32 26 23 20 18 21 14 17 14 9 9 6 8 13 11 10 14 18 20 20 20 17 24 32 39 34 37 48 42 43 42
27 28 32 34 31 27 24 22 17 22 14 12 11 16 16 17 15 11 10 12 14 13 11 12 10 10 9 9 7 8 14 19 20 21 20 11 22 35 33 38 48 51 45 45
17 9 9 8 7 8 10 11 15 3 4 4 13 14 11 18 14 6 14 10 6 6 11 12 11 11 11 8 9 7 9 13 19 22 21 18 10 25 36 45 48 54 49 47
3 4 9 12 13 7 6 7 7 9 8 6 5 6 9 13 12 12 8 7 6 5 4 6 9 10 10 11 9 10 10 9 15 19 19 23 26 21 19 40 39 48 50 48
12 13 9 6 2 3 3 4 5 2 3 8 9 15 19 17 14 10 8 7 6 5 5 6 6 7 9 10 10 12 11 11 11 14 21 27 24 29 25 27 24 33 35 47
2 2 2 2 1 4 4 2 5 10 9 15 15 16 17 12 9 8 7 8 8 8 7 7 8 9 10 10 12 14 14 15 14 17 17 20 25 30 38 38 35 35 36 41
0 2 3 0 2 2 9 8 7 12 17 16 11 8 7 6 7 9 9 11 10 10 11 12 13 15 15 13 13 14 15 17 18 19 20 22 24 26 27 35 38 40 42 41
2 3 2 4 1 3 7 9 9 13 13 12 7 4 2 1 4 5 7 8 9 10 10 13 16 17 19 20 22 22 21 21 21 22 23 24 26 27 31 32 31 35 39 43
2 5 7 10 9 11 9 9 9 11 10 8 5 4 5 4 3 3 4 6 8 10 12 11 12 14 15 19 23 25 26 29 29 28 28 29 29 30 32 34 34 36 37 39
9 5 11 12 10 10 10 10 8 7 8 8 6 5 4 7 7 8 9 10 12 13 14 16 16 15 15 18 21 23 23 26 31 32 33 35 35 35 36 37 36 37 39 40
14 10 10 16 12 11 9 8 7 7 7 6 5 7 9 9 10 11 12 12 13 15 16 19 21 23 23 22 21 20 22 24 27 28 30 31 32 34 35 38 38 39 41 41
14 13 13 11 10 9 7 5 6 5 4 2 5 7 9 11 12 13 15 18 20 22 24 24 25 28 30 31 32 32 32 31 31 32 33 33 34 35 35 35 36 37 38 39
16 13 13 13 12 8 5 4 4 3 1 6 9 10 9 10 14 19 21 23 26 26 26 26 27 29 30 32 34 35 36 35 36 37 39 41 42 43 44 43 43 43 43 44
16 14 13 13 14 12 8 7 8 7 8 10 11 11 13 18 21 24 23 22 23 24 26 28 30 32 35 37 39 40 41 42 42 43 44 45 46 47 48 49 50 50 51 52
20 18 19 17 16 15 13 12 10 10 13 14 13 16 20 21 20 20 22 25 29 32 35 37 39 41 43 45 46 48 50 51 51 52 52 51 51 52 53 53 55 56 55 55
19 17 14 15 17 15 12 11 10 12 13 15 18 20 19 20 23 28 31 33 35 36 38 40 43 45 48 50 51 53 54 56 57 59 60 60 60 60 60 61 61 62 62 62
8 13 17 13 9 8 11 11 11 11 15 18 17 19 23 27 29 31 34 36 37 40 41 43 46 49 51 53 54 55 57 59 62 64 66 67 68 69 69 69 69 68 68 67
10 11 13 15 14 13 10 11 13 15 13 16 21 25 26 29 31 34 36 38 41 43 46 50 52 54 54 56 58 61 64 67 70 73 74 75 76 75 74 73 72 71 70 70
8 8 8 10 11 11 11 8 8 12 18 22 24 26 29 33 36 38 41 44 46 48 52 55 57 57 59 62 66 70 73 76 78 77 76 74 72 70 68 67 67 67 67 67
3 3 5 6 6 3 3 8 13 17 20 23 26 31 34 37 40 43 47 49 51 54 58 60 62 65 68 71 75 75 73 69 66 63 60 58 57 56 55 56 56 57 58 60
3 5 5 3 0 5 11 14 16 20 23 27 32 35 38 42 46 50 53 55 58 63 65 68 70 73 77 75 68 62 56 52 49 47 46 46 46 46 46 47 48 49 50 52
6 4 2 4 9 12 14 17 21 24 28 33 37 40 44 48 53 57 60 62 65 69 71 73 77 76 68 59 52 48 45 43 42 41 40 39 39 40 42 43 44 45 46 47
5 2 5 9 13 15 18 22 25 29 33 37 41 45 50 54 59 61 64 67 70 73 75 78 73 62 54 48 46 45 44 44 43 42 42 42 42 42 41 41 42 43 44 45
5 7 11 14 18 20 23 26 29 33 38 42 46 51 55 61 63 65 69 72 74 76 78 70 59 52 48 46 45 45 45 45 45 45 45 44 44 45 44 44 44 44 43 44

GFSNGP_500_spd_102.txt.gz
Wind_Speed
28 20 18 16 19 22 25 27 33 32 38 39 44 46 48 48 49 48 48 46 41 37 37 32 32 29 26 26 18 24 31 21 20 32 34 25 28 23 37 36 36 36 36 34
13 13 18 22 25 28 29 30 34 37 40 46 45 48 52 53 54 55 52 48 42 36 34 31 28 26 22 21 21 18 18 20 18 24 35 35 33 34 36 41 41 41 40 40
18 21 23 26 27 30 33 36 40 41 43 41 44 49 50 51 50 49 45 38 33 26 29 29 25 24 21 18 17 17 19 18 23 18 27 27 20 21 23 33 33 37 36 39
18 22 26 26 29 31 34 38 38 39 36 25 29 36 39 39 37 28 19 20 24 25 26 23 20 15 12 14 14 15 17 20 23 21 16 18 21 27 33 26 31 37 40 42
18 21 24 23 22 20 22 23 22 20 14 22 22 26 17 12 16 15 17 13 18 18 23 20 12 12 11 11 11 12 15 16 18 21 19 18 19 22 29 31 35 36 41 45
15 14 13 14 14 17 16 9 9 12 12 13 13 13 5 11 16 9 4 15 18 18 16 10 9 10 11 12 11 10 10 15 16 22 22 19 18 11 22 27 34 38 37 50
6 7 11 17 17 15 7 9 7 9 12 14 14 9 8 7 7 6 13 15 13 9 7 6 5 6 6 7 8 10 10 9 13 14 19 21 22 22 13 28 36 41 38 43
9 13 15 12 8 6 6 3 6 4 2 2 5 7 6 7 14 16 13 11 8 5 4 3 4 4 4 5 6 6 8 11 12 11 13 19 21 20 22 23 30 40 39 36
7 6 8 5 3 5 1 4 4 9 8 10 13 15 15 15 14 12 10 9 7 4 4 5 6 6 6 6 7 9 10 11 11 14 16 16 17 23 23 28 25 24 31 33
7 4 4 3 3 7 9 5 4 3 12 15 15 15 15 12 11 9 6 3 4 7 9 10 11 12 13 13 14 14 15 16 16 16 16 18 21 22 22 24 33 37 35 37
5 5 4 2 4 5 7 6 5 7 10 14 12 12 10 8 5 2 2 4 5 6 9 12 13 14 16 18 20 20 22 23 23 23 23 23 23 23 24 28 31 31 33 33
6 5 6 5 12 9 7 8 10 11 10 12 12 12 12 10 7 6 5 4 3 1 2 4 7 11 14 16 18 20 21 24 26 29 30 32 33 33 32 31 31 34 36 37
11 5 9 10 11 10 9 7 8 10 10 11 12 8 8 7 6 5 5 6 7 8 9 10 12 13 15 17 20 23 24 27 29 31 32 32 35 38 40 41 40 39 39 41
16 11 10 15 11 10 10 10 9 10 9 10 9 7 6 5 4 5 7 9 11 14 16 18 20 22 23 23 24 24 25 26 28 30 33 33 35 37 38 40 41 43 45 45
15 16 12 18 15 11 11 10 9 8 8 7 4 3 3 4 6 8 11 14 16 18 20 22 23 24 24 26 27 29 29 30 31 32 34 35 38 40 42 42 43 43 43 43
15 15 17 15 13 12 9 7 8 6 4 1 2 5 7 8 11 14 17 19 18 19 20 22 24 27 30 32 34 38 39 42 42 43 43 44 44 45 45 45 46 48 50 51
17 16 15 17 17 15 11 8 8 6 4 3 5 7 9 12 17 18 15 18 21 25 27 29 31 33 35 36 38 40 43 45 48 50 51 52 53 54 54 54 53 53 52 53
19 17 15 13 12 11 11 8 6 6 5 7 10 11 14 18 16 18 21 24 25 27 30 32 33 36 39 41 43 46 51 54 55 56 57 58 59 59 60 60 61 61 61 60
20 14 13 12 13 11 9 9 7 7 8 12 12 15 17 16 21 24 25 27 30 32 34 36 40 43 45 46 49 53 54 56 58 59 61 62 62 63 64 65 66 66 66 66
20 17 14 14 13 14 14 10 7 8 9 12 16 15 17 23 24 26 29 32 35 38 41 43 46 48 50 53 56 58 59 60 61 62 65 67 70 72 74 75 76 76 76 75
16 15 17 14 14 13 10 9 10 10 13 13 14 19 22 23 27 31 33 36 39 43 46 49 52 54 57 60 62 64 66 68 71 74 77 78 79 79 80 80 80 79 79 78
13 12 21 22 17 15 12 11 10 11 11 14 18 20 23 28 31 35 39 42 45 48 51 55 58 63 66 68 70 72 76 78 76 71 66 63 61 59 58 58 58 58 59 60
15 15 15 14 12 10 10 10 9 10 13 16 19 23 28 32 35 39 42 45 50 54 59 63 67 70 72 74 78 79 73 64 57 52 49 47 46 46 45 45 45 46 46 47
9 12 13 14 14 12 8 7 10 12 15 20 24 27 31 35 40 43 47 52 56 61 65 69 72 75 77 81 76 65 56 50 47 46 45 45 45 45 44 44 44 44 43 43
10 12 13 11 6 5 8 10 12 16 20 24 27 32 37 39 44 48 53 58 62 67 70 74 76 79 80 71 61 53 49 48 47 46 46 46 46 45 46 46 46 46 46 46
12 12 10 7 6 8 10 13 17 20 24 28 32 36 41 46 50 54 58 63 67 70 74 76 79 78 68 58 52 49 49 49 49 49 49 49 49 48 48 47 47 48 48 48
12 11 10 10 10 12 15 18 21 25 29 33 37 41 45 50 55 58 62 67 70 73 76 79 77 66 58 54 52 51 51 51 52 52 52 51 50 49 49 49 49 49 49 49

GFSNGP_500_spd_105.txt.gz
Wind_Speed
34 30 32 28 26 29 31 28 30 26 31 37 41 41 37 40 41 39 40 41 41 41 41 40 39 41 43 45 41 40 36 38 30 30 31 28 32 34 29 24 34 34 31 31
30 32 31 26 21 20 19 20 26 29 33 41 39 39 43 44 47 48 47 47 49 48 47 45 44 43 44 42 38 34 32 31 28 26 32 31 35 37 19 21 27 32 35 36
24 17 13 17 18 21 23 27 32 33 37 40 42 44 47 49 50 52 53 54 53 52 50 48 45 42 38 36 34 32 30 28 25 20 26 25 30 35 28 23 30 34 37 32
13 14 21 19 21 24 26 31 33 36 40 42 41 42 41 40 46 47 48 44 37 33 31 26 28 30 32 33 32 24 20 25 21 22 18 16 19 31 29 28 33 32 36 39
17 18 22 21 21 21 21 26 26 30 30 24 20 20 25 31 32 28 21 16 15 18 19 24 25 25 28 24 16 12 13 13 17 20 25 21 17 19 28 26 29 31 37 37
16 17 18 14 14 16 21 20 13 12 13 15 16 15 11 5 1 8 11 10 12 14 18 21 21 16 14 7 10 11 9 9 15 13 18 18 19 20 23 22 28 35 30 31
14 12 10 11 14 15 10 9 11 13 12 12 13 8 9 8 8 7 7 7 9 8 11 11 9 8 7 6 7 8 11 10 9 8 16 19 23 22 21 19 22 30 32 37
7 8 13 13 12 9 10 14 9 13 12 9 8 13 14 12 4 9 13 8 11 9 7 5 5 5 3 2 3 4 5 7 14 14 9 9 15 19 19 21 19 21 29 29
9 9 10 10 7 6 12 4 4 2 4 4 7 8 6 10 12 10 8 8 9 10 7 4 2 1 3 4 5 6 7 8 8 10 15 17 15 13 20 22 23 20 20 28
9 9 9 8 6 6 7 2 4 2 14 14 15 16 15 14 13 12 11 9 7 6 5 4 5 6 8 10 12 13 14 15 16 16 16 16 16 17 21 22 21 24 22 22
11 10 9 8 7 12 7 7 3 3 12 13 14 13 14 14 13 12 13 10 8 7 5 5 6 7 9 11 13 15 17 18 20 22 23 25 25 24 24 23 25 28 30 29
13 8 9 9 10 7 6 6 6 6 10 13 14 14 14 14 14 14 13 11 9 7 6 6 7 9 12 15 18 20 22 24 25 26 27 27 28 29 31 33 34 33 33 34
19 10 10 9 11 10 7 6 7 11 9 12 13 12 9 9 9 8 7 5 5 6 8 11 13 16 20 23 24 25 27 28 28 30 32 33 34 35 36 37 37 38 39 42
21 16 11 13 14 13 9 7 10 11 10 12 10 9 9 7 7 5 5 7 9 12 14 16 18 19 21 22 23 24 25 26 27 29 30 32 34 36 38 40 42 43 43 43
20 19 15 14 16 13 11 11 11 11 11 10 8 7 6 5 4 6 8 11 13 14 14 14 17 20 23 25 27 29 30 31 32 33 35 36 38 40 43 45 47 47 47 48
18 20 19 15 20 15 13 12 12 12 10 7 5 4 4 6 7 10 13 12 12 15 18 19 20 22 25 26 28 31 33 35 37 39 41 43 45 46 48 51 53 54 56 56
22 18 19 19 18 19 14 11 12 12 9 4 1 3 5 6 10 11 10 13 17 19 22 24 26 27 29 33 36 40 43 46 49 52 54 55 55 56 58 59 59 59 59 61
25 19 17 15 13 17 14 11 10 10 7 4 2 5 6 10 12 13 17 20 21 24 26 28 30 34 38 41 45 47 49 52 55 60 62 63 65 67 66 65 65 65 66 66
24 20 17 15 13 11 12 13 11 9 6 4 6 8 11 12 14 18 20 23 26 28 31 34 37 42 45 47 50 52 56 60 64 67 69 70 71 72 72 72 72 72 72 72
21 18 14 15 13 12 10 8 8 7 5 6 7 11 12 15 19 21 23 26 30 33 37 41 43 45 50 53 56 60 65 68 71 73 74 75 77 79 80 79 79 79 79 79
17 18 13 10 12 11 10 10 9 8 9 9 11 13 16 19 21 24 28 31 35 38 42 45 48 53 57 59 64 68 73 75 76 78 81 80 74 66 62 59 57 56 56 57
16 18 15 14 14 12 12 12 13 12 12 12 13 16 19 21 24 28 32 35 39 42 46 49 53 58 63 67 70 75 75 78 82 75 65 57 52 49 48 47 47 47 47 47
15 11 16 21 21 18 18 17 14 13 13 14 17 19 22 25 29 32 35 39 43 47 52 56 59 64 69 73 76 77 81 75 65 57 52 50 48 48 48 47 47 46 46 46
16 17 17 19 21 20 19 16 14 14 14 17 21 23 25 28 32 37 41 45 49 53 58 62 64 69 74 77 78 81 71 62 56 54 52 51 50 50 50 49 49 49 49 48
14 16 17 19 19 18 17 15 14 16 17 19 22 25 28 33 37 41 45 49 53 57 61 64 68 73 76 78 80 70 61 58 57 56 55 53 52 52 51 51 51 50 50 49
11 13 15 17 17 15 13 12 13 14 17 21 25 30 34 38 42 46 50 54 57 61 63 68 71 74 77 78 71 62 60 60 57 56 53 52 51 51 50 50 49 49 48 49
12 15 16 15 14 13 13 14 16 19 23 27 31 35 39 43 46 49 52 56 60 62 65 69 72 75 77 70 63 62 61 59 56 54 53 52 51 50 49 49 49 49 49 48

GFSNGP_500_spd_108.txt.gz
Wind_Speed
25 30 30 26 28 29 30 33 34 38 45 47 49 51 51 49 48 48 46 40 39 38 37 36 34 37 37 38 40 41 42 46 48 44 36 38 41 34 29 29 33 33 28 31
26 25 34 38 38 35 35 33 34 36 36 46 48 47 42 41 41 42 45 45 41 40 39 38 39 39 39 40 40 43 44 48 48 36 33 36 34 39 30 36 23 30 28 37
27 30 35 40 37 31 22 22 27 26 33 34 31 37 42 43 45 46 47 48 48 46 46 47 46 46 45 44 44 43 45 46 37 36 31 31 29 24 27 29 32 27 25 35
32 27 24 29 20 20 23 26 28 29 34 37 38 41 43 43 42 41 46 47 47 46 44 44 44 41 39 39 38 39 38 34 34 34 28 25 20 19 25 24 25 23 27 26
20 17 24 22 15 20 23 22 24 27 31 33 31 30 25 24 25 28 31 31 27 20 17 16 18 20 23 22 25 26 27 29 22 18 18 21 24 21 17 20 30 30 31 33
17 17 20 17 18 15 20 21 20 24 19 20 18 17 12 18 11 10 10 2 4 7 6 6 8 9 15 23 18 18 16 11 9 6 13 15 18 19 22 19 21 29 29 31
16 19 19 15 12 16 20 17 11 15 18 15 11 13 12 9 8 13 14 6 8 7 4 4 4 8 9 3 3 7 11 12 9 7 4 2 9 16 15 15 19 24 23 30
17 16 13 12 13 16 13 12 15 15 18 17 15 9 6 10 13 6 7 7 8 6 3 4 4 5 3 2 1 0 3 4 7 11 15 14 10 4 7 10 13 15 18 18
14 8 9 10 11 9 7 10 6 11 6 6 8 11 10 9 10 11 7 7 7 7 5 6 6 7 5 4 3 5 7 8 9 10 11 11 13 17 19 14 11 10 13 15
11 9 10 10 9 6 8 5 5 8 3 2 9 11 10 11 14 13 11 9 8 8 8 7 6 6 5 4 5 7 8 9 11 13 14 15 16 17 17 17 20 22 20 18
12 11 10 10 9 7 8 9 5 4 5 10 11 12 12 10 9 10 13 12 12 11 10 10 9 8 8 9 10 12 15 17 18 20 21 22 22 23 23 23 23 24 25 28
14 13 10 9 10 9 13 11 10 7 9 14 14 15 16 15 14 13 13 12 11 10 9 9 9 11 13 16 18 21 24 25 26 27 27 28 28 30 31 31 32 34 33 33
16 15 11 10 10 10 8 4 5 6 14 13 14 15 15 13 12 10 8 7 8 9 10 12 14 16 18 18 19 21 22 23 24 25 26 26 28 29 30 31 34 35 36 38
16 19 16 10 12 12 9 8 8 13 11 13 13 12 11 9 7 5 5 7 10 10 11 12 13 14 17 19 21 22 22 24 26 28 30 31 33 35 36 37 37 39 40 41
19 19 20 15 15 15 13 11 12 13 13 12 11 10 8 5 3 4 7 9 8 8 9 12 13 15 16 18 21 25 30 32 34 38 40 42 43 44 45 47 49 50 50 50
21 21 20 19 15 17 14 13 13 13 13 11 10 9 4 2 2 4 6 7 8 11 12 14 16 19 22 25 29 33 37 41 43 46 47 50 51 52 55 56 58 58 61 61
25 24 21 21 17 16 17 16 15 15 14 12 10 6 3 1 4 6 8 10 13 15 17 19 21 24 28 32 37 41 44 46 48 52 55 57 59 62 64 66 68 69 70 73
26 24 22 20 20 22 21 17 17 17 15 12 8 4 3 5 7 8 10 14 15 19 21 24 28 31 35 38 41 43 46 49 52 55 58 63 66 69 73 77 80 82 84 84
27 26 22 19 19 22 21 18 15 15 15 11 8 4 5 7 8 10 14 17 20 23 26 29 33 36 39 42 44 47 51 55 59 63 67 68 73 78 80 80 83 86 86 85
28 26 21 19 16 13 14 16 15 15 14 13 9 8 9 10 12 15 18 21 24 27 31 35 38 42 45 48 52 55 60 62 67 72 74 76 79 83 84 77 68 63 60 59
26 25 20 18 18 17 17 16 14 15 15 12 11 11 12 13 15 19 22 26 29 32 36 41 44 48 51 55 58 62 65 67 73 75 78 80 83 73 63 59 56 55 54 53
21 20 17 16 18 17 16 17 16 15 13 12 12 14 15 17 20 23 27 29 34 37 41 45 49 53 56 59 62 65 69 72 75 78 80 78 66 61 60 58 56 55 54 53
17 16 17 14 15 14 14 15 13 13 15 15 15 16 18 21 24 27 30 34 38 42 46 50 54 56 60 63 65 69 72 75 78 81 74 65 61 60 58 55 53 52 51 52
16 16 15 16 18 17 17 16 15 17 18 17 17 21 22 25 27 30 34 38 43 47 50 54 57 60 62 65 68 72 75 77 79 71 64 63 62 60 58 55 52 50 49 49
14 16 16 16 21 22 21 18 19 19 18 19 21 22 23 26 29 34 38 42 46 50 53 55 59 62 66 68 71 74 77 77 69 64 63 63 61 59 55 53 52 51 48 48
9 12 14 17 19 21 21 21 19 18 19 19 20 23 26 30 35 39 42 46 49 52 55 58 61 65 68 71 74 77 77 69 64 63 64 62 59 54 52 51 52 51 51 49
8 10 12 14 15 16 16 16 16 16 18 21 24 28 31 35 39 42 45 48 50 53 57 60 63 66 69 73 75 75 69 64 63 63 63 60 55 53 52 51 50 49 48 47

GFSNGP_500_spd_111.txt.gz
Wind_Speed
36 32 31 25 26 25 26 25 29 33 35 34 36 40 44 48 49 50 51 50 48 52 51 50 47 44 40 38 41 41 41 40 40 40 41 43 45 46 49 38 35 38 33 37
33 30 29 31 34 31 31 32 34 37 40 39 39 39 40 44 48 50 50 51 52 53 50 45 42 40 40 39 38 40 41 40 42 42 43 45 47 47 42 35 33 37 32 30
31 28 32 32 26 29 36 39 43 42 41 32 28 30 38 42 44 44 45 47 48 49 50 48 44 43 41 40 38 38 39 41 42 44 47 48 49 41 37 32 29 33 32 35
28 25 28 28 25 30 35 34 30 28 30 31 32 33 36 39 41 43 46 47 49 49 48 45 42 40 40 39 37 35 37 37 37 41 42 42 37 36 32 27 27 31 31 30
29 27 30 24 27 25 25 25 28 30 30 29 29 30 29 28 29 30 30 30 26 18 16 16 15 14 14 14 13 19 20 21 22 24 26 27 27 25 22 24 22 22 25 25
25 26 25 19 17 21 23 19 20 26 28 24 18 18 21 19 15 13 5 9 6 11 5 4 4 4 5 6 11 13 9 10 10 10 4 4 16 19 16 15 20 19 19 27
22 20 20 17 16 19 18 16 18 16 19 23 13 12 13 17 17 10 15 9 4 2 2 0 2 4 4 4 5 5 4 8 9 9 9 9 2 8 8 12 12 11 14 20
19 19 16 17 16 15 15 15 11 13 17 20 20 17 9 9 11 11 2 4 5 6 6 7 10 11 9 4 3 4 7 6 6 8 10 12 16 18 10 3 5 9 12 13
18 16 13 14 13 11 10 7 11 11 13 6 9 8 6 6 5 8 8 5 12 13 13 11 9 7 7 8 7 7 8 9 8 8 9 12 14 13 13 16 19 17 11 11
15 12 13 11 9 9 8 6 5 7 8 3 2 7 8 8 10 13 14 12 10 9 8 8 8 7 6 10 8 7 7 8 11 13 15 16 16 15 15 16 16 16 18 20
14 15 12 11 9 6 7 6 7 3 2 5 9 12 14 12 9 9 9 9 11 10 9 8 7 6 5 4 5 7 10 13 16 18 20 21 21 21 21 22 22 24 24 24
13 13 12 11 8 6 8 9 8 8 5 9 8 10 11 13 15 15 13 11 9 8 6 4 4 3 4 6 9 12 14 15 17 18 19 21 22 23 24 25 25 27 28 29
15 15 14 12 9 8 10 9 9 6 8 12 14 14 14 15 14 12 9 6 4 4 4 4 5 8 10 12 12 13 14 17 20 22 25 28 29 30 31 33 35 35 36 36
15 15 16 13 9 9 11 9 6 10 15 13 15 16 15 13 10 7 5 4 4 4 3 6 8 9 11 11 13 16 20 24 29 32 33 35 36 36 37 39 41 43 43 44
17 17 16 18 14 11 13 10 9 12 13 15 17 15 13 11 7 5 3 2 2 4 6 9 11 12 14 16 19 23 29 33 36 35 37 38 40 42 44 45 48 53 54 52
21 20 19 17 19 15 16 14 12 16 16 17 15 14 13 11 7 3 2 2 4 6 9 11 13 15 17 21 25 31 35 36 36 39 42 44 46 47 49 52 55 58 57 58
26 26 23 20 20 19 17 15 15 19 19 19 17 15 12 9 6 4 4 5 7 9 12 15 17 20 24 28 33 35 37 40 42 45 47 50 53 57 60 62 64 66 65 65
35 31 27 25 22 22 18 18 20 21 20 20 17 16 13 11 8 7 8 8 11 14 16 19 22 25 29 34 37 41 43 45 48 51 55 57 60 64 66 68 72 73 73 77
34 32 28 27 24 23 20 22 22 22 22 20 18 16 13 11 10 10 9 12 16 18 20 23 27 31 35 39 42 45 48 51 54 57 60 63 66 68 70 72 74 77 80 82
27 29 28 26 25 25 26 27 24 22 22 21 19 17 13 12 11 12 13 16 21 23 25 28 32 36 39 43 46 50 53 56 60 63 65 67 70 71 74 76 79 81 77 69
27 29 27 24 24 25 28 28 24 21 19 19 18 17 15 14 15 15 18 21 23 26 29 32 37 41 45 47 51 55 57 61 64 66 69 71 74 76 79 79 73 66 64 64
24 23 25 24 23 21 21 19 20 20 20 20 20 19 17 16 17 19 23 25 26 29 32 36 40 44 48 51 54 56 60 63 67 69 72 75 78 80 77 67 63 64 64 63
20 20 23 20 19 20 21 20 20 20 20 20 20 18 17 17 19 23 25 27 29 33 36 40 44 48 51 53 56 59 62 67 70 73 76 79 81 73 66 65 66 65 62 56
15 16 18 15 15 18 18 19 19 19 19 17 16 17 18 20 23 25 27 30 33 36 41 44 47 50 53 56 58 61 66 70 74 77 80 79 71 66 66 67 66 62 56 53
15 15 16 17 17 18 18 18 17 16 15 15 17 19 21 22 24 27 31 34 37 40 43 46 50 52 55 58 61 66 70 74 76 79 77 70 65 66 67 65 59 55 54 52
10 13 16 16 16 16 18 19 18 18 17 19 19 21 21 23 26 30 33 36 39 43 46 49 51 54 57 61 64 69 72 75 78 76 69 65 66 67 64 58 55 54 54 53
7 8 11 13 16 18 19 21 21 19 18 19 20 21 23 27 30 32 35 39 42 45 48 50 53 56 60 63 66 71 73 76 74 68 64 64 66 63 58 55 55 56 56 53

GFSNGP_500_spd_114.txt.gz
Wind_Speed
42 38 40 39 39 39 36 39 35 31 36 34 32 35 39 39 38 39 43 45 45 44 43 43 43 43 47 53 54 54 49 44 41 39 40 41 41 44 45 47 46 43 43 44
36 38 43 41 40 39 33 34 34 28 30 29 32 35 38 42 45 44 42 41 43 50 52 53 55 56 56 52 47 42 41 41 40 40 42 42 44 44 44 46 47 44 45 39
34 35 38 45 40 36 32 36 34 32 31 34 38 43 38 36 36 38 40 42 43 44 45 47 49 50 47 44 43 43 42 41 41 41 43 44 45 45 46 48 47 45 41 40
36 38 41 43 35 32 34 34 32 32 36 39 40 35 35 36 37 39 41 43 45 47 49 49 49 48 47 48 49 48 44 40 39 40 42 42 46 48 49 49 46 40 38 36
32 33 37 36 28 25 30 31 32 33 31 31 32 33 34 36 34 34 34 35 33 31 28 28 30 30 30 28 25 24 17 18 21 20 21 23 26 31 36 37 34 33 33 32
29 32 31 26 27 29 28 25 28 28 29 30 28 27 27 26 22 17 21 12 11 15 14 11 7 4 4 4 3 5 12 7 6 6 10 13 12 13 15 20 27 27 27 26
24 25 23 22 25 23 21 19 24 26 25 24 20 22 18 18 20 19 15 16 14 6 7 7 6 4 5 9 9 7 7 6 11 12 5 7 10 10 14 11 2 10 11 11
24 22 22 19 20 19 20 20 20 22 20 16 19 17 19 18 15 13 14 4 5 6 5 5 6 10 12 11 8 4 5 4 7 8 8 9 11 12 13 15 20 20 18 12
24 17 17 15 18 19 17 14 13 13 12 17 14 14 10 9 7 10 8 6 6 6 9 10 10 8 8 6 7 9 8 5 4 4 7 8 10 12 13 16 16 16 16 17
18 17 16 17 14 13 12 11 11 9 9 11 10 8 11 8 9 10 9 12 12 10 8 7 5 10 9 6 3 2 3 5 6 8 10 12 14 15 18 19 20 19 19 19
17 18 17 16 13 12 11 11 10 7 6 4 3 8 10 10 12 15 13 11 9 9 10 8 5 3 2 1 2 3 5 7 9 12 14 16 17 19 20 21 23 24 25 25
17 18 16 14 12 12 10 13 9 8 6 7 7 11 12 11 11 11 12 12 10 7 6 5 4 2 2 1 2 4 6 9 13 17 21 22 22 23 24 24 25 26 28 30
16 16 16 15 13 11 11 12 11 11 10 10 12 13 15 16 15 14 11 9 8 7 7 5 5 3 1 3 4 7 10 14 19 23 24 23 23 26 29 30 30 31 34 35
14 14 16 15 14 12 10 11 11 10 9 14 15 15 15 15 14 12 10 9 8 7 6 5 2 4 6 8 11 14 18 21 25 26 27 27 30 32 33 36 40 42 43 44
16 16 16 16 17 13 10 11 12 9 14 15 16 17 15 14 13 11 10 9 9 7 6 5 6 8 11 13 15 18 22 25 29 30 32 34 35 37 40 44 48 51 53 54
19 19 19 17 18 19 13 14 14 12 17 16 17 19 18 17 14 11 10 10 9 8 7 7 9 12 15 18 20 23 27 29 32 35 36 37 40 44 47 51 54 56 56 59
25 25 24 23 20 21 21 17 17 17 19 19 20 20 18 16 14 14 13 13 10 9 9 12 14 17 19 22 25 28 30 33 36 39 41 44 47 50 53 56 57 59 62 65
33 32 31 29 26 23 25 22 20 20 20 23 22 21 18 18 18 16 14 13 12 13 13 16 20 22 23 25 28 31 34 36 40 43 45 48 51 52 54 58 61 64 65 67
37 39 38 34 30 26 25 26 24 22 24 27 24 22 20 19 19 17 16 16 17 16 18 20 24 26 27 29 32 35 38 42 45 48 50 50 53 58 61 65 69 71 72 72
33 32 31 32 32 30 28 26 24 24 26 29 26 24 22 20 20 18 18 20 19 19 21 24 27 30 31 33 35 40 44 47 50 50 51 54 58 63 67 71 74 76 78 79
21 25 27 30 30 30 28 26 23 25 26 27 26 25 22 21 21 19 21 21 21 23 26 28 31 33 34 37 40 45 48 50 51 52 57 61 66 70 74 76 77 79 77 71
12 18 23 24 26 27 27 25 24 23 26 25 24 24 22 21 21 22 22 22 24 27 30 33 35 35 38 42 45 49 51 51 53 58 62 66 70 74 77 78 80 75 69 67
9 14 10 18 24 26 24 23 25 26 26 25 25 22 22 22 22 23 23 24 27 30 33 37 38 39 43 46 49 51 52 54 59 63 67 71 74 76 79 79 74 69 67 67
15 11 12 16 21 21 19 19 22 22 22 22 20 20 20 22 23 23 24 27 30 33 37 39 40 43 46 49 51 52 55 58 62 67 70 74 75 78 77 72 68 67 67 66
10 9 12 16 15 14 15 15 17 18 18 19 19 19 21 21 21 24 27 29 32 37 39 40 43 46 49 51 52 56 60 63 67 69 71 74 77 76 71 67 65 66 65 64
11 10 10 12 13 14 15 15 16 17 18 20 20 20 19 20 23 27 29 33 36 38 40 42 45 49 50 52 55 59 63 66 67 69 72 75 74 69 65 64 64 65 64 63
8 11 14 17 18 17 17 19 21 21 21 20 20 21 22 24 28 30 32 35 36 39 42 45 49 50 52 55 59 63 65 66 67 70 72 71 68 64 62 62 63 63 63 63

GFSNGP_500_spd_117.txt.gz
Wind_Speed
45 42 43 40 31 40 32 33 38 35 38 39 36 33 31 32 36 37 38 38 39 39 40 42 44 44 39 42 42 43 44 47 50 49 52 51 50 47 42 40 41 44 47 47
43 40 42 41 45 38 35 37 39 38 41 35 33 32 34 36 39 41 42 39 38 37 37 37 40 45 47 50 52 52 53 51 48 48 43 42 44 42 41 39 40 43 45 46
44 39 38 41 35 36 36 40 40 43 36 33 36 35 36 37 39 41 39 39 40 41 41 42 42 40 40 44 49 53 51 49 48 45 42 42 43 44 43 41 40 39 41 44
42 37 39 38 37 38 36 39 41 39 35 32 33 35 36 39 37 36 38 41 41 42 43 43 42 44 47 46 44 45 46 43 42 41 41 41 44 44 46 47 44 43 44 45
38 38 38 38 36 39 41 42 40 35 35 34 35 37 36 34 34 36 36 35 33 35 34 30 30 31 34 32 29 25 19 14 13 10 13 16 21 24 30 38 44 47 49 47
36 37 37 33 30 32 34 35 29 31 33 34 33 32 33 32 30 29 23 20 19 18 19 19 16 14 7 4 3 3 1 6 5 10 8 10 14 17 22 21 24 28 27 30
29 33 30 26 26 30 32 26 30 28 28 28 27 27 28 27 25 19 21 20 20 17 11 10 9 5 3 4 3 4 4 8 10 8 8 5 7 8 9 10 11 9 7 8
30 29 22 19 26 29 25 25 24 24 26 24 23 20 21 19 19 21 14 13 10 10 7 6 4 2 3 8 10 8 7 7 5 6 6 6 9 10 12 13 15 18 18 18
27 21 21 22 24 21 19 21 23 21 20 16 14 16 19 17 13 11 10 10 6 6 5 5 4 5 6 4 8 9 7 4 3 3 4 5 6 9 10 12 14 17 19 21
24 23 24 24 21 19 19 18 17 16 13 12 14 14 13 14 12 11 12 7 6 9 9 8 6 9 7 5 4 1 1 3 3 4 6 10 12 14 16 17 18 18 20 21
23 20 17 19 20 17 15 14 13 12 12 11 9 7 9 9 8 9 10 11 10 9 9 5 4 1 2 2 3 4 3 1 5 9 14 16 16 16 15 16 17 18 20 20
20 20 19 19 18 17 15 12 12 13 12 8 7 6 9 10 11 11 12 11 11 10 6 5 5 4 4 6 7 5 3 6 10 14 18 19 18 18 20 21 22 23 25 29
17 17 17 18 17 16 15 13 14 14 12 12 12 11 11 13 12 13 12 13 9 8 8 8 6 6 9 8 7 7 8 11 14 18 21 24 25 26 27 27 28 29 32 34
16 16 16 18 18 16 14 13 13 15 13 13 14 15 16 16 16 16 13 11 10 11 10 8 9 9 9 9 10 11 13 15 18 19 21 24 26 28 30 33 35 37 39 41
14 15 15 16 17 17 15 13 14 14 12 13 14 17 17 17 16 15 13 12 12 11 11 12 11 10 11 12 13 14 16 20 21 23 25 28 30 31 33 36 39 42 45 47
15 16 16 16 18 18 17 15 15 15 13 15 17 19 18 19 18 15 13 13 13 13 13 13 12 14 15 16 18 19 21 23 25 27 30 32 33 36 39 42 44 46 49 52
19 19 19 20 21 20 22 21 18 18 16 16 19 20 22 21 19 17 16 16 14 15 14 14 16 17 18 20 21 24 27 29 29 31 34 37 40 42 43 45 48 52 56 59
25 26 26 26 25 25 24 25 25 22 21 19 21 23 23 21 21 20 19 16 16 18 18 18 18 20 21 24 27 29 32 32 33 36 39 41 44 46 48 51 55 59 63 66
34 35 35 34 32 30 28 26 28 26 24 23 24 26 25 24 24 21 18 19 19 21 21 20 22 23 26 29 30 33 35 35 38 41 43 45 46 48 52 56 61 65 68 72
29 34 37 37 36 36 33 31 30 29 27 25 24 29 28 26 24 22 20 22 22 21 22 24 25 27 30 32 34 38 39 40 43 46 48 47 49 53 58 62 67 70 72 75
27 27 29 32 31 34 33 33 30 28 28 28 25 27 30 27 25 24 23 24 24 23 24 26 29 31 33 35 39 42 43 45 47 49 48 51 54 58 63 67 71 73 74 75
12 8 13 20 22 26 26 29 27 26 25 23 21 25 29 28 26 25 24 23 24 25 28 30 32 34 36 39 43 46 47 49 50 50 52 55 59 64 68 71 73 74 75 76
5 3 5 10 17 19 23 25 24 24 21 19 20 22 24 26 27 23 23 24 26 28 30 33 34 37 40 43 46 48 50 51 51 53 56 60 64 68 71 73 74 75 75 73
10 2 7 10 9 16 18 19 18 19 20 20 19 23 25 25 23 23 24 26 27 30 31 34 37 41 43 45 49 51 52 52 54 57 61 65 69 70 72 73 74 74 71 67
6 1 3 5 7 11 16 19 19 21 23 22 24 25 25 24 24 24 25 27 29 31 33 37 41 42 44 48 50 52 53 55 58 61 65 68 69 70 71 72 72 69 65 63
8 5 3 7 10 12 13 15 16 18 19 22 23 23 22 23 24 25 27 28 30 33 37 40 41 44 47 50 52 53 55 58 61 64 66 67 68 69 70 69 66 63 61 60
8 10 10 10 10 10 11 14 16 17 19 21 21 22 23 23 25 26 28 30 33 36 38 40 43 45 49 52 53 54 57 60 63 64 65 66 68 68 67 63 61 59 59 59

GFSNGP_500_spd_120.txt.gz
Wind_Speed
46 47 47 44 44 42 46 37 40 42 43 33 31 31 33 30 33 32 34 35 36 37 37 35 35 37 37 38 37 36 38 39 41 41 43 44 44 45 46 44 44 40 40 36
51 48 49 48 45 47 43 39 38 30 38 35 31 35 34 32 32 35 37 39 39 38 36 35 35 34 34 33 33 34 35 39 41 40 42 45 41 40 45 46 46 43 42 37
48 47 48 51 45 48 44 41 42 46 35 35 34 37 34 33 36 37 36 38 36 34 36 37 37 36 34 34 32 31 31 32 33 32 33 34 36 39 40 41 41 43 41 38
49 47 50 49 42 41 42 41 41 40 33 33 37 36 34 35 36 36 36 35 34 33 32 31 30 29 27 30 30 30 29 26 21 20 21 21 25 27 29 31 33 41 45 44
49 50 51 45 44 40 39 39 39 39 42 41 38 34 34 35 36 35 34 32 30 24 23 22 21 19 19 17 13 11 8 4 2 4 7 8 11 13 16 19 21 25 29 29
44 44 46 43 38 36 36 37 35 34 32 31 30 30 33 33 32 30 29 28 23 20 22 20 14 11 9 9 5 2 4 3 8 12 9 7 7 8 8 6 7 8 12 17
33 36 40 34 32 32 33 26 28 27 26 26 28 30 29 28 26 26 25 22 20 21 19 14 12 9 7 4 1 1 3 7 7 4 3 2 6 5 7 9 11 13 14 13
33 35 36 29 28 28 25 25 25 24 24 25 26 26 25 24 21 19 19 19 16 14 9 9 8 7 5 3 3 5 6 7 7 6 5 5 5 6 8 9 11 13 14 15
33 34 30 28 26 22 21 22 21 21 22 23 21 22 19 18 19 18 15 11 11 7 8 10 7 3 1 3 7 10 8 4 3 3 3 5 8 11 12 13 13 13 13 15
34 30 27 27 26 22 20 21 21 19 18 18 17 15 17 21 19 15 12 11 10 9 7 4 3 6 6 5 4 2 2 2 1 2 5 9 12 13 14 14 16 16 16 16
27 25 25 26 26 25 23 18 18 15 15 13 12 13 15 12 10 10 10 12 9 9 8 6 5 3 1 2 3 3 3 4 5 7 11 13 15 15 16 16 17 19 20 21
21 24 24 24 24 22 19 18 15 15 14 11 11 10 8 9 10 10 9 10 10 9 10 7 4 4 4 5 5 7 8 8 10 12 15 17 19 18 17 18 19 21 22 25
19 21 20 18 17 17 18 17 16 14 14 11 12 8 8 9 10 11 10 11 12 11 8 6 7 8 8 8 9 10 11 12 14 16 19 21 22 22 24 24 24 24 28 30
17 17 16 18 18 19 18 17 16 14 14 14 14 12 14 13 13 13 13 13 12 9 9 8 10 11 11 12 12 12 15 16 17 19 21 22 24 27 28 28 29 30 32 34
14 15 17 17 18 19 19 18 17 15 14 15 14 13 15 16 14 15 15 13 11 10 11 12 12 13 14 14 15 18 19 21 22 23 24 25 28 30 32 35 36 37 39 41
14 16 15 16 17 19 20 19 18 16 15 14 13 14 14 16 17 16 15 15 13 12 13 14 14 16 16 17 19 21 23 24 26 27 29 30 32 36 38 40 40 41 42 45
14 15 16 17 18 19 21 21 19 17 16 15 15 16 17 18 18 18 18 16 15 14 16 18 17 17 18 20 22 24 25 27 28 31 33 36 38 41 43 43 43 45 48 51
17 18 19 20 20 20 21 22 23 23 20 19 18 19 19 20 21 20 21 19 17 16 18 19 20 21 22 23 25 26 27 30 32 35 39 41 44 46 46 46 47 50 53 56
23 25 26 27 27 27 27 26 25 27 27 24 23 21 21 22 24 23 22 22 21 21 20 20 21 24 26 29 28 29 32 34 36 39 43 45 47 48 49 50 53 54 59 62
24 24 26 28 29 31 33 33 31 30 30 30 27 26 25 25 27 26 25 25 25 23 21 23 24 26 29 31 31 33 36 38 40 44 47 48 51 52 52 54 55 60 64 67
21 24 28 32 34 35 34 36 35 34 32 30 30 28 26 24 28 29 27 27 26 24 24 24 26 29 31 33 34 37 40 42 44 47 50 52 55 55 55 58 60 66 70 72
20 25 26 22 22 26 29 31 32 30 30 28 27 26 26 24 24 29 31 29 27 26 26 25 27 31 33 35 37 40 42 44 48 50 52 55 57 57 59 62 67 71 73 74
11 10 10 4 6 12 16 20 24 24 25 25 25 24 23 22 21 24 27 28 29 28 27 28 30 34 36 38 40 42 44 47 51 53 56 58 57 60 63 68 70 72 73 73
2 8 4 0 2 10 13 14 17 20 22 22 21 21 20 19 19 21 25 27 27 28 30 30 33 36 38 40 42 44 47 50 53 56 58 58 60 63 67 69 71 71 73 73
3 4 3 2 4 5 10 11 16 16 18 19 19 19 17 18 19 22 24 27 29 30 30 32 34 36 40 41 43 46 49 52 55 57 58 60 62 65 68 69 70 71 71 68
7 7 4 5 6 7 9 12 15 16 17 18 19 21 22 22 23 25 27 28 28 29 31 33 35 38 39 42 45 48 51 54 56 57 59 61 64 66 67 69 69 68 65 60
8 8 7 7 7 8 11 13 15 18 19 20 21 22 22 23 25 27 28 27 28 30 32 35 37 38 41 44 47 50 53 54 55 57 60 62 64 65 67 67 65 61 57 56

GFSNGP_500_spd_123.txt.gz
Wind_Speed
38 42 45 47 47 46 45 45 46 41 42 39 34 36 32 26 29 31 33 35 35 34 35 35 36 36 35 33 32 30 30 31 32 32 31 34 35 36 39 41 38 39 36 33
44 45 50 52 47 45 50 47 45 41 44 39 39 37 30 33 32 33 35 33 34 34 33 34 35 34 33 31 31 28 28 29 31 29 30 32 32 33 33 34 34 34 34 34
46 47 51 54 48 49 51 46 44 47 40 40 37 41 36 34 33 33 34 33 33 33 33 33 33 31 29 27 26 24 24 24 24 23 24 24 25 26 26 27 29 31 32 35
48 46 52 47 45 48 44 45 43 42 40 41 37 36 37 36 35 35 35 33 32 31 29 28 25 23 22 20 21 18 15 16 18 18 18 18 16 16 16 15 17 18 20 22
46 49 48 48 44 43 47 45 41 43 42 39 36 39 39 37 36 34 29 29 28 26 24 20 21 19 15 13 12 12 8 7 10 11 10 12 12 9 10 10 11 10 10 13
46 55 52 45 47 47 49 41 37 37 35 34 35 36 32 33 30 28 26 25 23 23 20 18 18 14 14 12 11 8 6 8 8 13 16 12 7 3 1 3 4 6 9 10
44 51 42 34 35 34 36 31 33 32 30 30 30 29 27 27 26 24 23 22 21 18 16 17 12 8 6 6 6 4 7 12 14 9 4 3 3 3 4 5 8 11 13 13
42 29 31 27 32 33 32 31 29 29 27 26 25 26 25 23 22 22 19 18 16 15 12 9 7 7 6 2 4 5 8 10 7 4 3 1 1 5 8 11 13 13 13 12
33 30 29 29 31 31 29 29 27 22 22 22 23 21 20 21 20 16 17 16 12 10 8 8 4 2 4 9 11 12 10 4 2 2 1 3 7 11 12 13 13 14 14 15
30 29 29 31 33 32 30 28 22 19 21 20 19 19 19 18 16 18 17 13 13 11 9 4 5 5 7 8 5 4 1 2 2 2 4 8 11 13 14 15 16 16 17 18
24 28 31 32 31 30 29 25 22 20 20 18 17 16 15 15 15 14 13 14 13 11 9 7 5 7 9 5 2 3 3 4 4 6 8 12 15 16 17 18 20 21 22 21
23 25 25 25 25 24 25 23 24 20 17 16 15 14 12 12 10 11 11 12 12 11 11 7 9 8 6 5 4 4 5 6 9 10 13 16 19 20 20 21 22 21 20 22
21 19 21 24 21 22 22 20 19 19 16 15 14 13 10 9 12 11 12 12 13 11 9 9 9 9 7 5 6 8 9 12 14 16 19 21 23 24 22 23 25 27 28 30
19 19 18 19 19 19 15 17 19 19 16 15 15 13 11 10 10 11 12 12 11 12 13 11 11 10 8 8 9 11 14 16 18 20 23 25 27 28 29 29 30 32 34 35
20 19 16 15 16 17 18 19 19 18 17 15 17 16 14 15 14 14 14 14 15 15 14 13 13 10 10 11 13 16 18 19 22 25 26 28 30 30 32 33 34 36 38 40
16 14 13 14 17 18 19 19 19 18 18 17 16 16 15 16 17 15 14 18 16 15 14 14 14 12 13 15 17 20 22 23 25 27 29 31 31 33 35 36 38 40 41 43
13 15 15 14 15 17 18 20 20 20 19 17 17 16 16 18 17 17 17 17 16 16 15 15 15 15 17 19 20 22 24 26 28 30 31 31 33 36 37 40 42 44 45 47
12 14 15 15 17 17 19 20 21 22 21 19 19 18 18 19 20 18 19 18 18 18 17 17 17 19 22 23 23 25 28 30 32 34 34 35 38 40 41 44 46 48 50 52
16 17 18 19 20 21 22 22 23 24 25 25 22 22 20 20 21 22 22 22 21 21 20 20 21 23 23 23 26 29 30 33 36 37 38 40 43 44 46 48 50 52 55 57
21 23 24 24 25 26 27 29 29 29 28 28 28 26 25 24 24 23 25 26 25 24 24 25 26 27 27 26 28 29 33 37 40 42 43 44 45 46 48 51 54 56 59 62
18 18 19 20 22 25 27 29 31 34 33 32 30 31 30 29 28 27 25 29 28 27 27 27 28 28 29 30 31 33 35 39 42 44 45 46 48 50 52 55 58 60 63 65
14 14 17 22 26 30 31 32 33 34 34 33 29 29 28 28 28 27 25 25 29 30 29 30 30 29 29 31 33 35 38 41 43 45 47 48 50 52 56 58 60 63 65 70
15 10 12 16 14 7 8 18 21 24 24 25 27 27 27 27 26 25 23 23 25 28 30 30 31 32 33 34 36 38 39 41 43 46 47 50 52 55 58 58 62 65 69 72
8 6 9 11 9 5 3 5 12 19 22 24 23 24 24 24 23 22 22 22 22 24 27 29 31 31 33 35 35 37 40 43 45 46 49 52 55 56 57 60 64 68 70 71
2 3 7 6 4 2 3 4 7 11 18 18 18 20 22 22 22 21 21 20 20 23 26 29 31 32 32 34 37 39 42 43 45 48 51 53 54 56 59 63 66 68 69 70
7 7 9 9 7 5 4 6 7 10 11 13 15 17 18 19 19 19 18 18 21 25 28 30 30 30 32 35 38 40 42 44 47 50 51 52 54 58 61 64 65 67 68 65
8 9 7 7 8 8 8 9 9 12 14 15 16 18 20 21 22 22 22 22 24 26 28 28 29 32 34 37 38 40 43 46 48 48 50 53 56 59 61 63 65 65 62 58